<?xml version="1.0" encoding="UTF-8" standalone="no" ?>
<gpx xmlns="http://www.topografix.com/GPX/1/1" xmlns:xsi="http://www.w3.org/2001/XMLSchema-instance" xsi:schemaLocation="http://www.topografix.com/GPX/1/1 http://www.topografix.com/GPX/1/1/gpx.xsd" version="1.1" creator="VisuGPX - https://www.visugpx.com">
  <metadata>
    <name>Tr du Queyras J4 Abries - Les Fonts</name>
    <desc><![CDATA[Quatrième étape du tour du Queyras. Les lacs Mezan et petit Laus méritent le détour.]]></desc>
  </metadata>
  <trk>
    <name><![CDATA[2018-08-22 14:42:57]]></name>
    <trkseg>
      <trkpt lat="44.79498" lon="6.92634">
        <ele>1558.43</ele>
        <time>2018-08-22T05:40:17Z</time>
      </trkpt>
      <trkpt lat="44.79498" lon="6.92634">
        <ele>1558.43</ele>
        <time>2018-08-22T05:40:18Z</time>
      </trkpt>
      <trkpt lat="44.79499" lon="6.92632">
        <ele>1559.4</ele>
        <time>2018-08-22T05:40:43Z</time>
      </trkpt>
      <trkpt lat="44.79498" lon="6.92631">
        <ele>1559.4</ele>
        <time>2018-08-22T05:40:56Z</time>
      </trkpt>
      <trkpt lat="44.79498" lon="6.9263">
        <ele>1559.4</ele>
        <time>2018-08-22T05:41:14Z</time>
      </trkpt>
      <trkpt lat="44.79499" lon="6.92633">
        <ele>1559.4</ele>
        <time>2018-08-22T05:41:26Z</time>
      </trkpt>
      <trkpt lat="44.79504" lon="6.92639">
        <ele>1559.4</ele>
        <time>2018-08-22T05:41:34Z</time>
      </trkpt>
      <trkpt lat="44.79518" lon="6.92653">
        <ele>1560.36</ele>
        <time>2018-08-22T05:41:49Z</time>
      </trkpt>
      <trkpt lat="44.7953" lon="6.92665">
        <ele>1561.32</ele>
        <time>2018-08-22T05:42:05Z</time>
      </trkpt>
      <trkpt lat="44.79534" lon="6.9266">
        <ele>1563.24</ele>
        <time>2018-08-22T05:42:17Z</time>
      </trkpt>
      <trkpt lat="44.79537" lon="6.92653">
        <ele>1566.61</ele>
        <time>2018-08-22T05:42:32Z</time>
      </trkpt>
      <trkpt lat="44.79541" lon="6.92644">
        <ele>1568.05</ele>
        <time>2018-08-22T05:42:45Z</time>
      </trkpt>
      <trkpt lat="44.79544" lon="6.92646">
        <ele>1568.05</ele>
        <time>2018-08-22T05:42:58Z</time>
      </trkpt>
      <trkpt lat="44.79543" lon="6.92643">
        <ele>1568.05</ele>
        <time>2018-08-22T05:43:11Z</time>
      </trkpt>
      <trkpt lat="44.79545" lon="6.92631">
        <ele>1568.53</ele>
        <time>2018-08-22T05:43:22Z</time>
      </trkpt>
      <trkpt lat="44.7955" lon="6.92623">
        <ele>1571.89</ele>
        <time>2018-08-22T05:43:35Z</time>
      </trkpt>
      <trkpt lat="44.79553" lon="6.92617">
        <ele>1574.78</ele>
        <time>2018-08-22T05:43:48Z</time>
      </trkpt>
      <trkpt lat="44.79554" lon="6.92615">
        <ele>1575.26</ele>
        <time>2018-08-22T05:43:51Z</time>
      </trkpt>
      <trkpt lat="44.79559" lon="6.92616">
        <ele>1576.22</ele>
        <time>2018-08-22T05:44:03Z</time>
      </trkpt>
      <trkpt lat="44.79565" lon="6.92617">
        <ele>1577.66</ele>
        <time>2018-08-22T05:44:16Z</time>
      </trkpt>
      <trkpt lat="44.79569" lon="6.92613">
        <ele>1579.58</ele>
        <time>2018-08-22T05:44:31Z</time>
      </trkpt>
      <trkpt lat="44.79568" lon="6.92602">
        <ele>1581.99</ele>
        <time>2018-08-22T05:44:45Z</time>
      </trkpt>
      <trkpt lat="44.7957" lon="6.92592">
        <ele>1583.43</ele>
        <time>2018-08-22T05:44:59Z</time>
      </trkpt>
      <trkpt lat="44.79566" lon="6.9258">
        <ele>1584.87</ele>
        <time>2018-08-22T05:45:12Z</time>
      </trkpt>
      <trkpt lat="44.79563" lon="6.92567">
        <ele>1585.83</ele>
        <time>2018-08-22T05:45:25Z</time>
      </trkpt>
      <trkpt lat="44.79559" lon="6.92555">
        <ele>1587.75</ele>
        <time>2018-08-22T05:45:39Z</time>
      </trkpt>
      <trkpt lat="44.79549" lon="6.92545">
        <ele>1589.68</ele>
        <time>2018-08-22T05:45:54Z</time>
      </trkpt>
      <trkpt lat="44.79542" lon="6.92532">
        <ele>1591.12</ele>
        <time>2018-08-22T05:46:10Z</time>
      </trkpt>
      <trkpt lat="44.79537" lon="6.9252">
        <ele>1593.04</ele>
        <time>2018-08-22T05:46:25Z</time>
      </trkpt>
      <trkpt lat="44.79538" lon="6.92509">
        <ele>1594.96</ele>
        <time>2018-08-22T05:46:40Z</time>
      </trkpt>
      <trkpt lat="44.79536" lon="6.92498">
        <ele>1597.37</ele>
        <time>2018-08-22T05:46:52Z</time>
      </trkpt>
      <trkpt lat="44.79537" lon="6.92485">
        <ele>1598.81</ele>
        <time>2018-08-22T05:47:06Z</time>
      </trkpt>
      <trkpt lat="44.79536" lon="6.92473">
        <ele>1601.21</ele>
        <time>2018-08-22T05:47:19Z</time>
      </trkpt>
      <trkpt lat="44.79536" lon="6.92463">
        <ele>1603.62</ele>
        <time>2018-08-22T05:47:33Z</time>
      </trkpt>
      <trkpt lat="44.79538" lon="6.92453">
        <ele>1606.02</ele>
        <time>2018-08-22T05:47:45Z</time>
      </trkpt>
      <trkpt lat="44.79536" lon="6.92441">
        <ele>1608.42</ele>
        <time>2018-08-22T05:48:00Z</time>
      </trkpt>
      <trkpt lat="44.79541" lon="6.92432">
        <ele>1610.35</ele>
        <time>2018-08-22T05:48:15Z</time>
      </trkpt>
      <trkpt lat="44.79548" lon="6.92436">
        <ele>1612.75</ele>
        <time>2018-08-22T05:48:31Z</time>
      </trkpt>
      <trkpt lat="44.79555" lon="6.92435">
        <ele>1615.63</ele>
        <time>2018-08-22T05:48:46Z</time>
      </trkpt>
      <trkpt lat="44.79555" lon="6.92423">
        <ele>1618.04</ele>
        <time>2018-08-22T05:49:00Z</time>
      </trkpt>
      <trkpt lat="44.79552" lon="6.92411">
        <ele>1619.96</ele>
        <time>2018-08-22T05:49:15Z</time>
      </trkpt>
      <trkpt lat="44.79548" lon="6.92401">
        <ele>1621.88</ele>
        <time>2018-08-22T05:49:29Z</time>
      </trkpt>
      <trkpt lat="44.79543" lon="6.92396">
        <ele>1623.8</ele>
        <time>2018-08-22T05:49:41Z</time>
      </trkpt>
      <trkpt lat="44.7954" lon="6.92387">
        <ele>1625.25</ele>
        <time>2018-08-22T05:49:53Z</time>
      </trkpt>
      <trkpt lat="44.79536" lon="6.9238">
        <ele>1626.69</ele>
        <time>2018-08-22T05:50:05Z</time>
      </trkpt>
      <trkpt lat="44.79533" lon="6.92364">
        <ele>1629.09</ele>
        <time>2018-08-22T05:50:22Z</time>
      </trkpt>
      <trkpt lat="44.79533" lon="6.9235">
        <ele>1631.01</ele>
        <time>2018-08-22T05:50:37Z</time>
      </trkpt>
      <trkpt lat="44.79536" lon="6.92336">
        <ele>1633.42</ele>
        <time>2018-08-22T05:50:51Z</time>
      </trkpt>
      <trkpt lat="44.79536" lon="6.92336">
        <ele>1633.9</ele>
        <time>2018-08-22T05:50:52Z</time>
      </trkpt>
      <trkpt lat="44.79535" lon="6.92322">
        <ele>1635.34</ele>
        <time>2018-08-22T05:51:05Z</time>
      </trkpt>
      <trkpt lat="44.79535" lon="6.92306">
        <ele>1636.3</ele>
        <time>2018-08-22T05:51:19Z</time>
      </trkpt>
      <trkpt lat="44.79533" lon="6.92288">
        <ele>1637.74</ele>
        <time>2018-08-22T05:51:34Z</time>
      </trkpt>
      <trkpt lat="44.79532" lon="6.92273">
        <ele>1638.22</ele>
        <time>2018-08-22T05:51:47Z</time>
      </trkpt>
      <trkpt lat="44.79534" lon="6.92259">
        <ele>1639.19</ele>
        <time>2018-08-22T05:51:59Z</time>
      </trkpt>
      <trkpt lat="44.79535" lon="6.92243">
        <ele>1640.63</ele>
        <time>2018-08-22T05:52:14Z</time>
      </trkpt>
      <trkpt lat="44.79536" lon="6.92229">
        <ele>1641.59</ele>
        <time>2018-08-22T05:52:25Z</time>
      </trkpt>
      <trkpt lat="44.79537" lon="6.92214">
        <ele>1642.07</ele>
        <time>2018-08-22T05:52:37Z</time>
      </trkpt>
      <trkpt lat="44.79537" lon="6.92211">
        <ele>1642.07</ele>
        <time>2018-08-22T05:52:39Z</time>
      </trkpt>
      <trkpt lat="44.79537" lon="6.92208">
        <ele>1642.07</ele>
        <time>2018-08-22T05:52:41Z</time>
      </trkpt>
      <trkpt lat="44.79537" lon="6.92191">
        <ele>1642.55</ele>
        <time>2018-08-22T05:52:55Z</time>
      </trkpt>
      <trkpt lat="44.79536" lon="6.92175">
        <ele>1644.47</ele>
        <time>2018-08-22T05:53:09Z</time>
      </trkpt>
      <trkpt lat="44.79535" lon="6.92163">
        <ele>1644.47</ele>
        <time>2018-08-22T05:53:18Z</time>
      </trkpt>
      <trkpt lat="44.79542" lon="6.92135">
        <ele>1642.55</ele>
        <time>2018-08-22T05:53:37Z</time>
      </trkpt>
      <trkpt lat="44.79545" lon="6.92118">
        <ele>1642.07</ele>
        <time>2018-08-22T05:53:49Z</time>
      </trkpt>
      <trkpt lat="44.79548" lon="6.92097">
        <ele>1642.07</ele>
        <time>2018-08-22T05:54:04Z</time>
      </trkpt>
      <trkpt lat="44.7955" lon="6.92078">
        <ele>1642.07</ele>
        <time>2018-08-22T05:54:17Z</time>
      </trkpt>
      <trkpt lat="44.79551" lon="6.92075">
        <ele>1642.07</ele>
        <time>2018-08-22T05:54:19Z</time>
      </trkpt>
      <trkpt lat="44.79552" lon="6.92063">
        <ele>1642.07</ele>
        <time>2018-08-22T05:54:27Z</time>
      </trkpt>
      <trkpt lat="44.79553" lon="6.92049">
        <ele>1642.07</ele>
        <time>2018-08-22T05:54:36Z</time>
      </trkpt>
      <trkpt lat="44.79552" lon="6.92029">
        <ele>1643.51</ele>
        <time>2018-08-22T05:54:50Z</time>
      </trkpt>
      <trkpt lat="44.79552" lon="6.92022">
        <ele>1643.51</ele>
        <time>2018-08-22T05:54:55Z</time>
      </trkpt>
      <trkpt lat="44.79549" lon="6.92003">
        <ele>1645.43</ele>
        <time>2018-08-22T05:55:11Z</time>
      </trkpt>
      <trkpt lat="44.79548" lon="6.91996">
        <ele>1645.91</ele>
        <time>2018-08-22T05:55:17Z</time>
      </trkpt>
      <trkpt lat="44.79552" lon="6.91981">
        <ele>1647.84</ele>
        <time>2018-08-22T05:55:30Z</time>
      </trkpt>
      <trkpt lat="44.79552" lon="6.9198">
        <ele>1648.32</ele>
        <time>2018-08-22T05:55:32Z</time>
      </trkpt>
      <trkpt lat="44.79555" lon="6.9197">
        <ele>1649.76</ele>
        <time>2018-08-22T05:55:42Z</time>
      </trkpt>
      <trkpt lat="44.79559" lon="6.91959">
        <ele>1651.68</ele>
        <time>2018-08-22T05:55:55Z</time>
      </trkpt>
      <trkpt lat="44.79564" lon="6.9195">
        <ele>1653.12</ele>
        <time>2018-08-22T05:56:04Z</time>
      </trkpt>
      <trkpt lat="44.79569" lon="6.9194">
        <ele>1654.57</ele>
        <time>2018-08-22T05:56:16Z</time>
      </trkpt>
      <trkpt lat="44.79576" lon="6.9193">
        <ele>1656.97</ele>
        <time>2018-08-22T05:56:30Z</time>
      </trkpt>
      <trkpt lat="44.79581" lon="6.91922">
        <ele>1657.45</ele>
        <time>2018-08-22T05:56:39Z</time>
      </trkpt>
      <trkpt lat="44.79584" lon="6.91902">
        <ele>1657.93</ele>
        <time>2018-08-22T05:56:54Z</time>
      </trkpt>
      <trkpt lat="44.79586" lon="6.91887">
        <ele>1658.89</ele>
        <time>2018-08-22T05:57:07Z</time>
      </trkpt>
      <trkpt lat="44.79585" lon="6.91873">
        <ele>1661.3</ele>
        <time>2018-08-22T05:57:20Z</time>
      </trkpt>
      <trkpt lat="44.79591" lon="6.91863">
        <ele>1663.22</ele>
        <time>2018-08-22T05:57:33Z</time>
      </trkpt>
      <trkpt lat="44.79598" lon="6.91853">
        <ele>1665.62</ele>
        <time>2018-08-22T05:57:47Z</time>
      </trkpt>
      <trkpt lat="44.79605" lon="6.91844">
        <ele>1667.54</ele>
        <time>2018-08-22T05:58:00Z</time>
      </trkpt>
      <trkpt lat="44.79613" lon="6.91837">
        <ele>1669.95</ele>
        <time>2018-08-22T05:58:14Z</time>
      </trkpt>
      <trkpt lat="44.79614" lon="6.91837">
        <ele>1669.95</ele>
        <time>2018-08-22T05:58:17Z</time>
      </trkpt>
      <trkpt lat="44.79613" lon="6.91826">
        <ele>1672.35</ele>
        <time>2018-08-22T05:58:30Z</time>
      </trkpt>
      <trkpt lat="44.79616" lon="6.9182">
        <ele>1674.27</ele>
        <time>2018-08-22T05:58:43Z</time>
      </trkpt>
      <trkpt lat="44.79618" lon="6.9181">
        <ele>1677.16</ele>
        <time>2018-08-22T05:58:55Z</time>
      </trkpt>
      <trkpt lat="44.79619" lon="6.91795">
        <ele>1678.6</ele>
        <time>2018-08-22T05:59:08Z</time>
      </trkpt>
      <trkpt lat="44.79618" lon="6.91778">
        <ele>1680.52</ele>
        <time>2018-08-22T05:59:23Z</time>
      </trkpt>
      <trkpt lat="44.79619" lon="6.91765">
        <ele>1681.96</ele>
        <time>2018-08-22T05:59:35Z</time>
      </trkpt>
      <trkpt lat="44.79625" lon="6.91756">
        <ele>1683.89</ele>
        <time>2018-08-22T05:59:47Z</time>
      </trkpt>
      <trkpt lat="44.79627" lon="6.91748">
        <ele>1684.37</ele>
        <time>2018-08-22T05:59:54Z</time>
      </trkpt>
      <trkpt lat="44.79635" lon="6.91732">
        <ele>1685.81</ele>
        <time>2018-08-22T06:00:09Z</time>
      </trkpt>
      <trkpt lat="44.79641" lon="6.9172">
        <ele>1687.25</ele>
        <time>2018-08-22T06:00:22Z</time>
      </trkpt>
      <trkpt lat="44.7965" lon="6.91711">
        <ele>1689.17</ele>
        <time>2018-08-22T06:00:36Z</time>
      </trkpt>
      <trkpt lat="44.79655" lon="6.91714">
        <ele>1691.58</ele>
        <time>2018-08-22T06:00:48Z</time>
      </trkpt>
      <trkpt lat="44.79658" lon="6.91704">
        <ele>1693.98</ele>
        <time>2018-08-22T06:01:02Z</time>
      </trkpt>
      <trkpt lat="44.79663" lon="6.91698">
        <ele>1696.38</ele>
        <time>2018-08-22T06:01:14Z</time>
      </trkpt>
      <trkpt lat="44.79663" lon="6.91689">
        <ele>1698.31</ele>
        <time>2018-08-22T06:01:25Z</time>
      </trkpt>
      <trkpt lat="44.79662" lon="6.91679">
        <ele>1700.23</ele>
        <time>2018-08-22T06:01:37Z</time>
      </trkpt>
      <trkpt lat="44.79663" lon="6.91675">
        <ele>1701.67</ele>
        <time>2018-08-22T06:01:42Z</time>
      </trkpt>
      <trkpt lat="44.79666" lon="6.91665">
        <ele>1703.59</ele>
        <time>2018-08-22T06:01:55Z</time>
      </trkpt>
      <trkpt lat="44.79668" lon="6.91657">
        <ele>1705.04</ele>
        <time>2018-08-22T06:02:05Z</time>
      </trkpt>
      <trkpt lat="44.7967" lon="6.91651">
        <ele>1706</ele>
        <time>2018-08-22T06:02:10Z</time>
      </trkpt>
      <trkpt lat="44.79674" lon="6.91645">
        <ele>1706.96</ele>
        <time>2018-08-22T06:02:17Z</time>
      </trkpt>
      <trkpt lat="44.79675" lon="6.91631">
        <ele>1708.88</ele>
        <time>2018-08-22T06:02:30Z</time>
      </trkpt>
      <trkpt lat="44.79677" lon="6.91627">
        <ele>1709.84</ele>
        <time>2018-08-22T06:02:44Z</time>
      </trkpt>
      <trkpt lat="44.79677" lon="6.91627">
        <ele>1708.4</ele>
        <time>2018-08-22T06:02:50Z</time>
      </trkpt>
      <trkpt lat="44.79679" lon="6.91628">
        <ele>1708.4</ele>
        <time>2018-08-22T06:03:30Z</time>
      </trkpt>
      <trkpt lat="44.79677" lon="6.91628">
        <ele>1709.84</ele>
        <time>2018-08-22T06:03:48Z</time>
      </trkpt>
      <trkpt lat="44.79676" lon="6.91628">
        <ele>1709.84</ele>
        <time>2018-08-22T06:03:49Z</time>
      </trkpt>
      <trkpt lat="44.79675" lon="6.91626">
        <ele>1709.84</ele>
        <time>2018-08-22T06:04:04Z</time>
      </trkpt>
      <trkpt lat="44.79677" lon="6.91625">
        <ele>1709.84</ele>
        <time>2018-08-22T06:04:32Z</time>
      </trkpt>
      <trkpt lat="44.7968" lon="6.91621">
        <ele>1709.84</ele>
        <time>2018-08-22T06:04:46Z</time>
      </trkpt>
      <trkpt lat="44.79688" lon="6.91602">
        <ele>1710.8</ele>
        <time>2018-08-22T06:05:02Z</time>
      </trkpt>
      <trkpt lat="44.79689" lon="6.91599">
        <ele>1710.8</ele>
        <time>2018-08-22T06:05:04Z</time>
      </trkpt>
      <trkpt lat="44.79692" lon="6.91596">
        <ele>1711.28</ele>
        <time>2018-08-22T06:05:07Z</time>
      </trkpt>
      <trkpt lat="44.79693" lon="6.91594">
        <ele>1711.28</ele>
        <time>2018-08-22T06:05:09Z</time>
      </trkpt>
      <trkpt lat="44.79706" lon="6.91582">
        <ele>1712.25</ele>
        <time>2018-08-22T06:05:24Z</time>
      </trkpt>
      <trkpt lat="44.79718" lon="6.91569">
        <ele>1713.21</ele>
        <time>2018-08-22T06:05:39Z</time>
      </trkpt>
      <trkpt lat="44.79723" lon="6.91554">
        <ele>1714.65</ele>
        <time>2018-08-22T06:05:53Z</time>
      </trkpt>
      <trkpt lat="44.79731" lon="6.91546">
        <ele>1716.57</ele>
        <time>2018-08-22T06:06:04Z</time>
      </trkpt>
      <trkpt lat="44.79732" lon="6.91533">
        <ele>1718.49</ele>
        <time>2018-08-22T06:06:15Z</time>
      </trkpt>
      <trkpt lat="44.79733" lon="6.91522">
        <ele>1718.97</ele>
        <time>2018-08-22T06:06:23Z</time>
      </trkpt>
      <trkpt lat="44.79734" lon="6.9151">
        <ele>1719.94</ele>
        <time>2018-08-22T06:06:31Z</time>
      </trkpt>
      <trkpt lat="44.79734" lon="6.91492">
        <ele>1721.86</ele>
        <time>2018-08-22T06:06:45Z</time>
      </trkpt>
      <trkpt lat="44.79736" lon="6.91474">
        <ele>1723.3</ele>
        <time>2018-08-22T06:06:58Z</time>
      </trkpt>
      <trkpt lat="44.79735" lon="6.91456">
        <ele>1724.74</ele>
        <time>2018-08-22T06:07:12Z</time>
      </trkpt>
      <trkpt lat="44.79743" lon="6.91442">
        <ele>1726.67</ele>
        <time>2018-08-22T06:07:25Z</time>
      </trkpt>
      <trkpt lat="44.79747" lon="6.91419">
        <ele>1728.11</ele>
        <time>2018-08-22T06:07:42Z</time>
      </trkpt>
      <trkpt lat="44.79747" lon="6.91418">
        <ele>1728.11</ele>
        <time>2018-08-22T06:07:43Z</time>
      </trkpt>
      <trkpt lat="44.79756" lon="6.91391">
        <ele>1729.07</ele>
        <time>2018-08-22T06:08:01Z</time>
      </trkpt>
      <trkpt lat="44.79763" lon="6.91375">
        <ele>1730.03</ele>
        <time>2018-08-22T06:08:13Z</time>
      </trkpt>
      <trkpt lat="44.79767" lon="6.91364">
        <ele>1729.07</ele>
        <time>2018-08-22T06:08:20Z</time>
      </trkpt>
      <trkpt lat="44.79768" lon="6.91358">
        <ele>1729.07</ele>
        <time>2018-08-22T06:08:24Z</time>
      </trkpt>
      <trkpt lat="44.7977" lon="6.91355">
        <ele>1729.07</ele>
        <time>2018-08-22T06:08:26Z</time>
      </trkpt>
      <trkpt lat="44.79773" lon="6.91345">
        <ele>1729.07</ele>
        <time>2018-08-22T06:08:33Z</time>
      </trkpt>
      <trkpt lat="44.79773" lon="6.91341">
        <ele>1728.59</ele>
        <time>2018-08-22T06:08:35Z</time>
      </trkpt>
      <trkpt lat="44.79779" lon="6.91335">
        <ele>1730.03</ele>
        <time>2018-08-22T06:08:43Z</time>
      </trkpt>
      <trkpt lat="44.7978" lon="6.91333">
        <ele>1730.51</ele>
        <time>2018-08-22T06:08:45Z</time>
      </trkpt>
      <trkpt lat="44.79782" lon="6.91315">
        <ele>1730.99</ele>
        <time>2018-08-22T06:08:55Z</time>
      </trkpt>
      <trkpt lat="44.79782" lon="6.91307">
        <ele>1730.99</ele>
        <time>2018-08-22T06:09:00Z</time>
      </trkpt>
      <trkpt lat="44.79782" lon="6.91301">
        <ele>1729.07</ele>
        <time>2018-08-22T06:09:04Z</time>
      </trkpt>
      <trkpt lat="44.79783" lon="6.91292">
        <ele>1729.07</ele>
        <time>2018-08-22T06:09:10Z</time>
      </trkpt>
      <trkpt lat="44.79783" lon="6.9129">
        <ele>1729.07</ele>
        <time>2018-08-22T06:09:18Z</time>
      </trkpt>
      <trkpt lat="44.7978" lon="6.91284">
        <ele>1729.07</ele>
        <time>2018-08-22T06:09:30Z</time>
      </trkpt>
      <trkpt lat="44.79779" lon="6.91274">
        <ele>1729.07</ele>
        <time>2018-08-22T06:09:36Z</time>
      </trkpt>
      <trkpt lat="44.7977" lon="6.91248">
        <ele>1730.99</ele>
        <time>2018-08-22T06:09:54Z</time>
      </trkpt>
      <trkpt lat="44.79765" lon="6.91229">
        <ele>1731.47</ele>
        <time>2018-08-22T06:10:10Z</time>
      </trkpt>
      <trkpt lat="44.79764" lon="6.91223">
        <ele>1731.95</ele>
        <time>2018-08-22T06:10:36Z</time>
      </trkpt>
      <trkpt lat="44.79748" lon="6.91194">
        <ele>1731.95</ele>
        <time>2018-08-22T06:10:56Z</time>
      </trkpt>
      <trkpt lat="44.79743" lon="6.91166">
        <ele>1729.07</ele>
        <time>2018-08-22T06:11:13Z</time>
      </trkpt>
      <trkpt lat="44.79739" lon="6.91147">
        <ele>1728.59</ele>
        <time>2018-08-22T06:11:26Z</time>
      </trkpt>
      <trkpt lat="44.79738" lon="6.91127">
        <ele>1728.59</ele>
        <time>2018-08-22T06:11:39Z</time>
      </trkpt>
      <trkpt lat="44.79739" lon="6.91122">
        <ele>1728.59</ele>
        <time>2018-08-22T06:11:43Z</time>
      </trkpt>
      <trkpt lat="44.79741" lon="6.91114">
        <ele>1728.59</ele>
        <time>2018-08-22T06:11:48Z</time>
      </trkpt>
      <trkpt lat="44.79741" lon="6.91107">
        <ele>1728.59</ele>
        <time>2018-08-22T06:11:52Z</time>
      </trkpt>
      <trkpt lat="44.79742" lon="6.91103">
        <ele>1730.03</ele>
        <time>2018-08-22T06:11:55Z</time>
      </trkpt>
      <trkpt lat="44.79748" lon="6.91099">
        <ele>1730.03</ele>
        <time>2018-08-22T06:12:01Z</time>
      </trkpt>
      <trkpt lat="44.79751" lon="6.91096">
        <ele>1730.51</ele>
        <time>2018-08-22T06:12:04Z</time>
      </trkpt>
      <trkpt lat="44.79761" lon="6.91087">
        <ele>1730.51</ele>
        <time>2018-08-22T06:12:15Z</time>
      </trkpt>
      <trkpt lat="44.79763" lon="6.91076">
        <ele>1730.51</ele>
        <time>2018-08-22T06:12:22Z</time>
      </trkpt>
      <trkpt lat="44.79762" lon="6.91063">
        <ele>1730.51</ele>
        <time>2018-08-22T06:12:37Z</time>
      </trkpt>
      <trkpt lat="44.79758" lon="6.91049">
        <ele>1730.51</ele>
        <time>2018-08-22T06:12:53Z</time>
      </trkpt>
      <trkpt lat="44.79747" lon="6.91034">
        <ele>1730.51</ele>
        <time>2018-08-22T06:13:06Z</time>
      </trkpt>
      <trkpt lat="44.79742" lon="6.91011">
        <ele>1731.47</ele>
        <time>2018-08-22T06:13:23Z</time>
      </trkpt>
      <trkpt lat="44.79749" lon="6.90988">
        <ele>1732.91</ele>
        <time>2018-08-22T06:13:40Z</time>
      </trkpt>
      <trkpt lat="44.79753" lon="6.90971">
        <ele>1733.88</ele>
        <time>2018-08-22T06:13:52Z</time>
      </trkpt>
      <trkpt lat="44.79744" lon="6.90949">
        <ele>1735.8</ele>
        <time>2018-08-22T06:14:10Z</time>
      </trkpt>
      <trkpt lat="44.79734" lon="6.90927">
        <ele>1736.76</ele>
        <time>2018-08-22T06:14:26Z</time>
      </trkpt>
      <trkpt lat="44.79725" lon="6.90901">
        <ele>1737.72</ele>
        <time>2018-08-22T06:14:44Z</time>
      </trkpt>
      <trkpt lat="44.7972" lon="6.90872">
        <ele>1736.28</ele>
        <time>2018-08-22T06:15:01Z</time>
      </trkpt>
      <trkpt lat="44.79712" lon="6.90837">
        <ele>1735.32</ele>
        <time>2018-08-22T06:15:21Z</time>
      </trkpt>
      <trkpt lat="44.7972" lon="6.90812">
        <ele>1735.32</ele>
        <time>2018-08-22T06:15:38Z</time>
      </trkpt>
      <trkpt lat="44.79724" lon="6.90807">
        <ele>1735.8</ele>
        <time>2018-08-22T06:15:43Z</time>
      </trkpt>
      <trkpt lat="44.79728" lon="6.90796">
        <ele>1735.8</ele>
        <time>2018-08-22T06:15:51Z</time>
      </trkpt>
      <trkpt lat="44.79719" lon="6.90779">
        <ele>1737.72</ele>
        <time>2018-08-22T06:16:06Z</time>
      </trkpt>
      <trkpt lat="44.79711" lon="6.9077">
        <ele>1740.12</ele>
        <time>2018-08-22T06:16:18Z</time>
      </trkpt>
      <trkpt lat="44.79707" lon="6.90754">
        <ele>1742.05</ele>
        <time>2018-08-22T06:16:34Z</time>
      </trkpt>
      <trkpt lat="44.79704" lon="6.90742">
        <ele>1744.45</ele>
        <time>2018-08-22T06:16:46Z</time>
      </trkpt>
      <trkpt lat="44.79702" lon="6.90738">
        <ele>1744.93</ele>
        <time>2018-08-22T06:16:51Z</time>
      </trkpt>
      <trkpt lat="44.79697" lon="6.90725">
        <ele>1746.37</ele>
        <time>2018-08-22T06:17:02Z</time>
      </trkpt>
      <trkpt lat="44.79697" lon="6.90722">
        <ele>1746.85</ele>
        <time>2018-08-22T06:17:04Z</time>
      </trkpt>
      <trkpt lat="44.79689" lon="6.90702">
        <ele>1747.81</ele>
        <time>2018-08-22T06:17:19Z</time>
      </trkpt>
      <trkpt lat="44.79685" lon="6.90687">
        <ele>1749.74</ele>
        <time>2018-08-22T06:17:33Z</time>
      </trkpt>
      <trkpt lat="44.79683" lon="6.90682">
        <ele>1750.7</ele>
        <time>2018-08-22T06:17:38Z</time>
      </trkpt>
      <trkpt lat="44.79673" lon="6.90654">
        <ele>1750.7</ele>
        <time>2018-08-22T06:17:58Z</time>
      </trkpt>
      <trkpt lat="44.79673" lon="6.90653">
        <ele>1750.7</ele>
        <time>2018-08-22T06:17:59Z</time>
      </trkpt>
      <trkpt lat="44.79669" lon="6.90644">
        <ele>1752.62</ele>
        <time>2018-08-22T06:18:07Z</time>
      </trkpt>
      <trkpt lat="44.79663" lon="6.90626">
        <ele>1754.06</ele>
        <time>2018-08-22T06:18:23Z</time>
      </trkpt>
      <trkpt lat="44.79658" lon="6.90607">
        <ele>1755.5</ele>
        <time>2018-08-22T06:18:37Z</time>
      </trkpt>
      <trkpt lat="44.79658" lon="6.90606">
        <ele>1755.5</ele>
        <time>2018-08-22T06:18:38Z</time>
      </trkpt>
      <trkpt lat="44.79654" lon="6.90582">
        <ele>1756.47</ele>
        <time>2018-08-22T06:18:54Z</time>
      </trkpt>
      <trkpt lat="44.79652" lon="6.90569">
        <ele>1757.91</ele>
        <time>2018-08-22T06:19:07Z</time>
      </trkpt>
      <trkpt lat="44.79651" lon="6.90558">
        <ele>1758.87</ele>
        <time>2018-08-22T06:19:18Z</time>
      </trkpt>
      <trkpt lat="44.7965" lon="6.90554">
        <ele>1759.35</ele>
        <time>2018-08-22T06:19:20Z</time>
      </trkpt>
      <trkpt lat="44.79647" lon="6.90531">
        <ele>1761.27</ele>
        <time>2018-08-22T06:19:36Z</time>
      </trkpt>
      <trkpt lat="44.79647" lon="6.90526">
        <ele>1761.27</ele>
        <time>2018-08-22T06:19:39Z</time>
      </trkpt>
      <trkpt lat="44.79646" lon="6.90519">
        <ele>1761.75</ele>
        <time>2018-08-22T06:19:44Z</time>
      </trkpt>
      <trkpt lat="44.79644" lon="6.90509">
        <ele>1762.23</ele>
        <time>2018-08-22T06:19:50Z</time>
      </trkpt>
      <trkpt lat="44.79641" lon="6.90481">
        <ele>1762.23</ele>
        <time>2018-08-22T06:20:07Z</time>
      </trkpt>
      <trkpt lat="44.79643" lon="6.90459">
        <ele>1762.71</ele>
        <time>2018-08-22T06:20:23Z</time>
      </trkpt>
      <trkpt lat="44.79643" lon="6.90454">
        <ele>1763.2</ele>
        <time>2018-08-22T06:20:26Z</time>
      </trkpt>
      <trkpt lat="44.79645" lon="6.90449">
        <ele>1763.68</ele>
        <time>2018-08-22T06:20:30Z</time>
      </trkpt>
      <trkpt lat="44.79645" lon="6.90447">
        <ele>1764.16</ele>
        <time>2018-08-22T06:20:32Z</time>
      </trkpt>
      <trkpt lat="44.79644" lon="6.90444">
        <ele>1764.16</ele>
        <time>2018-08-22T06:20:34Z</time>
      </trkpt>
      <trkpt lat="44.7965" lon="6.90417">
        <ele>1764.64</ele>
        <time>2018-08-22T06:20:51Z</time>
      </trkpt>
      <trkpt lat="44.79653" lon="6.90393">
        <ele>1764.64</ele>
        <time>2018-08-22T06:21:06Z</time>
      </trkpt>
      <trkpt lat="44.79656" lon="6.90377">
        <ele>1766.08</ele>
        <time>2018-08-22T06:21:19Z</time>
      </trkpt>
      <trkpt lat="44.79658" lon="6.90364">
        <ele>1767.52</ele>
        <time>2018-08-22T06:21:31Z</time>
      </trkpt>
      <trkpt lat="44.79658" lon="6.90363">
        <ele>1767.52</ele>
        <time>2018-08-22T06:21:32Z</time>
      </trkpt>
      <trkpt lat="44.7966" lon="6.9035">
        <ele>1767.52</ele>
        <time>2018-08-22T06:21:42Z</time>
      </trkpt>
      <trkpt lat="44.79662" lon="6.90327">
        <ele>1768.48</ele>
        <time>2018-08-22T06:21:58Z</time>
      </trkpt>
      <trkpt lat="44.79664" lon="6.90299">
        <ele>1768.48</ele>
        <time>2018-08-22T06:22:16Z</time>
      </trkpt>
      <trkpt lat="44.79664" lon="6.90291">
        <ele>1768.48</ele>
        <time>2018-08-22T06:22:21Z</time>
      </trkpt>
      <trkpt lat="44.79665" lon="6.90272">
        <ele>1768.48</ele>
        <time>2018-08-22T06:22:34Z</time>
      </trkpt>
      <trkpt lat="44.79664" lon="6.90269">
        <ele>1768.48</ele>
        <time>2018-08-22T06:22:36Z</time>
      </trkpt>
      <trkpt lat="44.79665" lon="6.90255">
        <ele>1769.92</ele>
        <time>2018-08-22T06:22:49Z</time>
      </trkpt>
      <trkpt lat="44.79665" lon="6.90247">
        <ele>1771.37</ele>
        <time>2018-08-22T06:22:56Z</time>
      </trkpt>
      <trkpt lat="44.79666" lon="6.90245">
        <ele>1772.33</ele>
        <time>2018-08-22T06:22:58Z</time>
      </trkpt>
      <trkpt lat="44.79667" lon="6.9024">
        <ele>1772.81</ele>
        <time>2018-08-22T06:23:03Z</time>
      </trkpt>
      <trkpt lat="44.79668" lon="6.90234">
        <ele>1773.77</ele>
        <time>2018-08-22T06:23:08Z</time>
      </trkpt>
      <trkpt lat="44.79668" lon="6.90232">
        <ele>1774.25</ele>
        <time>2018-08-22T06:23:10Z</time>
      </trkpt>
      <trkpt lat="44.79672" lon="6.90217">
        <ele>1775.69</ele>
        <time>2018-08-22T06:23:23Z</time>
      </trkpt>
      <trkpt lat="44.79673" lon="6.90203">
        <ele>1777.61</ele>
        <time>2018-08-22T06:23:36Z</time>
      </trkpt>
      <trkpt lat="44.79677" lon="6.90183">
        <ele>1779.54</ele>
        <time>2018-08-22T06:23:52Z</time>
      </trkpt>
      <trkpt lat="44.79689" lon="6.90168">
        <ele>1780.02</ele>
        <time>2018-08-22T06:24:07Z</time>
      </trkpt>
      <trkpt lat="44.79697" lon="6.90156">
        <ele>1781.46</ele>
        <time>2018-08-22T06:24:19Z</time>
      </trkpt>
      <trkpt lat="44.79703" lon="6.90148">
        <ele>1782.42</ele>
        <time>2018-08-22T06:24:28Z</time>
      </trkpt>
      <trkpt lat="44.79718" lon="6.90135">
        <ele>1783.38</ele>
        <time>2018-08-22T06:24:45Z</time>
      </trkpt>
      <trkpt lat="44.79727" lon="6.90125">
        <ele>1783.86</ele>
        <time>2018-08-22T06:24:57Z</time>
      </trkpt>
      <trkpt lat="44.79732" lon="6.90111">
        <ele>1785.79</ele>
        <time>2018-08-22T06:25:10Z</time>
      </trkpt>
      <trkpt lat="44.7974" lon="6.90092">
        <ele>1786.27</ele>
        <time>2018-08-22T06:25:25Z</time>
      </trkpt>
      <trkpt lat="44.79752" lon="6.90075">
        <ele>1787.71</ele>
        <time>2018-08-22T06:25:42Z</time>
      </trkpt>
      <trkpt lat="44.79753" lon="6.90074">
        <ele>1787.71</ele>
        <time>2018-08-22T06:25:43Z</time>
      </trkpt>
      <trkpt lat="44.79756" lon="6.9007">
        <ele>1787.71</ele>
        <time>2018-08-22T06:25:47Z</time>
      </trkpt>
      <trkpt lat="44.79764" lon="6.9005">
        <ele>1788.19</ele>
        <time>2018-08-22T06:26:04Z</time>
      </trkpt>
      <trkpt lat="44.7977" lon="6.9004">
        <ele>1788.67</ele>
        <time>2018-08-22T06:26:13Z</time>
      </trkpt>
      <trkpt lat="44.79779" lon="6.90029">
        <ele>1788.67</ele>
        <time>2018-08-22T06:26:24Z</time>
      </trkpt>
      <trkpt lat="44.79781" lon="6.90027">
        <ele>1788.67</ele>
        <time>2018-08-22T06:26:26Z</time>
      </trkpt>
      <trkpt lat="44.79785" lon="6.90021">
        <ele>1789.15</ele>
        <time>2018-08-22T06:26:32Z</time>
      </trkpt>
      <trkpt lat="44.79796" lon="6.90015">
        <ele>1791.55</ele>
        <time>2018-08-22T06:26:46Z</time>
      </trkpt>
      <trkpt lat="44.79798" lon="6.90014">
        <ele>1792.03</ele>
        <time>2018-08-22T06:26:48Z</time>
      </trkpt>
      <trkpt lat="44.7981" lon="6.90009">
        <ele>1793.48</ele>
        <time>2018-08-22T06:27:03Z</time>
      </trkpt>
      <trkpt lat="44.79824" lon="6.9">
        <ele>1795.4</ele>
        <time>2018-08-22T06:27:19Z</time>
      </trkpt>
      <trkpt lat="44.79827" lon="6.89997">
        <ele>1795.4</ele>
        <time>2018-08-22T06:27:23Z</time>
      </trkpt>
      <trkpt lat="44.79838" lon="6.89977">
        <ele>1795.4</ele>
        <time>2018-08-22T06:27:40Z</time>
      </trkpt>
      <trkpt lat="44.79852" lon="6.89959">
        <ele>1795.4</ele>
        <time>2018-08-22T06:27:57Z</time>
      </trkpt>
      <trkpt lat="44.79859" lon="6.89952">
        <ele>1795.4</ele>
        <time>2018-08-22T06:28:04Z</time>
      </trkpt>
      <trkpt lat="44.79868" lon="6.89944">
        <ele>1796.36</ele>
        <time>2018-08-22T06:28:15Z</time>
      </trkpt>
      <trkpt lat="44.79868" lon="6.89943">
        <ele>1796.36</ele>
        <time>2018-08-22T06:28:16Z</time>
      </trkpt>
      <trkpt lat="44.79877" lon="6.89936">
        <ele>1796.84</ele>
        <time>2018-08-22T06:28:25Z</time>
      </trkpt>
      <trkpt lat="44.79889" lon="6.89926">
        <ele>1796.84</ele>
        <time>2018-08-22T06:28:39Z</time>
      </trkpt>
      <trkpt lat="44.79892" lon="6.89922">
        <ele>1797.32</ele>
        <time>2018-08-22T06:28:43Z</time>
      </trkpt>
      <trkpt lat="44.79903" lon="6.899">
        <ele>1797.8</ele>
        <time>2018-08-22T06:29:01Z</time>
      </trkpt>
      <trkpt lat="44.79913" lon="6.89883">
        <ele>1797.8</ele>
        <time>2018-08-22T06:29:15Z</time>
      </trkpt>
      <trkpt lat="44.7992" lon="6.89866">
        <ele>1798.76</ele>
        <time>2018-08-22T06:29:31Z</time>
      </trkpt>
      <trkpt lat="44.7992" lon="6.8986">
        <ele>1799.24</ele>
        <time>2018-08-22T06:29:36Z</time>
      </trkpt>
      <trkpt lat="44.79924" lon="6.89853">
        <ele>1799.24</ele>
        <time>2018-08-22T06:29:43Z</time>
      </trkpt>
      <trkpt lat="44.79925" lon="6.89849">
        <ele>1798.28</ele>
        <time>2018-08-22T06:29:47Z</time>
      </trkpt>
      <trkpt lat="44.79925" lon="6.89848">
        <ele>1798.28</ele>
        <time>2018-08-22T06:29:48Z</time>
      </trkpt>
      <trkpt lat="44.79934" lon="6.89828">
        <ele>1797.8</ele>
        <time>2018-08-22T06:30:06Z</time>
      </trkpt>
      <trkpt lat="44.79938" lon="6.89817">
        <ele>1799.24</ele>
        <time>2018-08-22T06:30:14Z</time>
      </trkpt>
      <trkpt lat="44.79945" lon="6.89806">
        <ele>1800.21</ele>
        <time>2018-08-22T06:30:23Z</time>
      </trkpt>
      <trkpt lat="44.79961" lon="6.89793">
        <ele>1800.21</ele>
        <time>2018-08-22T06:30:39Z</time>
      </trkpt>
      <trkpt lat="44.79963" lon="6.89791">
        <ele>1800.69</ele>
        <time>2018-08-22T06:30:42Z</time>
      </trkpt>
      <trkpt lat="44.79965" lon="6.89789">
        <ele>1801.17</ele>
        <time>2018-08-22T06:30:44Z</time>
      </trkpt>
      <trkpt lat="44.79967" lon="6.89788">
        <ele>1801.17</ele>
        <time>2018-08-22T06:30:46Z</time>
      </trkpt>
      <trkpt lat="44.79972" lon="6.89784">
        <ele>1801.17</ele>
        <time>2018-08-22T06:30:51Z</time>
      </trkpt>
      <trkpt lat="44.79977" lon="6.89782">
        <ele>1801.65</ele>
        <time>2018-08-22T06:30:56Z</time>
      </trkpt>
      <trkpt lat="44.79981" lon="6.8978">
        <ele>1801.65</ele>
        <time>2018-08-22T06:31:00Z</time>
      </trkpt>
      <trkpt lat="44.79991" lon="6.89768">
        <ele>1803.09</ele>
        <time>2018-08-22T06:31:15Z</time>
      </trkpt>
      <trkpt lat="44.79994" lon="6.89747">
        <ele>1805.01</ele>
        <time>2018-08-22T06:31:31Z</time>
      </trkpt>
      <trkpt lat="44.79998" lon="6.89732">
        <ele>1806.94</ele>
        <time>2018-08-22T06:31:44Z</time>
      </trkpt>
      <trkpt lat="44.80003" lon="6.89718">
        <ele>1808.38</ele>
        <time>2018-08-22T06:31:57Z</time>
      </trkpt>
      <trkpt lat="44.80009" lon="6.89711">
        <ele>1810.3</ele>
        <time>2018-08-22T06:32:09Z</time>
      </trkpt>
      <trkpt lat="44.80014" lon="6.89699">
        <ele>1811.74</ele>
        <time>2018-08-22T06:32:22Z</time>
      </trkpt>
      <trkpt lat="44.80023" lon="6.89685">
        <ele>1813.66</ele>
        <time>2018-08-22T06:32:37Z</time>
      </trkpt>
      <trkpt lat="44.80034" lon="6.89679">
        <ele>1815.11</ele>
        <time>2018-08-22T06:32:50Z</time>
      </trkpt>
      <trkpt lat="44.80038" lon="6.89675">
        <ele>1815.11</ele>
        <time>2018-08-22T06:32:54Z</time>
      </trkpt>
      <trkpt lat="44.80041" lon="6.89673">
        <ele>1815.11</ele>
        <time>2018-08-22T06:32:57Z</time>
      </trkpt>
      <trkpt lat="44.80054" lon="6.89664">
        <ele>1813.66</ele>
        <time>2018-08-22T06:33:09Z</time>
      </trkpt>
      <trkpt lat="44.80063" lon="6.89659">
        <ele>1814.15</ele>
        <time>2018-08-22T06:33:20Z</time>
      </trkpt>
      <trkpt lat="44.80065" lon="6.89659">
        <ele>1814.15</ele>
        <time>2018-08-22T06:33:22Z</time>
      </trkpt>
      <trkpt lat="44.80078" lon="6.89658">
        <ele>1815.11</ele>
        <time>2018-08-22T06:33:37Z</time>
      </trkpt>
      <trkpt lat="44.80089" lon="6.89656">
        <ele>1817.03</ele>
        <time>2018-08-22T06:33:51Z</time>
      </trkpt>
      <trkpt lat="44.80094" lon="6.89649">
        <ele>1818.47</ele>
        <time>2018-08-22T06:34:03Z</time>
      </trkpt>
      <trkpt lat="44.80094" lon="6.89638">
        <ele>1820.87</ele>
        <time>2018-08-22T06:34:15Z</time>
      </trkpt>
      <trkpt lat="44.80086" lon="6.8963">
        <ele>1823.28</ele>
        <time>2018-08-22T06:34:28Z</time>
      </trkpt>
      <trkpt lat="44.80087" lon="6.89623">
        <ele>1825.2</ele>
        <time>2018-08-22T06:34:40Z</time>
      </trkpt>
      <trkpt lat="44.80092" lon="6.89621">
        <ele>1826.16</ele>
        <time>2018-08-22T06:34:53Z</time>
      </trkpt>
      <trkpt lat="44.80087" lon="6.89617">
        <ele>1829.05</ele>
        <time>2018-08-22T06:35:05Z</time>
      </trkpt>
      <trkpt lat="44.80096" lon="6.89613">
        <ele>1830.49</ele>
        <time>2018-08-22T06:35:18Z</time>
      </trkpt>
      <trkpt lat="44.80098" lon="6.89615">
        <ele>1832.41</ele>
        <time>2018-08-22T06:35:31Z</time>
      </trkpt>
      <trkpt lat="44.80101" lon="6.89611">
        <ele>1832.41</ele>
        <time>2018-08-22T06:35:46Z</time>
      </trkpt>
      <trkpt lat="44.80098" lon="6.89616">
        <ele>1832.89</ele>
        <time>2018-08-22T06:36:23Z</time>
      </trkpt>
      <trkpt lat="44.80093" lon="6.89614">
        <ele>1832.89</ele>
        <time>2018-08-22T06:36:34Z</time>
      </trkpt>
      <trkpt lat="44.80092" lon="6.89614">
        <ele>1832.89</ele>
        <time>2018-08-22T06:36:40Z</time>
      </trkpt>
      <trkpt lat="44.80088" lon="6.89613">
        <ele>1833.37</ele>
        <time>2018-08-22T06:36:52Z</time>
      </trkpt>
      <trkpt lat="44.80087" lon="6.89606">
        <ele>1834.33</ele>
        <time>2018-08-22T06:37:04Z</time>
      </trkpt>
      <trkpt lat="44.80093" lon="6.89595">
        <ele>1837.22</ele>
        <time>2018-08-22T06:37:18Z</time>
      </trkpt>
      <trkpt lat="44.80088" lon="6.89595">
        <ele>1840.1</ele>
        <time>2018-08-22T06:37:32Z</time>
      </trkpt>
      <trkpt lat="44.8008" lon="6.89595">
        <ele>1841.06</ele>
        <time>2018-08-22T06:37:44Z</time>
      </trkpt>
      <trkpt lat="44.80079" lon="6.89591">
        <ele>1841.54</ele>
        <time>2018-08-22T06:37:56Z</time>
      </trkpt>
      <trkpt lat="44.80082" lon="6.89593">
        <ele>1842.5</ele>
        <time>2018-08-22T06:38:09Z</time>
      </trkpt>
      <trkpt lat="44.80085" lon="6.89588">
        <ele>1841.06</ele>
        <time>2018-08-22T06:38:18Z</time>
      </trkpt>
      <trkpt lat="44.8009" lon="6.89588">
        <ele>1840.58</ele>
        <time>2018-08-22T06:38:31Z</time>
      </trkpt>
      <trkpt lat="44.80096" lon="6.89581">
        <ele>1839.14</ele>
        <time>2018-08-22T06:38:45Z</time>
      </trkpt>
      <trkpt lat="44.801" lon="6.89567">
        <ele>1839.14</ele>
        <time>2018-08-22T06:38:58Z</time>
      </trkpt>
      <trkpt lat="44.80105" lon="6.89556">
        <ele>1839.62</ele>
        <time>2018-08-22T06:39:11Z</time>
      </trkpt>
      <trkpt lat="44.80109" lon="6.89547">
        <ele>1839.62</ele>
        <time>2018-08-22T06:39:24Z</time>
      </trkpt>
      <trkpt lat="44.80117" lon="6.89535">
        <ele>1839.62</ele>
        <time>2018-08-22T06:39:39Z</time>
      </trkpt>
      <trkpt lat="44.80119" lon="6.89533">
        <ele>1839.62</ele>
        <time>2018-08-22T06:39:48Z</time>
      </trkpt>
      <trkpt lat="44.80124" lon="6.89521">
        <ele>1839.62</ele>
        <time>2018-08-22T06:39:59Z</time>
      </trkpt>
      <trkpt lat="44.80127" lon="6.89513">
        <ele>1839.62</ele>
        <time>2018-08-22T06:40:13Z</time>
      </trkpt>
      <trkpt lat="44.80128" lon="6.8951">
        <ele>1839.62</ele>
        <time>2018-08-22T06:40:25Z</time>
      </trkpt>
      <trkpt lat="44.80133" lon="6.89499">
        <ele>1839.62</ele>
        <time>2018-08-22T06:40:42Z</time>
      </trkpt>
      <trkpt lat="44.8014" lon="6.89492">
        <ele>1841.06</ele>
        <time>2018-08-22T06:40:56Z</time>
      </trkpt>
      <trkpt lat="44.80147" lon="6.89487">
        <ele>1842.02</ele>
        <time>2018-08-22T06:41:09Z</time>
      </trkpt>
      <trkpt lat="44.8015" lon="6.89483">
        <ele>1843.47</ele>
        <time>2018-08-22T06:41:24Z</time>
      </trkpt>
      <trkpt lat="44.80153" lon="6.89482">
        <ele>1843.47</ele>
        <time>2018-08-22T06:41:35Z</time>
      </trkpt>
      <trkpt lat="44.80153" lon="6.89482">
        <ele>1843.47</ele>
        <time>2018-08-22T06:42:18Z</time>
      </trkpt>
      <trkpt lat="44.80155" lon="6.89483">
        <ele>1843.47</ele>
        <time>2018-08-22T06:42:54Z</time>
      </trkpt>
      <trkpt lat="44.80157" lon="6.8948">
        <ele>1843.47</ele>
        <time>2018-08-22T06:43:06Z</time>
      </trkpt>
      <trkpt lat="44.80162" lon="6.89476">
        <ele>1843.95</ele>
        <time>2018-08-22T06:43:13Z</time>
      </trkpt>
      <trkpt lat="44.80164" lon="6.89475">
        <ele>1843.95</ele>
        <time>2018-08-22T06:43:15Z</time>
      </trkpt>
      <trkpt lat="44.80174" lon="6.8947">
        <ele>1845.39</ele>
        <time>2018-08-22T06:43:28Z</time>
      </trkpt>
      <trkpt lat="44.8018" lon="6.89465">
        <ele>1845.87</ele>
        <time>2018-08-22T06:43:34Z</time>
      </trkpt>
      <trkpt lat="44.80195" lon="6.89461">
        <ele>1846.35</ele>
        <time>2018-08-22T06:43:50Z</time>
      </trkpt>
      <trkpt lat="44.80211" lon="6.89465">
        <ele>1847.31</ele>
        <time>2018-08-22T06:44:05Z</time>
      </trkpt>
      <trkpt lat="44.8022" lon="6.89468">
        <ele>1847.79</ele>
        <time>2018-08-22T06:44:16Z</time>
      </trkpt>
      <trkpt lat="44.80227" lon="6.8945">
        <ele>1849.71</ele>
        <time>2018-08-22T06:44:31Z</time>
      </trkpt>
      <trkpt lat="44.80236" lon="6.89433">
        <ele>1852.12</ele>
        <time>2018-08-22T06:44:48Z</time>
      </trkpt>
      <trkpt lat="44.80242" lon="6.89424">
        <ele>1853.56</ele>
        <time>2018-08-22T06:45:00Z</time>
      </trkpt>
      <trkpt lat="44.80248" lon="6.89414">
        <ele>1855.96</ele>
        <time>2018-08-22T06:45:12Z</time>
      </trkpt>
      <trkpt lat="44.80253" lon="6.89404">
        <ele>1857.4</ele>
        <time>2018-08-22T06:45:22Z</time>
      </trkpt>
      <trkpt lat="44.80262" lon="6.89394">
        <ele>1859.81</ele>
        <time>2018-08-22T06:45:37Z</time>
      </trkpt>
      <trkpt lat="44.80268" lon="6.89381">
        <ele>1861.25</ele>
        <time>2018-08-22T06:45:51Z</time>
      </trkpt>
      <trkpt lat="44.80273" lon="6.89368">
        <ele>1863.65</ele>
        <time>2018-08-22T06:46:05Z</time>
      </trkpt>
      <trkpt lat="44.80276" lon="6.89357">
        <ele>1865.58</ele>
        <time>2018-08-22T06:46:19Z</time>
      </trkpt>
      <trkpt lat="44.80277" lon="6.8935">
        <ele>1867.5</ele>
        <time>2018-08-22T06:46:27Z</time>
      </trkpt>
      <trkpt lat="44.80283" lon="6.89334">
        <ele>1868.94</ele>
        <time>2018-08-22T06:46:42Z</time>
      </trkpt>
      <trkpt lat="44.80286" lon="6.89317">
        <ele>1871.34</ele>
        <time>2018-08-22T06:46:57Z</time>
      </trkpt>
      <trkpt lat="44.80291" lon="6.89303">
        <ele>1873.27</ele>
        <time>2018-08-22T06:47:11Z</time>
      </trkpt>
      <trkpt lat="44.80294" lon="6.89287">
        <ele>1875.19</ele>
        <time>2018-08-22T06:47:26Z</time>
      </trkpt>
      <trkpt lat="44.80296" lon="6.89277">
        <ele>1878.07</ele>
        <time>2018-08-22T06:47:40Z</time>
      </trkpt>
      <trkpt lat="44.80297" lon="6.89269">
        <ele>1879.51</ele>
        <time>2018-08-22T06:47:49Z</time>
      </trkpt>
      <trkpt lat="44.80298" lon="6.89267">
        <ele>1879.51</ele>
        <time>2018-08-22T06:47:51Z</time>
      </trkpt>
      <trkpt lat="44.8031" lon="6.89254">
        <ele>1880.96</ele>
        <time>2018-08-22T06:48:08Z</time>
      </trkpt>
      <trkpt lat="44.80313" lon="6.89246">
        <ele>1882.88</ele>
        <time>2018-08-22T06:48:20Z</time>
      </trkpt>
      <trkpt lat="44.8032" lon="6.89235">
        <ele>1884.8</ele>
        <time>2018-08-22T06:48:34Z</time>
      </trkpt>
      <trkpt lat="44.80326" lon="6.89226">
        <ele>1887.21</ele>
        <time>2018-08-22T06:48:47Z</time>
      </trkpt>
      <trkpt lat="44.80338" lon="6.89213">
        <ele>1889.13</ele>
        <time>2018-08-22T06:49:02Z</time>
      </trkpt>
      <trkpt lat="44.80349" lon="6.89206">
        <ele>1890.57</ele>
        <time>2018-08-22T06:49:15Z</time>
      </trkpt>
      <trkpt lat="44.80359" lon="6.89196">
        <ele>1893.93</ele>
        <time>2018-08-22T06:49:29Z</time>
      </trkpt>
      <trkpt lat="44.80361" lon="6.89194">
        <ele>1893.93</ele>
        <time>2018-08-22T06:49:31Z</time>
      </trkpt>
      <trkpt lat="44.80363" lon="6.8919">
        <ele>1894.42</ele>
        <time>2018-08-22T06:49:36Z</time>
      </trkpt>
      <trkpt lat="44.80372" lon="6.89176">
        <ele>1896.34</ele>
        <time>2018-08-22T06:49:51Z</time>
      </trkpt>
      <trkpt lat="44.80378" lon="6.89171">
        <ele>1897.3</ele>
        <time>2018-08-22T06:50:01Z</time>
      </trkpt>
      <trkpt lat="44.80386" lon="6.89158">
        <ele>1898.26</ele>
        <time>2018-08-22T06:50:14Z</time>
      </trkpt>
      <trkpt lat="44.80391" lon="6.89148">
        <ele>1900.18</ele>
        <time>2018-08-22T06:50:23Z</time>
      </trkpt>
      <trkpt lat="44.80394" lon="6.89143">
        <ele>1900.66</ele>
        <time>2018-08-22T06:50:28Z</time>
      </trkpt>
      <trkpt lat="44.80402" lon="6.89136">
        <ele>1902.11</ele>
        <time>2018-08-22T06:50:39Z</time>
      </trkpt>
      <trkpt lat="44.80404" lon="6.89131">
        <ele>1904.03</ele>
        <time>2018-08-22T06:50:46Z</time>
      </trkpt>
      <trkpt lat="44.80405" lon="6.89129">
        <ele>1904.51</ele>
        <time>2018-08-22T06:50:48Z</time>
      </trkpt>
      <trkpt lat="44.80421" lon="6.89113">
        <ele>1904.51</ele>
        <time>2018-08-22T06:51:05Z</time>
      </trkpt>
      <trkpt lat="44.80431" lon="6.8911">
        <ele>1904.51</ele>
        <time>2018-08-22T06:51:14Z</time>
      </trkpt>
      <trkpt lat="44.80438" lon="6.89111">
        <ele>1904.51</ele>
        <time>2018-08-22T06:51:21Z</time>
      </trkpt>
      <trkpt lat="44.80441" lon="6.89109">
        <ele>1904.51</ele>
        <time>2018-08-22T06:51:24Z</time>
      </trkpt>
      <trkpt lat="44.80446" lon="6.89108">
        <ele>1904.51</ele>
        <time>2018-08-22T06:51:29Z</time>
      </trkpt>
      <trkpt lat="44.80457" lon="6.89096">
        <ele>1905.95</ele>
        <time>2018-08-22T06:51:43Z</time>
      </trkpt>
      <trkpt lat="44.80464" lon="6.89084">
        <ele>1908.35</ele>
        <time>2018-08-22T06:51:56Z</time>
      </trkpt>
      <trkpt lat="44.80468" lon="6.89079">
        <ele>1909.32</ele>
        <time>2018-08-22T06:52:06Z</time>
      </trkpt>
      <trkpt lat="44.80473" lon="6.89067">
        <ele>1911.24</ele>
        <time>2018-08-22T06:52:19Z</time>
      </trkpt>
      <trkpt lat="44.80479" lon="6.89059">
        <ele>1913.64</ele>
        <time>2018-08-22T06:52:30Z</time>
      </trkpt>
      <trkpt lat="44.80487" lon="6.8905">
        <ele>1914.6</ele>
        <time>2018-08-22T06:52:40Z</time>
      </trkpt>
      <trkpt lat="44.80498" lon="6.89039">
        <ele>1915.08</ele>
        <time>2018-08-22T06:52:55Z</time>
      </trkpt>
      <trkpt lat="44.80506" lon="6.89026">
        <ele>1916.53</ele>
        <time>2018-08-22T06:53:08Z</time>
      </trkpt>
      <trkpt lat="44.80518" lon="6.89011">
        <ele>1917.49</ele>
        <time>2018-08-22T06:53:23Z</time>
      </trkpt>
      <trkpt lat="44.80534" lon="6.88993">
        <ele>1917.97</ele>
        <time>2018-08-22T06:53:41Z</time>
      </trkpt>
      <trkpt lat="44.80549" lon="6.88985">
        <ele>1918.45</ele>
        <time>2018-08-22T06:53:55Z</time>
      </trkpt>
      <trkpt lat="44.80566" lon="6.8898">
        <ele>1917.49</ele>
        <time>2018-08-22T06:54:12Z</time>
      </trkpt>
      <trkpt lat="44.80574" lon="6.88971">
        <ele>1918.45</ele>
        <time>2018-08-22T06:54:22Z</time>
      </trkpt>
      <trkpt lat="44.80589" lon="6.88948">
        <ele>1919.89</ele>
        <time>2018-08-22T06:54:41Z</time>
      </trkpt>
      <trkpt lat="44.80595" lon="6.88942">
        <ele>1920.37</ele>
        <time>2018-08-22T06:54:48Z</time>
      </trkpt>
      <trkpt lat="44.80606" lon="6.88929">
        <ele>1921.81</ele>
        <time>2018-08-22T06:55:03Z</time>
      </trkpt>
      <trkpt lat="44.80618" lon="6.88914">
        <ele>1923.74</ele>
        <time>2018-08-22T06:55:19Z</time>
      </trkpt>
      <trkpt lat="44.80621" lon="6.88912">
        <ele>1923.74</ele>
        <time>2018-08-22T06:55:22Z</time>
      </trkpt>
      <trkpt lat="44.80625" lon="6.88907">
        <ele>1923.74</ele>
        <time>2018-08-22T06:55:27Z</time>
      </trkpt>
      <trkpt lat="44.80641" lon="6.88891">
        <ele>1924.22</ele>
        <time>2018-08-22T06:55:44Z</time>
      </trkpt>
      <trkpt lat="44.80652" lon="6.88883">
        <ele>1927.1</ele>
        <time>2018-08-22T06:55:59Z</time>
      </trkpt>
      <trkpt lat="44.80663" lon="6.8888">
        <ele>1929.5</ele>
        <time>2018-08-22T06:56:14Z</time>
      </trkpt>
      <trkpt lat="44.80675" lon="6.88878">
        <ele>1931.43</ele>
        <time>2018-08-22T06:56:29Z</time>
      </trkpt>
      <trkpt lat="44.80679" lon="6.88876">
        <ele>1931.91</ele>
        <time>2018-08-22T06:56:33Z</time>
      </trkpt>
      <trkpt lat="44.80685" lon="6.88875">
        <ele>1929.98</ele>
        <time>2018-08-22T06:56:41Z</time>
      </trkpt>
      <trkpt lat="44.80685" lon="6.88876">
        <ele>1935.75</ele>
        <time>2018-08-22T06:56:42Z</time>
      </trkpt>
      <trkpt lat="44.80695" lon="6.88875">
        <ele>1935.27</ele>
        <time>2018-08-22T06:56:55Z</time>
      </trkpt>
      <trkpt lat="44.80708" lon="6.88874">
        <ele>1937.67</ele>
        <time>2018-08-22T06:57:09Z</time>
      </trkpt>
      <trkpt lat="44.8071" lon="6.88872">
        <ele>1937.67</ele>
        <time>2018-08-22T06:57:12Z</time>
      </trkpt>
      <trkpt lat="44.80722" lon="6.88865">
        <ele>1939.6</ele>
        <time>2018-08-22T06:57:26Z</time>
      </trkpt>
      <trkpt lat="44.80733" lon="6.88863">
        <ele>1940.56</ele>
        <time>2018-08-22T06:57:39Z</time>
      </trkpt>
      <trkpt lat="44.80743" lon="6.88861">
        <ele>1943.44</ele>
        <time>2018-08-22T06:57:52Z</time>
      </trkpt>
      <trkpt lat="44.80753" lon="6.88855">
        <ele>1945.36</ele>
        <time>2018-08-22T06:58:06Z</time>
      </trkpt>
      <trkpt lat="44.8076" lon="6.88852">
        <ele>1947.77</ele>
        <time>2018-08-22T06:58:17Z</time>
      </trkpt>
      <trkpt lat="44.80764" lon="6.88848">
        <ele>1949.69</ele>
        <time>2018-08-22T06:58:29Z</time>
      </trkpt>
      <trkpt lat="44.80769" lon="6.88843">
        <ele>1950.65</ele>
        <time>2018-08-22T06:58:36Z</time>
      </trkpt>
      <trkpt lat="44.80779" lon="6.88837">
        <ele>1953.06</ele>
        <time>2018-08-22T06:58:50Z</time>
      </trkpt>
      <trkpt lat="44.80783" lon="6.88825">
        <ele>1955.46</ele>
        <time>2018-08-22T06:59:04Z</time>
      </trkpt>
      <trkpt lat="44.80785" lon="6.88812">
        <ele>1957.86</ele>
        <time>2018-08-22T06:59:18Z</time>
      </trkpt>
      <trkpt lat="44.8079" lon="6.88798">
        <ele>1959.78</ele>
        <time>2018-08-22T06:59:31Z</time>
      </trkpt>
      <trkpt lat="44.808" lon="6.88786">
        <ele>1962.67</ele>
        <time>2018-08-22T06:59:47Z</time>
      </trkpt>
      <trkpt lat="44.80806" lon="6.88775">
        <ele>1965.07</ele>
        <time>2018-08-22T07:00:02Z</time>
      </trkpt>
      <trkpt lat="44.80816" lon="6.88766">
        <ele>1967.96</ele>
        <time>2018-08-22T07:00:18Z</time>
      </trkpt>
      <trkpt lat="44.80824" lon="6.88755">
        <ele>1970.36</ele>
        <time>2018-08-22T07:00:31Z</time>
      </trkpt>
      <trkpt lat="44.80836" lon="6.88756">
        <ele>1972.76</ele>
        <time>2018-08-22T07:00:47Z</time>
      </trkpt>
      <trkpt lat="44.80849" lon="6.8875">
        <ele>1975.17</ele>
        <time>2018-08-22T07:01:03Z</time>
      </trkpt>
      <trkpt lat="44.8086" lon="6.88754">
        <ele>1976.61</ele>
        <time>2018-08-22T07:01:17Z</time>
      </trkpt>
      <trkpt lat="44.80867" lon="6.88758">
        <ele>1979.97</ele>
        <time>2018-08-22T07:01:30Z</time>
      </trkpt>
      <trkpt lat="44.80871" lon="6.88762">
        <ele>1980.45</ele>
        <time>2018-08-22T07:01:36Z</time>
      </trkpt>
      <trkpt lat="44.80878" lon="6.88767">
        <ele>1981.41</ele>
        <time>2018-08-22T07:01:44Z</time>
      </trkpt>
      <trkpt lat="44.80886" lon="6.88775">
        <ele>1983.34</ele>
        <time>2018-08-22T07:01:57Z</time>
      </trkpt>
      <trkpt lat="44.80888" lon="6.88775">
        <ele>1983.82</ele>
        <time>2018-08-22T07:01:59Z</time>
      </trkpt>
      <trkpt lat="44.80899" lon="6.8878">
        <ele>1986.7</ele>
        <time>2018-08-22T07:02:13Z</time>
      </trkpt>
      <trkpt lat="44.80906" lon="6.88777">
        <ele>1988.62</ele>
        <time>2018-08-22T07:02:25Z</time>
      </trkpt>
      <trkpt lat="44.80916" lon="6.8877">
        <ele>1991.51</ele>
        <time>2018-08-22T07:02:40Z</time>
      </trkpt>
      <trkpt lat="44.80921" lon="6.88764">
        <ele>1992.47</ele>
        <time>2018-08-22T07:02:48Z</time>
      </trkpt>
      <trkpt lat="44.8093" lon="6.88757">
        <ele>1992.95</ele>
        <time>2018-08-22T07:02:57Z</time>
      </trkpt>
      <trkpt lat="44.80944" lon="6.88746">
        <ele>1995.35</ele>
        <time>2018-08-22T07:03:13Z</time>
      </trkpt>
      <trkpt lat="44.80954" lon="6.88736">
        <ele>1997.76</ele>
        <time>2018-08-22T07:03:27Z</time>
      </trkpt>
      <trkpt lat="44.80962" lon="6.88728">
        <ele>2000.16</ele>
        <time>2018-08-22T07:03:40Z</time>
      </trkpt>
      <trkpt lat="44.80963" lon="6.88727">
        <ele>2000.16</ele>
        <time>2018-08-22T07:03:42Z</time>
      </trkpt>
      <trkpt lat="44.80966" lon="6.88715">
        <ele>2001.6</ele>
        <time>2018-08-22T07:03:51Z</time>
      </trkpt>
      <trkpt lat="44.80976" lon="6.88697">
        <ele>2003.04</ele>
        <time>2018-08-22T07:04:05Z</time>
      </trkpt>
      <trkpt lat="44.80978" lon="6.88695">
        <ele>2003.04</ele>
        <time>2018-08-22T07:04:07Z</time>
      </trkpt>
      <trkpt lat="44.80982" lon="6.88691">
        <ele>2004.01</ele>
        <time>2018-08-22T07:04:12Z</time>
      </trkpt>
      <trkpt lat="44.80995" lon="6.88683">
        <ele>2005.93</ele>
        <time>2018-08-22T07:04:26Z</time>
      </trkpt>
      <trkpt lat="44.81011" lon="6.88681">
        <ele>2006.89</ele>
        <time>2018-08-22T07:04:41Z</time>
      </trkpt>
      <trkpt lat="44.81027" lon="6.88683">
        <ele>2008.33</ele>
        <time>2018-08-22T07:04:57Z</time>
      </trkpt>
      <trkpt lat="44.81045" lon="6.88683">
        <ele>2009.29</ele>
        <time>2018-08-22T07:05:13Z</time>
      </trkpt>
      <trkpt lat="44.81051" lon="6.88683">
        <ele>2009.77</ele>
        <time>2018-08-22T07:05:19Z</time>
      </trkpt>
      <trkpt lat="44.81054" lon="6.8868">
        <ele>2009.77</ele>
        <time>2018-08-22T07:05:22Z</time>
      </trkpt>
      <trkpt lat="44.81075" lon="6.88671">
        <ele>2009.77</ele>
        <time>2018-08-22T07:05:40Z</time>
      </trkpt>
      <trkpt lat="44.81091" lon="6.88657">
        <ele>2010.25</ele>
        <time>2018-08-22T07:05:57Z</time>
      </trkpt>
      <trkpt lat="44.81096" lon="6.88654">
        <ele>2011.22</ele>
        <time>2018-08-22T07:06:02Z</time>
      </trkpt>
      <trkpt lat="44.81109" lon="6.88655">
        <ele>2013.14</ele>
        <time>2018-08-22T07:06:15Z</time>
      </trkpt>
      <trkpt lat="44.81113" lon="6.88655">
        <ele>2013.14</ele>
        <time>2018-08-22T07:06:18Z</time>
      </trkpt>
      <trkpt lat="44.81123" lon="6.88657">
        <ele>2013.14</ele>
        <time>2018-08-22T07:06:28Z</time>
      </trkpt>
      <trkpt lat="44.81139" lon="6.8866">
        <ele>2013.62</ele>
        <time>2018-08-22T07:06:42Z</time>
      </trkpt>
      <trkpt lat="44.81152" lon="6.88658">
        <ele>2015.06</ele>
        <time>2018-08-22T07:06:54Z</time>
      </trkpt>
      <trkpt lat="44.81164" lon="6.88656">
        <ele>2016.98</ele>
        <time>2018-08-22T07:07:08Z</time>
      </trkpt>
      <trkpt lat="44.8118" lon="6.8866">
        <ele>2017.94</ele>
        <time>2018-08-22T07:07:23Z</time>
      </trkpt>
      <trkpt lat="44.81189" lon="6.88661">
        <ele>2018.91</ele>
        <time>2018-08-22T07:07:37Z</time>
      </trkpt>
      <trkpt lat="44.81193" lon="6.8866">
        <ele>2019.39</ele>
        <time>2018-08-22T07:07:46Z</time>
      </trkpt>
      <trkpt lat="44.81202" lon="6.88661">
        <ele>2020.35</ele>
        <time>2018-08-22T07:07:57Z</time>
      </trkpt>
      <trkpt lat="44.81217" lon="6.88665">
        <ele>2021.79</ele>
        <time>2018-08-22T07:08:13Z</time>
      </trkpt>
      <trkpt lat="44.81238" lon="6.88662">
        <ele>2020.35</ele>
        <time>2018-08-22T07:08:30Z</time>
      </trkpt>
      <trkpt lat="44.81239" lon="6.88661">
        <ele>2019.87</ele>
        <time>2018-08-22T07:08:31Z</time>
      </trkpt>
      <trkpt lat="44.81251" lon="6.88658">
        <ele>2021.31</ele>
        <time>2018-08-22T07:08:45Z</time>
      </trkpt>
      <trkpt lat="44.81264" lon="6.88653">
        <ele>2024.19</ele>
        <time>2018-08-22T07:09:02Z</time>
      </trkpt>
      <trkpt lat="44.81278" lon="6.88657">
        <ele>2024.19</ele>
        <time>2018-08-22T07:09:16Z</time>
      </trkpt>
      <trkpt lat="44.81289" lon="6.88645">
        <ele>2025.64</ele>
        <time>2018-08-22T07:09:31Z</time>
      </trkpt>
      <trkpt lat="44.81292" lon="6.88642">
        <ele>2026.12</ele>
        <time>2018-08-22T07:09:34Z</time>
      </trkpt>
      <trkpt lat="44.81304" lon="6.88642">
        <ele>2026.12</ele>
        <time>2018-08-22T07:09:46Z</time>
      </trkpt>
      <trkpt lat="44.81315" lon="6.88652">
        <ele>2025.15</ele>
        <time>2018-08-22T07:09:59Z</time>
      </trkpt>
      <trkpt lat="44.81334" lon="6.88656">
        <ele>2025.15</ele>
        <time>2018-08-22T07:10:16Z</time>
      </trkpt>
      <trkpt lat="44.81355" lon="6.88648">
        <ele>2025.15</ele>
        <time>2018-08-22T07:10:34Z</time>
      </trkpt>
      <trkpt lat="44.81369" lon="6.88647">
        <ele>2023.23</ele>
        <time>2018-08-22T07:10:47Z</time>
      </trkpt>
      <trkpt lat="44.81379" lon="6.88639">
        <ele>2023.23</ele>
        <time>2018-08-22T07:10:57Z</time>
      </trkpt>
      <trkpt lat="44.81391" lon="6.88637">
        <ele>2023.23</ele>
        <time>2018-08-22T07:11:07Z</time>
      </trkpt>
      <trkpt lat="44.81396" lon="6.88642">
        <ele>2025.15</ele>
        <time>2018-08-22T07:11:12Z</time>
      </trkpt>
      <trkpt lat="44.814" lon="6.88643">
        <ele>2025.64</ele>
        <time>2018-08-22T07:11:17Z</time>
      </trkpt>
      <trkpt lat="44.81407" lon="6.88639">
        <ele>2026.12</ele>
        <time>2018-08-22T07:11:24Z</time>
      </trkpt>
      <trkpt lat="44.81421" lon="6.88633">
        <ele>2026.6</ele>
        <time>2018-08-22T07:11:39Z</time>
      </trkpt>
      <trkpt lat="44.81426" lon="6.88628">
        <ele>2026.6</ele>
        <time>2018-08-22T07:11:44Z</time>
      </trkpt>
      <trkpt lat="44.81437" lon="6.88621">
        <ele>2026.6</ele>
        <time>2018-08-22T07:11:54Z</time>
      </trkpt>
      <trkpt lat="44.8144" lon="6.8862">
        <ele>2025.64</ele>
        <time>2018-08-22T07:11:57Z</time>
      </trkpt>
      <trkpt lat="44.81445" lon="6.88619">
        <ele>2025.64</ele>
        <time>2018-08-22T07:12:03Z</time>
      </trkpt>
      <trkpt lat="44.81448" lon="6.88617">
        <ele>2025.64</ele>
        <time>2018-08-22T07:12:06Z</time>
      </trkpt>
      <trkpt lat="44.81451" lon="6.88616">
        <ele>2025.64</ele>
        <time>2018-08-22T07:12:08Z</time>
      </trkpt>
      <trkpt lat="44.81458" lon="6.88607">
        <ele>2025.64</ele>
        <time>2018-08-22T07:12:16Z</time>
      </trkpt>
      <trkpt lat="44.81469" lon="6.88603">
        <ele>2027.08</ele>
        <time>2018-08-22T07:12:27Z</time>
      </trkpt>
      <trkpt lat="44.81474" lon="6.88595">
        <ele>2027.08</ele>
        <time>2018-08-22T07:12:33Z</time>
      </trkpt>
      <trkpt lat="44.81477" lon="6.8859">
        <ele>2027.08</ele>
        <time>2018-08-22T07:12:37Z</time>
      </trkpt>
      <trkpt lat="44.81482" lon="6.88586">
        <ele>2027.08</ele>
        <time>2018-08-22T07:12:42Z</time>
      </trkpt>
      <trkpt lat="44.81494" lon="6.88568">
        <ele>2028.04</ele>
        <time>2018-08-22T07:12:58Z</time>
      </trkpt>
      <trkpt lat="44.81505" lon="6.8856">
        <ele>2029.96</ele>
        <time>2018-08-22T07:13:11Z</time>
      </trkpt>
      <trkpt lat="44.81514" lon="6.88548">
        <ele>2029.96</ele>
        <time>2018-08-22T07:13:22Z</time>
      </trkpt>
      <trkpt lat="44.81519" lon="6.88539">
        <ele>2030.92</ele>
        <time>2018-08-22T07:13:38Z</time>
      </trkpt>
      <trkpt lat="44.81522" lon="6.88541">
        <ele>2031.4</ele>
        <time>2018-08-22T07:13:52Z</time>
      </trkpt>
      <trkpt lat="44.81525" lon="6.88542">
        <ele>2031.4</ele>
        <time>2018-08-22T07:14:05Z</time>
      </trkpt>
      <trkpt lat="44.81533" lon="6.88536">
        <ele>2031.88</ele>
        <time>2018-08-22T07:14:23Z</time>
      </trkpt>
      <trkpt lat="44.81543" lon="6.8853">
        <ele>2032.36</ele>
        <time>2018-08-22T07:14:38Z</time>
      </trkpt>
      <trkpt lat="44.81558" lon="6.88519">
        <ele>2032.84</ele>
        <time>2018-08-22T07:14:53Z</time>
      </trkpt>
      <trkpt lat="44.81572" lon="6.88511">
        <ele>2033.33</ele>
        <time>2018-08-22T07:15:07Z</time>
      </trkpt>
      <trkpt lat="44.81584" lon="6.88489">
        <ele>2032.84</ele>
        <time>2018-08-22T07:15:23Z</time>
      </trkpt>
      <trkpt lat="44.81585" lon="6.88488">
        <ele>2032.84</ele>
        <time>2018-08-22T07:15:24Z</time>
      </trkpt>
      <trkpt lat="44.81585" lon="6.88483">
        <ele>2032.84</ele>
        <time>2018-08-22T07:15:27Z</time>
      </trkpt>
      <trkpt lat="44.81587" lon="6.88473">
        <ele>2033.33</ele>
        <time>2018-08-22T07:15:42Z</time>
      </trkpt>
      <trkpt lat="44.81584" lon="6.88471">
        <ele>2033.33</ele>
        <time>2018-08-22T07:16:17Z</time>
      </trkpt>
      <trkpt lat="44.81584" lon="6.88469">
        <ele>2033.33</ele>
        <time>2018-08-22T07:16:20Z</time>
      </trkpt>
      <trkpt lat="44.81587" lon="6.88463">
        <ele>2033.33</ele>
        <time>2018-08-22T07:16:25Z</time>
      </trkpt>
      <trkpt lat="44.81594" lon="6.88457">
        <ele>2033.81</ele>
        <time>2018-08-22T07:16:32Z</time>
      </trkpt>
      <trkpt lat="44.81603" lon="6.88438">
        <ele>2034.29</ele>
        <time>2018-08-22T07:16:46Z</time>
      </trkpt>
      <trkpt lat="44.81616" lon="6.88423">
        <ele>2035.25</ele>
        <time>2018-08-22T07:17:01Z</time>
      </trkpt>
      <trkpt lat="44.81618" lon="6.88419">
        <ele>2035.73</ele>
        <time>2018-08-22T07:17:05Z</time>
      </trkpt>
      <trkpt lat="44.81619" lon="6.88413">
        <ele>2035.73</ele>
        <time>2018-08-22T07:17:08Z</time>
      </trkpt>
      <trkpt lat="44.81624" lon="6.88408">
        <ele>2036.21</ele>
        <time>2018-08-22T07:17:14Z</time>
      </trkpt>
      <trkpt lat="44.81629" lon="6.88399">
        <ele>2036.69</ele>
        <time>2018-08-22T07:17:20Z</time>
      </trkpt>
      <trkpt lat="44.81632" lon="6.88396">
        <ele>2037.17</ele>
        <time>2018-08-22T07:17:23Z</time>
      </trkpt>
      <trkpt lat="44.81634" lon="6.88393">
        <ele>2037.17</ele>
        <time>2018-08-22T07:17:26Z</time>
      </trkpt>
      <trkpt lat="44.81637" lon="6.88388">
        <ele>2037.17</ele>
        <time>2018-08-22T07:17:30Z</time>
      </trkpt>
      <trkpt lat="44.81641" lon="6.88372">
        <ele>2038.13</ele>
        <time>2018-08-22T07:17:42Z</time>
      </trkpt>
      <trkpt lat="44.81641" lon="6.8837">
        <ele>2038.13</ele>
        <time>2018-08-22T07:17:43Z</time>
      </trkpt>
      <trkpt lat="44.81647" lon="6.88346">
        <ele>2038.61</ele>
        <time>2018-08-22T07:17:57Z</time>
      </trkpt>
      <trkpt lat="44.81646" lon="6.88343">
        <ele>2038.61</ele>
        <time>2018-08-22T07:17:59Z</time>
      </trkpt>
      <trkpt lat="44.81645" lon="6.88336">
        <ele>2038.61</ele>
        <time>2018-08-22T07:18:03Z</time>
      </trkpt>
      <trkpt lat="44.81635" lon="6.8833">
        <ele>2039.09</ele>
        <time>2018-08-22T07:18:15Z</time>
      </trkpt>
      <trkpt lat="44.8163" lon="6.88318">
        <ele>2040.54</ele>
        <time>2018-08-22T07:18:26Z</time>
      </trkpt>
      <trkpt lat="44.81636" lon="6.88302">
        <ele>2042.94</ele>
        <time>2018-08-22T07:18:40Z</time>
      </trkpt>
      <trkpt lat="44.81636" lon="6.88291">
        <ele>2044.38</ele>
        <time>2018-08-22T07:18:50Z</time>
      </trkpt>
      <trkpt lat="44.81631" lon="6.88277">
        <ele>2046.3</ele>
        <time>2018-08-22T07:19:06Z</time>
      </trkpt>
      <trkpt lat="44.81622" lon="6.88266">
        <ele>2049.19</ele>
        <time>2018-08-22T07:19:21Z</time>
      </trkpt>
      <trkpt lat="44.8162" lon="6.88257">
        <ele>2051.11</ele>
        <time>2018-08-22T07:19:34Z</time>
      </trkpt>
      <trkpt lat="44.81613" lon="6.88244">
        <ele>2053.99</ele>
        <time>2018-08-22T07:19:50Z</time>
      </trkpt>
      <trkpt lat="44.81618" lon="6.88238">
        <ele>2055.92</ele>
        <time>2018-08-22T07:20:02Z</time>
      </trkpt>
      <trkpt lat="44.81628" lon="6.88236">
        <ele>2058.8</ele>
        <time>2018-08-22T07:20:15Z</time>
      </trkpt>
      <trkpt lat="44.81636" lon="6.8824">
        <ele>2060.72</ele>
        <time>2018-08-22T07:20:27Z</time>
      </trkpt>
      <trkpt lat="44.81641" lon="6.88237">
        <ele>2062.65</ele>
        <time>2018-08-22T07:20:38Z</time>
      </trkpt>
      <trkpt lat="44.81647" lon="6.88241">
        <ele>2065.53</ele>
        <time>2018-08-22T07:20:51Z</time>
      </trkpt>
      <trkpt lat="44.81653" lon="6.88243">
        <ele>2068.41</ele>
        <time>2018-08-22T07:21:06Z</time>
      </trkpt>
      <trkpt lat="44.81659" lon="6.88241">
        <ele>2070.82</ele>
        <time>2018-08-22T07:21:20Z</time>
      </trkpt>
      <trkpt lat="44.81667" lon="6.88247">
        <ele>2073.7</ele>
        <time>2018-08-22T07:21:37Z</time>
      </trkpt>
      <trkpt lat="44.81672" lon="6.8825">
        <ele>2075.62</ele>
        <time>2018-08-22T07:21:50Z</time>
      </trkpt>
      <trkpt lat="44.81678" lon="6.8825">
        <ele>2077.07</ele>
        <time>2018-08-22T07:22:03Z</time>
      </trkpt>
      <trkpt lat="44.81686" lon="6.88247">
        <ele>2078.99</ele>
        <time>2018-08-22T07:22:15Z</time>
      </trkpt>
      <trkpt lat="44.81695" lon="6.88247">
        <ele>2081.39</ele>
        <time>2018-08-22T07:22:29Z</time>
      </trkpt>
      <trkpt lat="44.817" lon="6.88244">
        <ele>2081.39</ele>
        <time>2018-08-22T07:22:34Z</time>
      </trkpt>
      <trkpt lat="44.81712" lon="6.8824">
        <ele>2083.79</ele>
        <time>2018-08-22T07:22:50Z</time>
      </trkpt>
      <trkpt lat="44.81718" lon="6.88239">
        <ele>2084.76</ele>
        <time>2018-08-22T07:22:57Z</time>
      </trkpt>
      <trkpt lat="44.81726" lon="6.88232">
        <ele>2087.64</ele>
        <time>2018-08-22T07:23:07Z</time>
      </trkpt>
      <trkpt lat="44.81727" lon="6.88231">
        <ele>2086.2</ele>
        <time>2018-08-22T07:23:08Z</time>
      </trkpt>
      <trkpt lat="44.81735" lon="6.88213">
        <ele>2087.64</ele>
        <time>2018-08-22T07:23:22Z</time>
      </trkpt>
      <trkpt lat="44.81747" lon="6.88201">
        <ele>2088.6</ele>
        <time>2018-08-22T07:23:36Z</time>
      </trkpt>
      <trkpt lat="44.81758" lon="6.88194">
        <ele>2090.04</ele>
        <time>2018-08-22T07:23:48Z</time>
      </trkpt>
      <trkpt lat="44.81759" lon="6.88193">
        <ele>2090.04</ele>
        <time>2018-08-22T07:23:49Z</time>
      </trkpt>
      <trkpt lat="44.81763" lon="6.88192">
        <ele>2090.04</ele>
        <time>2018-08-22T07:23:53Z</time>
      </trkpt>
      <trkpt lat="44.81776" lon="6.88193">
        <ele>2092.45</ele>
        <time>2018-08-22T07:24:09Z</time>
      </trkpt>
      <trkpt lat="44.81783" lon="6.88185">
        <ele>2094.37</ele>
        <time>2018-08-22T07:24:20Z</time>
      </trkpt>
      <trkpt lat="44.81795" lon="6.88174">
        <ele>2095.33</ele>
        <time>2018-08-22T07:24:37Z</time>
      </trkpt>
      <trkpt lat="44.81804" lon="6.88163">
        <ele>2096.77</ele>
        <time>2018-08-22T07:24:52Z</time>
      </trkpt>
      <trkpt lat="44.81812" lon="6.88153">
        <ele>2096.77</ele>
        <time>2018-08-22T07:25:04Z</time>
      </trkpt>
      <trkpt lat="44.81821" lon="6.88146">
        <ele>2097.73</ele>
        <time>2018-08-22T07:25:18Z</time>
      </trkpt>
      <trkpt lat="44.81823" lon="6.88144">
        <ele>2098.21</ele>
        <time>2018-08-22T07:25:21Z</time>
      </trkpt>
      <trkpt lat="44.81833" lon="6.88138">
        <ele>2100.14</ele>
        <time>2018-08-22T07:25:35Z</time>
      </trkpt>
      <trkpt lat="44.81842" lon="6.88135">
        <ele>2102.06</ele>
        <time>2018-08-22T07:25:48Z</time>
      </trkpt>
      <trkpt lat="44.81848" lon="6.88129">
        <ele>2104.46</ele>
        <time>2018-08-22T07:26:00Z</time>
      </trkpt>
      <trkpt lat="44.81857" lon="6.88121">
        <ele>2106.39</ele>
        <time>2018-08-22T07:26:15Z</time>
      </trkpt>
      <trkpt lat="44.81869" lon="6.88115">
        <ele>2108.79</ele>
        <time>2018-08-22T07:26:29Z</time>
      </trkpt>
      <trkpt lat="44.81877" lon="6.88108">
        <ele>2110.23</ele>
        <time>2018-08-22T07:26:41Z</time>
      </trkpt>
      <trkpt lat="44.8189" lon="6.88103">
        <ele>2111.67</ele>
        <time>2018-08-22T07:26:55Z</time>
      </trkpt>
      <trkpt lat="44.81903" lon="6.881">
        <ele>2112.63</ele>
        <time>2018-08-22T07:27:09Z</time>
      </trkpt>
      <trkpt lat="44.81906" lon="6.88098">
        <ele>2114.08</ele>
        <time>2018-08-22T07:27:14Z</time>
      </trkpt>
      <trkpt lat="44.81917" lon="6.88099">
        <ele>2115.52</ele>
        <time>2018-08-22T07:27:29Z</time>
      </trkpt>
      <trkpt lat="44.81926" lon="6.88104">
        <ele>2117.44</ele>
        <time>2018-08-22T07:27:41Z</time>
      </trkpt>
      <trkpt lat="44.81932" lon="6.88098">
        <ele>2119.36</ele>
        <time>2018-08-22T07:27:53Z</time>
      </trkpt>
      <trkpt lat="44.81941" lon="6.88102">
        <ele>2120.32</ele>
        <time>2018-08-22T07:28:03Z</time>
      </trkpt>
      <trkpt lat="44.81943" lon="6.88101">
        <ele>2120.32</ele>
        <time>2018-08-22T07:28:05Z</time>
      </trkpt>
      <trkpt lat="44.81957" lon="6.88099">
        <ele>2121.77</ele>
        <time>2018-08-22T07:28:20Z</time>
      </trkpt>
      <trkpt lat="44.81971" lon="6.88096">
        <ele>2123.69</ele>
        <time>2018-08-22T07:28:35Z</time>
      </trkpt>
      <trkpt lat="44.8198" lon="6.88097">
        <ele>2125.61</ele>
        <time>2018-08-22T07:28:48Z</time>
      </trkpt>
      <trkpt lat="44.81987" lon="6.88088">
        <ele>2127.53</ele>
        <time>2018-08-22T07:29:01Z</time>
      </trkpt>
      <trkpt lat="44.81998" lon="6.88089">
        <ele>2129.46</ele>
        <time>2018-08-22T07:29:15Z</time>
      </trkpt>
      <trkpt lat="44.82011" lon="6.88091">
        <ele>2130.9</ele>
        <time>2018-08-22T07:29:30Z</time>
      </trkpt>
      <trkpt lat="44.82028" lon="6.8809">
        <ele>2131.86</ele>
        <time>2018-08-22T07:29:46Z</time>
      </trkpt>
      <trkpt lat="44.82034" lon="6.88092">
        <ele>2131.86</ele>
        <time>2018-08-22T07:29:52Z</time>
      </trkpt>
      <trkpt lat="44.82037" lon="6.88094">
        <ele>2131.86</ele>
        <time>2018-08-22T07:29:56Z</time>
      </trkpt>
      <trkpt lat="44.82037" lon="6.88097">
        <ele>2131.86</ele>
        <time>2018-08-22T07:29:58Z</time>
      </trkpt>
      <trkpt lat="44.82036" lon="6.88115">
        <ele>2133.3</ele>
        <time>2018-08-22T07:30:12Z</time>
      </trkpt>
      <trkpt lat="44.82035" lon="6.8812">
        <ele>2133.78</ele>
        <time>2018-08-22T07:30:16Z</time>
      </trkpt>
      <trkpt lat="44.82039" lon="6.88135">
        <ele>2135.71</ele>
        <time>2018-08-22T07:30:33Z</time>
      </trkpt>
      <trkpt lat="44.82048" lon="6.88131">
        <ele>2137.63</ele>
        <time>2018-08-22T07:30:46Z</time>
      </trkpt>
      <trkpt lat="44.82056" lon="6.88134">
        <ele>2140.51</ele>
        <time>2018-08-22T07:31:00Z</time>
      </trkpt>
      <trkpt lat="44.82065" lon="6.8814">
        <ele>2142.44</ele>
        <time>2018-08-22T07:31:15Z</time>
      </trkpt>
      <trkpt lat="44.82073" lon="6.88144">
        <ele>2144.84</ele>
        <time>2018-08-22T07:31:29Z</time>
      </trkpt>
      <trkpt lat="44.82081" lon="6.88148">
        <ele>2145.8</ele>
        <time>2018-08-22T07:31:38Z</time>
      </trkpt>
      <trkpt lat="44.82093" lon="6.88156">
        <ele>2147.72</ele>
        <time>2018-08-22T07:31:53Z</time>
      </trkpt>
      <trkpt lat="44.82095" lon="6.88158">
        <ele>2148.2</ele>
        <time>2018-08-22T07:31:56Z</time>
      </trkpt>
      <trkpt lat="44.82101" lon="6.88165">
        <ele>2148.68</ele>
        <time>2018-08-22T07:32:03Z</time>
      </trkpt>
      <trkpt lat="44.82109" lon="6.88166">
        <ele>2150.61</ele>
        <time>2018-08-22T07:32:17Z</time>
      </trkpt>
      <trkpt lat="44.82114" lon="6.88165">
        <ele>2152.53</ele>
        <time>2018-08-22T07:32:25Z</time>
      </trkpt>
      <trkpt lat="44.82127" lon="6.88166">
        <ele>2153.49</ele>
        <time>2018-08-22T07:32:39Z</time>
      </trkpt>
      <trkpt lat="44.8214" lon="6.88171">
        <ele>2154.45</ele>
        <time>2018-08-22T07:32:52Z</time>
      </trkpt>
      <trkpt lat="44.82144" lon="6.88175">
        <ele>2154.45</ele>
        <time>2018-08-22T07:32:56Z</time>
      </trkpt>
      <trkpt lat="44.82148" lon="6.88177">
        <ele>2154.45</ele>
        <time>2018-08-22T07:33:00Z</time>
      </trkpt>
      <trkpt lat="44.82162" lon="6.88177">
        <ele>2155.89</ele>
        <time>2018-08-22T07:33:16Z</time>
      </trkpt>
      <trkpt lat="44.82165" lon="6.88179">
        <ele>2156.86</ele>
        <time>2018-08-22T07:33:21Z</time>
      </trkpt>
      <trkpt lat="44.82175" lon="6.88185">
        <ele>2159.26</ele>
        <time>2018-08-22T07:33:36Z</time>
      </trkpt>
      <trkpt lat="44.82176" lon="6.88186">
        <ele>2160.22</ele>
        <time>2018-08-22T07:33:38Z</time>
      </trkpt>
      <trkpt lat="44.82185" lon="6.88192">
        <ele>2161.18</ele>
        <time>2018-08-22T07:33:49Z</time>
      </trkpt>
      <trkpt lat="44.82195" lon="6.88197">
        <ele>2164.06</ele>
        <time>2018-08-22T07:34:05Z</time>
      </trkpt>
      <trkpt lat="44.82205" lon="6.88201">
        <ele>2165.99</ele>
        <time>2018-08-22T07:34:18Z</time>
      </trkpt>
      <trkpt lat="44.82206" lon="6.88203">
        <ele>2165.99</ele>
        <time>2018-08-22T07:34:20Z</time>
      </trkpt>
      <trkpt lat="44.82214" lon="6.88218">
        <ele>2167.91</ele>
        <time>2018-08-22T07:34:35Z</time>
      </trkpt>
      <trkpt lat="44.82224" lon="6.88227">
        <ele>2169.35</ele>
        <time>2018-08-22T07:34:50Z</time>
      </trkpt>
      <trkpt lat="44.82234" lon="6.88234">
        <ele>2172.24</ele>
        <time>2018-08-22T07:35:06Z</time>
      </trkpt>
      <trkpt lat="44.82235" lon="6.8822">
        <ele>2174.16</ele>
        <time>2018-08-22T07:35:18Z</time>
      </trkpt>
      <trkpt lat="44.82243" lon="6.88219">
        <ele>2175.6</ele>
        <time>2018-08-22T07:35:31Z</time>
      </trkpt>
      <trkpt lat="44.82249" lon="6.88207">
        <ele>2178</ele>
        <time>2018-08-22T07:35:45Z</time>
      </trkpt>
      <trkpt lat="44.82252" lon="6.88192">
        <ele>2179.93</ele>
        <time>2018-08-22T07:35:59Z</time>
      </trkpt>
      <trkpt lat="44.82259" lon="6.88181">
        <ele>2181.85</ele>
        <time>2018-08-22T07:36:13Z</time>
      </trkpt>
      <trkpt lat="44.82265" lon="6.88171">
        <ele>2184.73</ele>
        <time>2018-08-22T07:36:27Z</time>
      </trkpt>
      <trkpt lat="44.82268" lon="6.88164">
        <ele>2186.66</ele>
        <time>2018-08-22T07:36:38Z</time>
      </trkpt>
      <trkpt lat="44.82269" lon="6.8815">
        <ele>2189.06</ele>
        <time>2018-08-22T07:36:52Z</time>
      </trkpt>
      <trkpt lat="44.82268" lon="6.88136">
        <ele>2190.98</ele>
        <time>2018-08-22T07:37:07Z</time>
      </trkpt>
      <trkpt lat="44.82268" lon="6.88134">
        <ele>2190.98</ele>
        <time>2018-08-22T07:37:09Z</time>
      </trkpt>
      <trkpt lat="44.8226" lon="6.88121">
        <ele>2191.94</ele>
        <time>2018-08-22T07:37:22Z</time>
      </trkpt>
      <trkpt lat="44.82259" lon="6.88108">
        <ele>2193.87</ele>
        <time>2018-08-22T07:37:35Z</time>
      </trkpt>
      <trkpt lat="44.82257" lon="6.88096">
        <ele>2195.79</ele>
        <time>2018-08-22T07:37:48Z</time>
      </trkpt>
      <trkpt lat="44.82254" lon="6.88087">
        <ele>2197.23</ele>
        <time>2018-08-22T07:37:59Z</time>
      </trkpt>
      <trkpt lat="44.82251" lon="6.88073">
        <ele>2198.67</ele>
        <time>2018-08-22T07:38:12Z</time>
      </trkpt>
      <trkpt lat="44.8224" lon="6.88056">
        <ele>2199.15</ele>
        <time>2018-08-22T07:38:28Z</time>
      </trkpt>
      <trkpt lat="44.82232" lon="6.88041">
        <ele>2200.11</ele>
        <time>2018-08-22T07:38:43Z</time>
      </trkpt>
      <trkpt lat="44.8223" lon="6.88029">
        <ele>2202.52</ele>
        <time>2018-08-22T07:38:59Z</time>
      </trkpt>
      <trkpt lat="44.82227" lon="6.8802">
        <ele>2204.92</ele>
        <time>2018-08-22T07:39:11Z</time>
      </trkpt>
      <trkpt lat="44.82224" lon="6.88011">
        <ele>2207.32</ele>
        <time>2018-08-22T07:39:25Z</time>
      </trkpt>
      <trkpt lat="44.82215" lon="6.88002">
        <ele>2209.73</ele>
        <time>2018-08-22T07:39:40Z</time>
      </trkpt>
      <trkpt lat="44.8221" lon="6.87996">
        <ele>2212.13</ele>
        <time>2018-08-22T07:39:54Z</time>
      </trkpt>
      <trkpt lat="44.82208" lon="6.87995">
        <ele>2212.13</ele>
        <time>2018-08-22T07:39:56Z</time>
      </trkpt>
      <trkpt lat="44.82199" lon="6.8799">
        <ele>2213.09</ele>
        <time>2018-08-22T07:40:10Z</time>
      </trkpt>
      <trkpt lat="44.82193" lon="6.87985">
        <ele>2215.98</ele>
        <time>2018-08-22T07:40:24Z</time>
      </trkpt>
      <trkpt lat="44.82189" lon="6.87981">
        <ele>2216.94</ele>
        <time>2018-08-22T07:40:31Z</time>
      </trkpt>
      <trkpt lat="44.8218" lon="6.87972">
        <ele>2219.34</ele>
        <time>2018-08-22T07:40:47Z</time>
      </trkpt>
      <trkpt lat="44.82173" lon="6.87962">
        <ele>2221.26</ele>
        <time>2018-08-22T07:41:01Z</time>
      </trkpt>
      <trkpt lat="44.8217" lon="6.87948">
        <ele>2224.15</ele>
        <time>2018-08-22T07:41:14Z</time>
      </trkpt>
      <trkpt lat="44.82166" lon="6.87935">
        <ele>2225.59</ele>
        <time>2018-08-22T07:41:28Z</time>
      </trkpt>
      <trkpt lat="44.82163" lon="6.87926">
        <ele>2225.59</ele>
        <time>2018-08-22T07:41:36Z</time>
      </trkpt>
      <trkpt lat="44.82163" lon="6.87911">
        <ele>2226.55</ele>
        <time>2018-08-22T07:41:52Z</time>
      </trkpt>
      <trkpt lat="44.8217" lon="6.87912">
        <ele>2229.43</ele>
        <time>2018-08-22T07:42:04Z</time>
      </trkpt>
      <trkpt lat="44.82175" lon="6.87921">
        <ele>2231.84</ele>
        <time>2018-08-22T07:42:17Z</time>
      </trkpt>
      <trkpt lat="44.8218" lon="6.87926">
        <ele>2233.28</ele>
        <time>2018-08-22T07:42:30Z</time>
      </trkpt>
      <trkpt lat="44.82186" lon="6.8793">
        <ele>2235.68</ele>
        <time>2018-08-22T07:42:43Z</time>
      </trkpt>
      <trkpt lat="44.82191" lon="6.87936">
        <ele>2238.09</ele>
        <time>2018-08-22T07:42:57Z</time>
      </trkpt>
      <trkpt lat="44.82199" lon="6.87939">
        <ele>2240.97</ele>
        <time>2018-08-22T07:43:10Z</time>
      </trkpt>
      <trkpt lat="44.822" lon="6.87937">
        <ele>2242.41</ele>
        <time>2018-08-22T07:43:22Z</time>
      </trkpt>
      <trkpt lat="44.82194" lon="6.87926">
        <ele>2244.82</ele>
        <time>2018-08-22T07:43:37Z</time>
      </trkpt>
      <trkpt lat="44.822" lon="6.87921">
        <ele>2246.74</ele>
        <time>2018-08-22T07:43:50Z</time>
      </trkpt>
      <trkpt lat="44.82208" lon="6.87926">
        <ele>2249.14</ele>
        <time>2018-08-22T07:44:04Z</time>
      </trkpt>
      <trkpt lat="44.82216" lon="6.87934">
        <ele>2251.54</ele>
        <time>2018-08-22T07:44:19Z</time>
      </trkpt>
      <trkpt lat="44.82221" lon="6.87939">
        <ele>2253.95</ele>
        <time>2018-08-22T07:44:33Z</time>
      </trkpt>
      <trkpt lat="44.82228" lon="6.87938">
        <ele>2255.87</ele>
        <time>2018-08-22T07:44:45Z</time>
      </trkpt>
      <trkpt lat="44.82234" lon="6.87937">
        <ele>2258.27</ele>
        <time>2018-08-22T07:45:00Z</time>
      </trkpt>
      <trkpt lat="44.82241" lon="6.8794">
        <ele>2260.68</ele>
        <time>2018-08-22T07:45:13Z</time>
      </trkpt>
      <trkpt lat="44.82247" lon="6.87941">
        <ele>2262.6</ele>
        <time>2018-08-22T07:45:27Z</time>
      </trkpt>
      <trkpt lat="44.82254" lon="6.8794">
        <ele>2265.96</ele>
        <time>2018-08-22T07:45:43Z</time>
      </trkpt>
      <trkpt lat="44.8226" lon="6.87939">
        <ele>2267.41</ele>
        <time>2018-08-22T07:45:55Z</time>
      </trkpt>
      <trkpt lat="44.82264" lon="6.8794">
        <ele>2269.81</ele>
        <time>2018-08-22T07:46:07Z</time>
      </trkpt>
      <trkpt lat="44.82271" lon="6.8794">
        <ele>2272.21</ele>
        <time>2018-08-22T07:46:19Z</time>
      </trkpt>
      <trkpt lat="44.82278" lon="6.87939">
        <ele>2274.62</ele>
        <time>2018-08-22T07:46:32Z</time>
      </trkpt>
      <trkpt lat="44.82285" lon="6.87939">
        <ele>2277.02</ele>
        <time>2018-08-22T07:46:45Z</time>
      </trkpt>
      <trkpt lat="44.82291" lon="6.87941">
        <ele>2279.42</ele>
        <time>2018-08-22T07:46:58Z</time>
      </trkpt>
      <trkpt lat="44.82296" lon="6.87939">
        <ele>2282.79</ele>
        <time>2018-08-22T07:47:13Z</time>
      </trkpt>
      <trkpt lat="44.82304" lon="6.87938">
        <ele>2284.23</ele>
        <time>2018-08-22T07:47:26Z</time>
      </trkpt>
      <trkpt lat="44.82307" lon="6.87937">
        <ele>2287.59</ele>
        <time>2018-08-22T07:47:34Z</time>
      </trkpt>
      <trkpt lat="44.82312" lon="6.87938">
        <ele>2287.59</ele>
        <time>2018-08-22T07:47:43Z</time>
      </trkpt>
      <trkpt lat="44.8232" lon="6.87939">
        <ele>2290</ele>
        <time>2018-08-22T07:47:58Z</time>
      </trkpt>
      <trkpt lat="44.82327" lon="6.87946">
        <ele>2292.4</ele>
        <time>2018-08-22T07:48:12Z</time>
      </trkpt>
      <trkpt lat="44.82331" lon="6.87949">
        <ele>2293.36</ele>
        <time>2018-08-22T07:48:19Z</time>
      </trkpt>
      <trkpt lat="44.82342" lon="6.87958">
        <ele>2295.28</ele>
        <time>2018-08-22T07:48:33Z</time>
      </trkpt>
      <trkpt lat="44.82351" lon="6.87965">
        <ele>2297.21</ele>
        <time>2018-08-22T07:48:47Z</time>
      </trkpt>
      <trkpt lat="44.82361" lon="6.87973">
        <ele>2299.13</ele>
        <time>2018-08-22T07:49:02Z</time>
      </trkpt>
      <trkpt lat="44.82371" lon="6.87976">
        <ele>2301.05</ele>
        <time>2018-08-22T07:49:17Z</time>
      </trkpt>
      <trkpt lat="44.82379" lon="6.87978">
        <ele>2303.46</ele>
        <time>2018-08-22T07:49:30Z</time>
      </trkpt>
      <trkpt lat="44.82388" lon="6.87981">
        <ele>2305.86</ele>
        <time>2018-08-22T07:49:43Z</time>
      </trkpt>
      <trkpt lat="44.82394" lon="6.87976">
        <ele>2308.74</ele>
        <time>2018-08-22T07:49:58Z</time>
      </trkpt>
      <trkpt lat="44.8239" lon="6.87966">
        <ele>2310.19</ele>
        <time>2018-08-22T07:50:10Z</time>
      </trkpt>
      <trkpt lat="44.82389" lon="6.87956">
        <ele>2312.59</ele>
        <time>2018-08-22T07:50:24Z</time>
      </trkpt>
      <trkpt lat="44.82386" lon="6.87948">
        <ele>2314.99</ele>
        <time>2018-08-22T07:50:38Z</time>
      </trkpt>
      <trkpt lat="44.8238" lon="6.8794">
        <ele>2317.4</ele>
        <time>2018-08-22T07:50:52Z</time>
      </trkpt>
      <trkpt lat="44.82377" lon="6.87929">
        <ele>2319.32</ele>
        <time>2018-08-22T07:51:04Z</time>
      </trkpt>
      <trkpt lat="44.82374" lon="6.8792">
        <ele>2321.72</ele>
        <time>2018-08-22T07:51:18Z</time>
      </trkpt>
      <trkpt lat="44.82371" lon="6.8791">
        <ele>2324.12</ele>
        <time>2018-08-22T07:51:30Z</time>
      </trkpt>
      <trkpt lat="44.82371" lon="6.87899">
        <ele>2325.09</ele>
        <time>2018-08-22T07:51:44Z</time>
      </trkpt>
      <trkpt lat="44.82377" lon="6.87903">
        <ele>2327.97</ele>
        <time>2018-08-22T07:51:58Z</time>
      </trkpt>
      <trkpt lat="44.82383" lon="6.87904">
        <ele>2330.37</ele>
        <time>2018-08-22T07:52:12Z</time>
      </trkpt>
      <trkpt lat="44.82391" lon="6.87907">
        <ele>2333.26</ele>
        <time>2018-08-22T07:52:28Z</time>
      </trkpt>
      <trkpt lat="44.82398" lon="6.87905">
        <ele>2335.66</ele>
        <time>2018-08-22T07:52:42Z</time>
      </trkpt>
      <trkpt lat="44.82405" lon="6.87908">
        <ele>2338.06</ele>
        <time>2018-08-22T07:52:57Z</time>
      </trkpt>
      <trkpt lat="44.82412" lon="6.87908">
        <ele>2340.95</ele>
        <time>2018-08-22T07:53:12Z</time>
      </trkpt>
      <trkpt lat="44.82416" lon="6.87905">
        <ele>2343.35</ele>
        <time>2018-08-22T07:53:23Z</time>
      </trkpt>
      <trkpt lat="44.82415" lon="6.87897">
        <ele>2345.75</ele>
        <time>2018-08-22T07:53:37Z</time>
      </trkpt>
      <trkpt lat="44.82412" lon="6.87892">
        <ele>2346.23</ele>
        <time>2018-08-22T07:53:43Z</time>
      </trkpt>
      <trkpt lat="44.82406" lon="6.87878">
        <ele>2347.68</ele>
        <time>2018-08-22T07:53:58Z</time>
      </trkpt>
      <trkpt lat="44.82401" lon="6.8787">
        <ele>2350.56</ele>
        <time>2018-08-22T07:54:12Z</time>
      </trkpt>
      <trkpt lat="44.824" lon="6.87863">
        <ele>2352.48</ele>
        <time>2018-08-22T07:54:23Z</time>
      </trkpt>
      <trkpt lat="44.82396" lon="6.87855">
        <ele>2354.41</ele>
        <time>2018-08-22T07:54:36Z</time>
      </trkpt>
      <trkpt lat="44.82388" lon="6.87845">
        <ele>2355.37</ele>
        <time>2018-08-22T07:54:49Z</time>
      </trkpt>
      <trkpt lat="44.82382" lon="6.87841">
        <ele>2356.33</ele>
        <time>2018-08-22T07:54:57Z</time>
      </trkpt>
      <trkpt lat="44.82376" lon="6.8783">
        <ele>2358.25</ele>
        <time>2018-08-22T07:55:09Z</time>
      </trkpt>
      <trkpt lat="44.82371" lon="6.87819">
        <ele>2359.69</ele>
        <time>2018-08-22T07:55:22Z</time>
      </trkpt>
      <trkpt lat="44.82369" lon="6.87815">
        <ele>2361.14</ele>
        <time>2018-08-22T07:55:27Z</time>
      </trkpt>
      <trkpt lat="44.82361" lon="6.87806">
        <ele>2363.54</ele>
        <time>2018-08-22T07:55:42Z</time>
      </trkpt>
      <trkpt lat="44.82352" lon="6.87796">
        <ele>2365.46</ele>
        <time>2018-08-22T07:55:57Z</time>
      </trkpt>
      <trkpt lat="44.82347" lon="6.87785">
        <ele>2367.38</ele>
        <time>2018-08-22T07:56:10Z</time>
      </trkpt>
      <trkpt lat="44.82337" lon="6.87777">
        <ele>2370.27</ele>
        <time>2018-08-22T07:56:25Z</time>
      </trkpt>
      <trkpt lat="44.82329" lon="6.87769">
        <ele>2372.19</ele>
        <time>2018-08-22T07:56:39Z</time>
      </trkpt>
      <trkpt lat="44.82325" lon="6.87763">
        <ele>2373.63</ele>
        <time>2018-08-22T07:56:52Z</time>
      </trkpt>
      <trkpt lat="44.8232" lon="6.87753">
        <ele>2375.07</ele>
        <time>2018-08-22T07:57:05Z</time>
      </trkpt>
      <trkpt lat="44.82315" lon="6.8774">
        <ele>2377</ele>
        <time>2018-08-22T07:57:19Z</time>
      </trkpt>
      <trkpt lat="44.82309" lon="6.87725">
        <ele>2377.96</ele>
        <time>2018-08-22T07:57:34Z</time>
      </trkpt>
      <trkpt lat="44.82303" lon="6.87715">
        <ele>2380.36</ele>
        <time>2018-08-22T07:57:48Z</time>
      </trkpt>
      <trkpt lat="44.82297" lon="6.87706">
        <ele>2383.25</ele>
        <time>2018-08-22T07:58:02Z</time>
      </trkpt>
      <trkpt lat="44.82293" lon="6.87691">
        <ele>2384.69</ele>
        <time>2018-08-22T07:58:15Z</time>
      </trkpt>
      <trkpt lat="44.82288" lon="6.8768">
        <ele>2387.09</ele>
        <time>2018-08-22T07:58:28Z</time>
      </trkpt>
      <trkpt lat="44.82282" lon="6.87666">
        <ele>2389.49</ele>
        <time>2018-08-22T07:58:43Z</time>
      </trkpt>
      <trkpt lat="44.8228" lon="6.87656">
        <ele>2391.42</ele>
        <time>2018-08-22T07:58:57Z</time>
      </trkpt>
      <trkpt lat="44.82272" lon="6.87642">
        <ele>2392.86</ele>
        <time>2018-08-22T07:59:12Z</time>
      </trkpt>
      <trkpt lat="44.82267" lon="6.87628">
        <ele>2392.86</ele>
        <time>2018-08-22T07:59:26Z</time>
      </trkpt>
      <trkpt lat="44.82266" lon="6.87619">
        <ele>2394.78</ele>
        <time>2018-08-22T07:59:38Z</time>
      </trkpt>
      <trkpt lat="44.82262" lon="6.87613">
        <ele>2397.67</ele>
        <time>2018-08-22T07:59:49Z</time>
      </trkpt>
      <trkpt lat="44.82257" lon="6.87607">
        <ele>2397.67</ele>
        <time>2018-08-22T08:00:01Z</time>
      </trkpt>
      <trkpt lat="44.82252" lon="6.87604">
        <ele>2399.59</ele>
        <time>2018-08-22T08:00:11Z</time>
      </trkpt>
      <trkpt lat="44.82243" lon="6.876">
        <ele>2400.55</ele>
        <time>2018-08-22T08:00:25Z</time>
      </trkpt>
      <trkpt lat="44.82238" lon="6.87598">
        <ele>2403.43</ele>
        <time>2018-08-22T08:00:37Z</time>
      </trkpt>
      <trkpt lat="44.82232" lon="6.87592">
        <ele>2405.36</ele>
        <time>2018-08-22T08:00:50Z</time>
      </trkpt>
      <trkpt lat="44.82225" lon="6.87591">
        <ele>2406.8</ele>
        <time>2018-08-22T08:01:02Z</time>
      </trkpt>
      <trkpt lat="44.82222" lon="6.87591">
        <ele>2407.76</ele>
        <time>2018-08-22T08:01:05Z</time>
      </trkpt>
      <trkpt lat="44.82211" lon="6.87587">
        <ele>2409.2</ele>
        <time>2018-08-22T08:01:20Z</time>
      </trkpt>
      <trkpt lat="44.82205" lon="6.8759">
        <ele>2411.12</ele>
        <time>2018-08-22T08:01:33Z</time>
      </trkpt>
      <trkpt lat="44.82201" lon="6.87591">
        <ele>2412.57</ele>
        <time>2018-08-22T08:01:39Z</time>
      </trkpt>
      <trkpt lat="44.82193" lon="6.87601">
        <ele>2413.53</ele>
        <time>2018-08-22T08:01:54Z</time>
      </trkpt>
      <trkpt lat="44.82184" lon="6.87606">
        <ele>2414.49</ele>
        <time>2018-08-22T08:02:04Z</time>
      </trkpt>
      <trkpt lat="44.82177" lon="6.87611">
        <ele>2415.93</ele>
        <time>2018-08-22T08:02:19Z</time>
      </trkpt>
      <trkpt lat="44.82171" lon="6.87615">
        <ele>2418.33</ele>
        <time>2018-08-22T08:02:32Z</time>
      </trkpt>
      <trkpt lat="44.82164" lon="6.87621">
        <ele>2420.74</ele>
        <time>2018-08-22T08:02:45Z</time>
      </trkpt>
      <trkpt lat="44.82155" lon="6.87621">
        <ele>2423.62</ele>
        <time>2018-08-22T08:03:00Z</time>
      </trkpt>
      <trkpt lat="44.82147" lon="6.87619">
        <ele>2426.02</ele>
        <time>2018-08-22T08:03:13Z</time>
      </trkpt>
      <trkpt lat="44.8214" lon="6.87618">
        <ele>2428.43</ele>
        <time>2018-08-22T08:03:27Z</time>
      </trkpt>
      <trkpt lat="44.82145" lon="6.87614">
        <ele>2430.83</ele>
        <time>2018-08-22T08:03:39Z</time>
      </trkpt>
      <trkpt lat="44.82155" lon="6.87608">
        <ele>2432.75</ele>
        <time>2018-08-22T08:03:54Z</time>
      </trkpt>
      <trkpt lat="44.82162" lon="6.87602">
        <ele>2434.68</ele>
        <time>2018-08-22T08:04:09Z</time>
      </trkpt>
      <trkpt lat="44.82154" lon="6.87599">
        <ele>2437.08</ele>
        <time>2018-08-22T08:04:22Z</time>
      </trkpt>
      <trkpt lat="44.82145" lon="6.87594">
        <ele>2439.48</ele>
        <time>2018-08-22T08:04:37Z</time>
      </trkpt>
      <trkpt lat="44.82137" lon="6.87598">
        <ele>2441.89</ele>
        <time>2018-08-22T08:04:51Z</time>
      </trkpt>
      <trkpt lat="44.82128" lon="6.87598">
        <ele>2445.25</ele>
        <time>2018-08-22T08:05:06Z</time>
      </trkpt>
      <trkpt lat="44.8212" lon="6.87597">
        <ele>2447.65</ele>
        <time>2018-08-22T08:05:20Z</time>
      </trkpt>
      <trkpt lat="44.82113" lon="6.8759">
        <ele>2449.58</ele>
        <time>2018-08-22T08:05:33Z</time>
      </trkpt>
      <trkpt lat="44.82109" lon="6.87584">
        <ele>2451.02</ele>
        <time>2018-08-22T08:05:41Z</time>
      </trkpt>
      <trkpt lat="44.82098" lon="6.87571">
        <ele>2452.46</ele>
        <time>2018-08-22T08:05:57Z</time>
      </trkpt>
      <trkpt lat="44.82093" lon="6.87557">
        <ele>2453.9</ele>
        <time>2018-08-22T08:06:10Z</time>
      </trkpt>
      <trkpt lat="44.82083" lon="6.87544">
        <ele>2456.31</ele>
        <time>2018-08-22T08:06:25Z</time>
      </trkpt>
      <trkpt lat="44.8208" lon="6.8754">
        <ele>2457.27</ele>
        <time>2018-08-22T08:06:31Z</time>
      </trkpt>
      <trkpt lat="44.82077" lon="6.87538">
        <ele>2457.75</ele>
        <time>2018-08-22T08:06:35Z</time>
      </trkpt>
      <trkpt lat="44.82069" lon="6.87538">
        <ele>2459.67</ele>
        <time>2018-08-22T08:06:48Z</time>
      </trkpt>
      <trkpt lat="44.82061" lon="6.87536">
        <ele>2462.07</ele>
        <time>2018-08-22T08:07:00Z</time>
      </trkpt>
      <trkpt lat="44.82048" lon="6.87538">
        <ele>2463.04</ele>
        <time>2018-08-22T08:07:14Z</time>
      </trkpt>
      <trkpt lat="44.82036" lon="6.87538">
        <ele>2464.48</ele>
        <time>2018-08-22T08:07:29Z</time>
      </trkpt>
      <trkpt lat="44.82034" lon="6.87537">
        <ele>2464.48</ele>
        <time>2018-08-22T08:07:31Z</time>
      </trkpt>
      <trkpt lat="44.8203" lon="6.87534">
        <ele>2465.92</ele>
        <time>2018-08-22T08:07:45Z</time>
      </trkpt>
      <trkpt lat="44.82025" lon="6.87526">
        <ele>2467.84</ele>
        <time>2018-08-22T08:07:56Z</time>
      </trkpt>
      <trkpt lat="44.82019" lon="6.8752">
        <ele>2470.24</ele>
        <time>2018-08-22T08:08:09Z</time>
      </trkpt>
      <trkpt lat="44.82011" lon="6.87518">
        <ele>2473.13</ele>
        <time>2018-08-22T08:08:23Z</time>
      </trkpt>
      <trkpt lat="44.82005" lon="6.87511">
        <ele>2475.53</ele>
        <time>2018-08-22T08:08:36Z</time>
      </trkpt>
      <trkpt lat="44.82005" lon="6.87505">
        <ele>2478.42</ele>
        <time>2018-08-22T08:08:47Z</time>
      </trkpt>
      <trkpt lat="44.82011" lon="6.87503">
        <ele>2479.86</ele>
        <time>2018-08-22T08:09:02Z</time>
      </trkpt>
      <trkpt lat="44.82019" lon="6.87498">
        <ele>2482.74</ele>
        <time>2018-08-22T08:09:15Z</time>
      </trkpt>
      <trkpt lat="44.82027" lon="6.87492">
        <ele>2485.15</ele>
        <time>2018-08-22T08:09:30Z</time>
      </trkpt>
      <trkpt lat="44.82034" lon="6.8749">
        <ele>2487.07</ele>
        <time>2018-08-22T08:09:44Z</time>
      </trkpt>
      <trkpt lat="44.82043" lon="6.87489">
        <ele>2489.47</ele>
        <time>2018-08-22T08:09:57Z</time>
      </trkpt>
      <trkpt lat="44.82043" lon="6.87481">
        <ele>2492.36</ele>
        <time>2018-08-22T08:10:11Z</time>
      </trkpt>
      <trkpt lat="44.8204" lon="6.87472">
        <ele>2494.76</ele>
        <time>2018-08-22T08:10:21Z</time>
      </trkpt>
      <trkpt lat="44.82033" lon="6.87464">
        <ele>2496.68</ele>
        <time>2018-08-22T08:10:36Z</time>
      </trkpt>
      <trkpt lat="44.82024" lon="6.87458">
        <ele>2499.08</ele>
        <time>2018-08-22T08:10:52Z</time>
      </trkpt>
      <trkpt lat="44.82018" lon="6.87454">
        <ele>2501.49</ele>
        <time>2018-08-22T08:11:04Z</time>
      </trkpt>
      <trkpt lat="44.82011" lon="6.87443">
        <ele>2503.89</ele>
        <time>2018-08-22T08:11:18Z</time>
      </trkpt>
      <trkpt lat="44.82018" lon="6.8744">
        <ele>2506.29</ele>
        <time>2018-08-22T08:11:32Z</time>
      </trkpt>
      <trkpt lat="44.82026" lon="6.87439">
        <ele>2509.18</ele>
        <time>2018-08-22T08:11:47Z</time>
      </trkpt>
      <trkpt lat="44.82033" lon="6.87436">
        <ele>2512.06</ele>
        <time>2018-08-22T08:12:01Z</time>
      </trkpt>
      <trkpt lat="44.82037" lon="6.87429">
        <ele>2514.47</ele>
        <time>2018-08-22T08:12:16Z</time>
      </trkpt>
      <trkpt lat="44.82036" lon="6.87424">
        <ele>2514.95</ele>
        <time>2018-08-22T08:12:21Z</time>
      </trkpt>
      <trkpt lat="44.82028" lon="6.87415">
        <ele>2516.87</ele>
        <time>2018-08-22T08:12:35Z</time>
      </trkpt>
      <trkpt lat="44.82019" lon="6.87405">
        <ele>2518.31</ele>
        <time>2018-08-22T08:12:50Z</time>
      </trkpt>
      <trkpt lat="44.82012" lon="6.87396">
        <ele>2520.71</ele>
        <time>2018-08-22T08:13:05Z</time>
      </trkpt>
      <trkpt lat="44.82007" lon="6.87387">
        <ele>2524.08</ele>
        <time>2018-08-22T08:13:18Z</time>
      </trkpt>
      <trkpt lat="44.82002" lon="6.87377">
        <ele>2525.52</ele>
        <time>2018-08-22T08:13:30Z</time>
      </trkpt>
      <trkpt lat="44.81999" lon="6.87366">
        <ele>2527.92</ele>
        <time>2018-08-22T08:13:44Z</time>
      </trkpt>
      <trkpt lat="44.81996" lon="6.8736">
        <ele>2529.37</ele>
        <time>2018-08-22T08:13:54Z</time>
      </trkpt>
      <trkpt lat="44.8199" lon="6.87353">
        <ele>2531.29</ele>
        <time>2018-08-22T08:14:06Z</time>
      </trkpt>
      <trkpt lat="44.81989" lon="6.87348">
        <ele>2532.25</ele>
        <time>2018-08-22T08:14:21Z</time>
      </trkpt>
      <trkpt lat="44.81988" lon="6.87348">
        <ele>2532.73</ele>
        <time>2018-08-22T08:14:42Z</time>
      </trkpt>
      <trkpt lat="44.81987" lon="6.87351">
        <ele>2533.21</ele>
        <time>2018-08-22T08:15:17Z</time>
      </trkpt>
      <trkpt lat="44.81987" lon="6.87352">
        <ele>2595.22</ele>
        <time>2018-08-22T08:15:31Z</time>
      </trkpt>
      <trkpt lat="44.81987" lon="6.87352">
        <ele>2595.22</ele>
        <time>2018-08-22T08:15:32Z</time>
      </trkpt>
      <trkpt lat="44.81986" lon="6.87352">
        <ele>2564.93</ele>
        <time>2018-08-22T08:15:35Z</time>
      </trkpt>
      <trkpt lat="44.81986" lon="6.87352">
        <ele>2564.93</ele>
        <time>2018-08-22T08:15:36Z</time>
      </trkpt>
      <trkpt lat="44.81987" lon="6.87352">
        <ele>2563.97</ele>
        <time>2018-08-22T08:15:56Z</time>
      </trkpt>
      <trkpt lat="44.81991" lon="6.8734">
        <ele>2565.9</ele>
        <time>2018-08-22T08:16:09Z</time>
      </trkpt>
      <trkpt lat="44.81996" lon="6.87332">
        <ele>2566.86</ele>
        <time>2018-08-22T08:16:16Z</time>
      </trkpt>
      <trkpt lat="44.82008" lon="6.87328">
        <ele>2568.3</ele>
        <time>2018-08-22T08:16:31Z</time>
      </trkpt>
      <trkpt lat="44.82016" lon="6.87334">
        <ele>2570.7</ele>
        <time>2018-08-22T08:16:43Z</time>
      </trkpt>
      <trkpt lat="44.82018" lon="6.87335">
        <ele>2571.18</ele>
        <time>2018-08-22T08:16:45Z</time>
      </trkpt>
      <trkpt lat="44.82025" lon="6.87337">
        <ele>2572.14</ele>
        <time>2018-08-22T08:16:57Z</time>
      </trkpt>
      <trkpt lat="44.82034" lon="6.87338">
        <ele>2575.51</ele>
        <time>2018-08-22T08:17:11Z</time>
      </trkpt>
      <trkpt lat="44.82038" lon="6.87331">
        <ele>2576.95</ele>
        <time>2018-08-22T08:17:23Z</time>
      </trkpt>
      <trkpt lat="44.82038" lon="6.87322">
        <ele>2577.91</ele>
        <time>2018-08-22T08:17:32Z</time>
      </trkpt>
      <trkpt lat="44.82033" lon="6.87302">
        <ele>2580.32</ele>
        <time>2018-08-22T08:17:48Z</time>
      </trkpt>
      <trkpt lat="44.82032" lon="6.87286">
        <ele>2581.76</ele>
        <time>2018-08-22T08:18:02Z</time>
      </trkpt>
      <trkpt lat="44.82032" lon="6.87285">
        <ele>2581.76</ele>
        <time>2018-08-22T08:18:03Z</time>
      </trkpt>
      <trkpt lat="44.82039" lon="6.87262">
        <ele>2581.76</ele>
        <time>2018-08-22T08:18:18Z</time>
      </trkpt>
      <trkpt lat="44.82041" lon="6.87247">
        <ele>2582.72</ele>
        <time>2018-08-22T08:18:31Z</time>
      </trkpt>
      <trkpt lat="44.8204" lon="6.87235">
        <ele>2585.6</ele>
        <time>2018-08-22T08:18:46Z</time>
      </trkpt>
      <trkpt lat="44.8204" lon="6.87221">
        <ele>2587.04</ele>
        <time>2018-08-22T08:18:58Z</time>
      </trkpt>
      <trkpt lat="44.82042" lon="6.87205">
        <ele>2588.49</ele>
        <time>2018-08-22T08:19:11Z</time>
      </trkpt>
      <trkpt lat="44.82043" lon="6.87192">
        <ele>2590.89</ele>
        <time>2018-08-22T08:19:23Z</time>
      </trkpt>
      <trkpt lat="44.82054" lon="6.8719">
        <ele>2592.33</ele>
        <time>2018-08-22T08:19:40Z</time>
      </trkpt>
      <trkpt lat="44.82061" lon="6.8718">
        <ele>2594.25</ele>
        <time>2018-08-22T08:19:53Z</time>
      </trkpt>
      <trkpt lat="44.82068" lon="6.87168">
        <ele>2596.18</ele>
        <time>2018-08-22T08:20:09Z</time>
      </trkpt>
      <trkpt lat="44.82071" lon="6.87162">
        <ele>2596.66</ele>
        <time>2018-08-22T08:20:13Z</time>
      </trkpt>
      <trkpt lat="44.8208" lon="6.87146">
        <ele>2597.62</ele>
        <time>2018-08-22T08:20:28Z</time>
      </trkpt>
      <trkpt lat="44.82087" lon="6.87143">
        <ele>2598.1</ele>
        <time>2018-08-22T08:20:36Z</time>
      </trkpt>
      <trkpt lat="44.82096" lon="6.87134">
        <ele>2599.06</ele>
        <time>2018-08-22T08:20:49Z</time>
      </trkpt>
      <trkpt lat="44.82096" lon="6.87133">
        <ele>2599.06</ele>
        <time>2018-08-22T08:20:50Z</time>
      </trkpt>
      <trkpt lat="44.821" lon="6.87126">
        <ele>2599.06</ele>
        <time>2018-08-22T08:21:05Z</time>
      </trkpt>
      <trkpt lat="44.82101" lon="6.87123">
        <ele>2599.06</ele>
        <time>2018-08-22T08:21:11Z</time>
      </trkpt>
      <trkpt lat="44.82107" lon="6.87113">
        <ele>2599.54</ele>
        <time>2018-08-22T08:21:25Z</time>
      </trkpt>
      <trkpt lat="44.82105" lon="6.87109">
        <ele>2600.02</ele>
        <time>2018-08-22T08:21:36Z</time>
      </trkpt>
      <trkpt lat="44.82104" lon="6.87107">
        <ele>2600.02</ele>
        <time>2018-08-22T08:21:48Z</time>
      </trkpt>
      <trkpt lat="44.82099" lon="6.87101">
        <ele>2601.46</ele>
        <time>2018-08-22T08:21:59Z</time>
      </trkpt>
      <trkpt lat="44.82099" lon="6.87099">
        <ele>2601.95</ele>
        <time>2018-08-22T08:22:19Z</time>
      </trkpt>
      <trkpt lat="44.82101" lon="6.87101">
        <ele>2602.43</ele>
        <time>2018-08-22T08:22:36Z</time>
      </trkpt>
      <trkpt lat="44.82099" lon="6.87102">
        <ele>2602.43</ele>
        <time>2018-08-22T08:22:56Z</time>
      </trkpt>
      <trkpt lat="44.82103" lon="6.87095">
        <ele>2599.06</ele>
        <time>2018-08-22T08:23:08Z</time>
      </trkpt>
      <trkpt lat="44.82101" lon="6.87096">
        <ele>2598.1</ele>
        <time>2018-08-22T08:23:10Z</time>
      </trkpt>
      <trkpt lat="44.82102" lon="6.87096">
        <ele>2598.1</ele>
        <time>2018-08-22T08:23:38Z</time>
      </trkpt>
      <trkpt lat="44.82096" lon="6.87091">
        <ele>2597.62</ele>
        <time>2018-08-22T08:24:06Z</time>
      </trkpt>
      <trkpt lat="44.821" lon="6.87087">
        <ele>2597.62</ele>
        <time>2018-08-22T08:24:47Z</time>
      </trkpt>
      <trkpt lat="44.82098" lon="6.87095">
        <ele>2597.14</ele>
        <time>2018-08-22T08:25:26Z</time>
      </trkpt>
      <trkpt lat="44.821" lon="6.87095">
        <ele>2597.14</ele>
        <time>2018-08-22T08:25:48Z</time>
      </trkpt>
      <trkpt lat="44.82101" lon="6.87092">
        <ele>2597.14</ele>
        <time>2018-08-22T08:26:05Z</time>
      </trkpt>
      <trkpt lat="44.82103" lon="6.87098">
        <ele>2596.18</ele>
        <time>2018-08-22T08:26:39Z</time>
      </trkpt>
      <trkpt lat="44.82097" lon="6.87104">
        <ele>2596.18</ele>
        <time>2018-08-22T08:26:57Z</time>
      </trkpt>
      <trkpt lat="44.821" lon="6.87103">
        <ele>2596.18</ele>
        <time>2018-08-22T08:27:07Z</time>
      </trkpt>
      <trkpt lat="44.82103" lon="6.87098">
        <ele>2597.14</ele>
        <time>2018-08-22T08:27:25Z</time>
      </trkpt>
      <trkpt lat="44.82102" lon="6.87096">
        <ele>2597.14</ele>
        <time>2018-08-22T08:27:42Z</time>
      </trkpt>
      <trkpt lat="44.82101" lon="6.87095">
        <ele>2596.66</ele>
        <time>2018-08-22T08:28:05Z</time>
      </trkpt>
      <trkpt lat="44.82104" lon="6.87098">
        <ele>2596.66</ele>
        <time>2018-08-22T08:28:26Z</time>
      </trkpt>
      <trkpt lat="44.82105" lon="6.871">
        <ele>2596.66</ele>
        <time>2018-08-22T08:28:39Z</time>
      </trkpt>
      <trkpt lat="44.821" lon="6.87094">
        <ele>2596.66</ele>
        <time>2018-08-22T08:28:48Z</time>
      </trkpt>
      <trkpt lat="44.82094" lon="6.87083">
        <ele>2596.18</ele>
        <time>2018-08-22T08:28:58Z</time>
      </trkpt>
      <trkpt lat="44.82094" lon="6.87074">
        <ele>2596.18</ele>
        <time>2018-08-22T08:29:08Z</time>
      </trkpt>
      <trkpt lat="44.82093" lon="6.87069">
        <ele>2596.18</ele>
        <time>2018-08-22T08:29:13Z</time>
      </trkpt>
      <trkpt lat="44.82089" lon="6.87046">
        <ele>2596.18</ele>
        <time>2018-08-22T08:29:29Z</time>
      </trkpt>
      <trkpt lat="44.82087" lon="6.87032">
        <ele>2596.18</ele>
        <time>2018-08-22T08:29:38Z</time>
      </trkpt>
      <trkpt lat="44.82086" lon="6.87011">
        <ele>2596.18</ele>
        <time>2018-08-22T08:29:52Z</time>
      </trkpt>
      <trkpt lat="44.82085" lon="6.87006">
        <ele>2596.18</ele>
        <time>2018-08-22T08:29:55Z</time>
      </trkpt>
      <trkpt lat="44.82085" lon="6.87004">
        <ele>2596.18</ele>
        <time>2018-08-22T08:29:57Z</time>
      </trkpt>
      <trkpt lat="44.82081" lon="6.86979">
        <ele>2596.18</ele>
        <time>2018-08-22T08:30:13Z</time>
      </trkpt>
      <trkpt lat="44.82081" lon="6.86978">
        <ele>2596.18</ele>
        <time>2018-08-22T08:30:14Z</time>
      </trkpt>
      <trkpt lat="44.82077" lon="6.86963">
        <ele>2596.66</ele>
        <time>2018-08-22T08:30:29Z</time>
      </trkpt>
      <trkpt lat="44.82076" lon="6.86959">
        <ele>2597.62</ele>
        <time>2018-08-22T08:30:32Z</time>
      </trkpt>
      <trkpt lat="44.82067" lon="6.86946">
        <ele>2598.58</ele>
        <time>2018-08-22T08:30:47Z</time>
      </trkpt>
      <trkpt lat="44.82058" lon="6.86938">
        <ele>2600.5</ele>
        <time>2018-08-22T08:31:01Z</time>
      </trkpt>
      <trkpt lat="44.82052" lon="6.86935">
        <ele>2602.43</ele>
        <time>2018-08-22T08:31:15Z</time>
      </trkpt>
      <trkpt lat="44.82049" lon="6.86937">
        <ele>2602.43</ele>
        <time>2018-08-22T08:31:32Z</time>
      </trkpt>
      <trkpt lat="44.82051" lon="6.86935">
        <ele>2602.43</ele>
        <time>2018-08-22T08:31:47Z</time>
      </trkpt>
      <trkpt lat="44.8205" lon="6.86931">
        <ele>2600.98</ele>
        <time>2018-08-22T08:32:04Z</time>
      </trkpt>
      <trkpt lat="44.82051" lon="6.86935">
        <ele>2601.95</ele>
        <time>2018-08-22T08:32:21Z</time>
      </trkpt>
      <trkpt lat="44.8205" lon="6.86937">
        <ele>2601.95</ele>
        <time>2018-08-22T08:32:36Z</time>
      </trkpt>
      <trkpt lat="44.82047" lon="6.86934">
        <ele>2602.43</ele>
        <time>2018-08-22T08:32:52Z</time>
      </trkpt>
      <trkpt lat="44.82044" lon="6.86922">
        <ele>2604.35</ele>
        <time>2018-08-22T08:33:03Z</time>
      </trkpt>
      <trkpt lat="44.82037" lon="6.86918">
        <ele>2606.75</ele>
        <time>2018-08-22T08:33:15Z</time>
      </trkpt>
      <trkpt lat="44.8203" lon="6.86921">
        <ele>2609.16</ele>
        <time>2018-08-22T08:33:28Z</time>
      </trkpt>
      <trkpt lat="44.82024" lon="6.86918">
        <ele>2612.04</ele>
        <time>2018-08-22T08:33:41Z</time>
      </trkpt>
      <trkpt lat="44.82018" lon="6.86911">
        <ele>2613.96</ele>
        <time>2018-08-22T08:33:54Z</time>
      </trkpt>
      <trkpt lat="44.8201" lon="6.86909">
        <ele>2615.88</ele>
        <time>2018-08-22T08:34:09Z</time>
      </trkpt>
      <trkpt lat="44.82003" lon="6.86904">
        <ele>2617.81</ele>
        <time>2018-08-22T08:34:21Z</time>
      </trkpt>
      <trkpt lat="44.81997" lon="6.86905">
        <ele>2620.21</ele>
        <time>2018-08-22T08:34:33Z</time>
      </trkpt>
      <trkpt lat="44.8199" lon="6.86902">
        <ele>2621.17</ele>
        <time>2018-08-22T08:34:47Z</time>
      </trkpt>
      <trkpt lat="44.81984" lon="6.86901">
        <ele>2623.58</ele>
        <time>2018-08-22T08:35:01Z</time>
      </trkpt>
      <trkpt lat="44.8198" lon="6.86899">
        <ele>2625.98</ele>
        <time>2018-08-22T08:35:10Z</time>
      </trkpt>
      <trkpt lat="44.81973" lon="6.86896">
        <ele>2627.9</ele>
        <time>2018-08-22T08:35:23Z</time>
      </trkpt>
      <trkpt lat="44.81967" lon="6.86897">
        <ele>2629.34</ele>
        <time>2018-08-22T08:35:36Z</time>
      </trkpt>
      <trkpt lat="44.81958" lon="6.86892">
        <ele>2631.75</ele>
        <time>2018-08-22T08:35:50Z</time>
      </trkpt>
      <trkpt lat="44.81951" lon="6.86885">
        <ele>2634.63</ele>
        <time>2018-08-22T08:36:04Z</time>
      </trkpt>
      <trkpt lat="44.81947" lon="6.86873">
        <ele>2636.55</ele>
        <time>2018-08-22T08:36:18Z</time>
      </trkpt>
      <trkpt lat="44.81943" lon="6.86864">
        <ele>2638.48</ele>
        <time>2018-08-22T08:36:32Z</time>
      </trkpt>
      <trkpt lat="44.81939" lon="6.8686">
        <ele>2640.4</ele>
        <time>2018-08-22T08:36:45Z</time>
      </trkpt>
      <trkpt lat="44.81933" lon="6.86854">
        <ele>2643.28</ele>
        <time>2018-08-22T08:37:00Z</time>
      </trkpt>
      <trkpt lat="44.81929" lon="6.86856">
        <ele>2645.21</ele>
        <time>2018-08-22T08:37:12Z</time>
      </trkpt>
      <trkpt lat="44.81926" lon="6.8685">
        <ele>2647.13</ele>
        <time>2018-08-22T08:37:23Z</time>
      </trkpt>
      <trkpt lat="44.81924" lon="6.8684">
        <ele>2649.53</ele>
        <time>2018-08-22T08:37:37Z</time>
      </trkpt>
      <trkpt lat="44.81922" lon="6.86831">
        <ele>2651.45</ele>
        <time>2018-08-22T08:37:49Z</time>
      </trkpt>
      <trkpt lat="44.81921" lon="6.86817">
        <ele>2653.38</ele>
        <time>2018-08-22T08:38:04Z</time>
      </trkpt>
      <trkpt lat="44.8192" lon="6.86803">
        <ele>2656.26</ele>
        <time>2018-08-22T08:38:21Z</time>
      </trkpt>
      <trkpt lat="44.81919" lon="6.86791">
        <ele>2658.18</ele>
        <time>2018-08-22T08:38:36Z</time>
      </trkpt>
      <trkpt lat="44.81921" lon="6.86782">
        <ele>2660.59</ele>
        <time>2018-08-22T08:38:49Z</time>
      </trkpt>
      <trkpt lat="44.81926" lon="6.86773">
        <ele>2663.47</ele>
        <time>2018-08-22T08:39:05Z</time>
      </trkpt>
      <trkpt lat="44.81929" lon="6.86766">
        <ele>2665.39</ele>
        <time>2018-08-22T08:39:17Z</time>
      </trkpt>
      <trkpt lat="44.81932" lon="6.86759">
        <ele>2667.8</ele>
        <time>2018-08-22T08:39:33Z</time>
      </trkpt>
      <trkpt lat="44.81936" lon="6.86751">
        <ele>2670.68</ele>
        <time>2018-08-22T08:39:47Z</time>
      </trkpt>
      <trkpt lat="44.8194" lon="6.86745">
        <ele>2673.08</ele>
        <time>2018-08-22T08:40:00Z</time>
      </trkpt>
      <trkpt lat="44.8194" lon="6.86732">
        <ele>2675.97</ele>
        <time>2018-08-22T08:40:14Z</time>
      </trkpt>
      <trkpt lat="44.81939" lon="6.86726">
        <ele>2677.41</ele>
        <time>2018-08-22T08:40:22Z</time>
      </trkpt>
      <trkpt lat="44.81938" lon="6.86706">
        <ele>2678.37</ele>
        <time>2018-08-22T08:40:36Z</time>
      </trkpt>
      <trkpt lat="44.81939" lon="6.86694">
        <ele>2678.85</ele>
        <time>2018-08-22T08:40:45Z</time>
      </trkpt>
      <trkpt lat="44.81938" lon="6.86678">
        <ele>2680.29</ele>
        <time>2018-08-22T08:40:58Z</time>
      </trkpt>
      <trkpt lat="44.81938" lon="6.86672">
        <ele>2681.25</ele>
        <time>2018-08-22T08:41:03Z</time>
      </trkpt>
      <trkpt lat="44.81935" lon="6.86655">
        <ele>2682.22</ele>
        <time>2018-08-22T08:41:17Z</time>
      </trkpt>
      <trkpt lat="44.81935" lon="6.8665">
        <ele>2682.7</ele>
        <time>2018-08-22T08:41:21Z</time>
      </trkpt>
      <trkpt lat="44.81935" lon="6.86643">
        <ele>2683.66</ele>
        <time>2018-08-22T08:41:26Z</time>
      </trkpt>
      <trkpt lat="44.81935" lon="6.86627">
        <ele>2685.1</ele>
        <time>2018-08-22T08:41:39Z</time>
      </trkpt>
      <trkpt lat="44.81939" lon="6.86609">
        <ele>2686.54</ele>
        <time>2018-08-22T08:41:54Z</time>
      </trkpt>
      <trkpt lat="44.81945" lon="6.86595">
        <ele>2686.54</ele>
        <time>2018-08-22T08:42:06Z</time>
      </trkpt>
      <trkpt lat="44.81951" lon="6.86588">
        <ele>2686.54</ele>
        <time>2018-08-22T08:42:15Z</time>
      </trkpt>
      <trkpt lat="44.8196" lon="6.86571">
        <ele>2686.54</ele>
        <time>2018-08-22T08:42:30Z</time>
      </trkpt>
      <trkpt lat="44.8198" lon="6.86562">
        <ele>2685.1</ele>
        <time>2018-08-22T08:42:49Z</time>
      </trkpt>
      <trkpt lat="44.81996" lon="6.86556">
        <ele>2684.62</ele>
        <time>2018-08-22T08:43:04Z</time>
      </trkpt>
      <trkpt lat="44.82005" lon="6.86547">
        <ele>2684.62</ele>
        <time>2018-08-22T08:43:18Z</time>
      </trkpt>
      <trkpt lat="44.82005" lon="6.86548">
        <ele>2685.58</ele>
        <time>2018-08-22T08:43:34Z</time>
      </trkpt>
      <trkpt lat="44.82005" lon="6.86547">
        <ele>2685.58</ele>
        <time>2018-08-22T08:43:55Z</time>
      </trkpt>
      <trkpt lat="44.82005" lon="6.86547">
        <ele>2685.1</ele>
        <time>2018-08-22T08:44:15Z</time>
      </trkpt>
      <trkpt lat="44.82005" lon="6.86548">
        <ele>2685.1</ele>
        <time>2018-08-22T08:44:32Z</time>
      </trkpt>
      <trkpt lat="44.82005" lon="6.86548">
        <ele>2685.1</ele>
        <time>2018-08-22T08:44:49Z</time>
      </trkpt>
      <trkpt lat="44.82007" lon="6.86549">
        <ele>2685.1</ele>
        <time>2018-08-22T08:45:12Z</time>
      </trkpt>
      <trkpt lat="44.82005" lon="6.86549">
        <ele>2685.1</ele>
        <time>2018-08-22T08:45:19Z</time>
      </trkpt>
      <trkpt lat="44.82004" lon="6.86549">
        <ele>2683.66</ele>
        <time>2018-08-22T08:45:22Z</time>
      </trkpt>
      <trkpt lat="44.82004" lon="6.86545">
        <ele>2684.14</ele>
        <time>2018-08-22T08:45:39Z</time>
      </trkpt>
      <trkpt lat="44.82015" lon="6.86534">
        <ele>2684.14</ele>
        <time>2018-08-22T08:45:50Z</time>
      </trkpt>
      <trkpt lat="44.82025" lon="6.86521">
        <ele>2685.58</ele>
        <time>2018-08-22T08:46:02Z</time>
      </trkpt>
      <trkpt lat="44.82031" lon="6.86505">
        <ele>2687.5</ele>
        <time>2018-08-22T08:46:15Z</time>
      </trkpt>
      <trkpt lat="44.82033" lon="6.86496">
        <ele>2688.46</ele>
        <time>2018-08-22T08:46:22Z</time>
      </trkpt>
      <trkpt lat="44.82037" lon="6.86488">
        <ele>2689.91</ele>
        <time>2018-08-22T08:46:36Z</time>
      </trkpt>
      <trkpt lat="44.82041" lon="6.86479">
        <ele>2692.31</ele>
        <time>2018-08-22T08:46:49Z</time>
      </trkpt>
      <trkpt lat="44.82045" lon="6.86464">
        <ele>2694.71</ele>
        <time>2018-08-22T08:47:02Z</time>
      </trkpt>
      <trkpt lat="44.82045" lon="6.86462">
        <ele>2694.71</ele>
        <time>2018-08-22T08:47:04Z</time>
      </trkpt>
      <trkpt lat="44.82048" lon="6.86448">
        <ele>2697.6</ele>
        <time>2018-08-22T08:47:19Z</time>
      </trkpt>
      <trkpt lat="44.82053" lon="6.86436">
        <ele>2700</ele>
        <time>2018-08-22T08:47:31Z</time>
      </trkpt>
      <trkpt lat="44.8206" lon="6.86424">
        <ele>2700.96</ele>
        <time>2018-08-22T08:47:43Z</time>
      </trkpt>
      <trkpt lat="44.8207" lon="6.86406">
        <ele>2700.96</ele>
        <time>2018-08-22T08:47:55Z</time>
      </trkpt>
      <trkpt lat="44.82082" lon="6.86389">
        <ele>2701.44</ele>
        <time>2018-08-22T08:48:09Z</time>
      </trkpt>
      <trkpt lat="44.82083" lon="6.86387">
        <ele>2702.88</ele>
        <time>2018-08-22T08:48:13Z</time>
      </trkpt>
      <trkpt lat="44.82084" lon="6.86372">
        <ele>2705.77</ele>
        <time>2018-08-22T08:48:26Z</time>
      </trkpt>
      <trkpt lat="44.82085" lon="6.86358">
        <ele>2708.65</ele>
        <time>2018-08-22T08:48:39Z</time>
      </trkpt>
      <trkpt lat="44.8209" lon="6.86343">
        <ele>2710.57</ele>
        <time>2018-08-22T08:48:55Z</time>
      </trkpt>
      <trkpt lat="44.8209" lon="6.86342">
        <ele>2710.57</ele>
        <time>2018-08-22T08:48:56Z</time>
      </trkpt>
      <trkpt lat="44.82092" lon="6.86316">
        <ele>2710.57</ele>
        <time>2018-08-22T08:49:09Z</time>
      </trkpt>
      <trkpt lat="44.82098" lon="6.86303">
        <ele>2712.98</ele>
        <time>2018-08-22T08:49:21Z</time>
      </trkpt>
      <trkpt lat="44.82105" lon="6.86292">
        <ele>2715.38</ele>
        <time>2018-08-22T08:49:34Z</time>
      </trkpt>
      <trkpt lat="44.82113" lon="6.86279">
        <ele>2718.27</ele>
        <time>2018-08-22T08:49:48Z</time>
      </trkpt>
      <trkpt lat="44.82121" lon="6.8627">
        <ele>2721.63</ele>
        <time>2018-08-22T08:50:01Z</time>
      </trkpt>
      <trkpt lat="44.82126" lon="6.86263">
        <ele>2724.99</ele>
        <time>2018-08-22T08:50:14Z</time>
      </trkpt>
      <trkpt lat="44.82134" lon="6.86256">
        <ele>2727.88</ele>
        <time>2018-08-22T08:50:28Z</time>
      </trkpt>
      <trkpt lat="44.8214" lon="6.86252">
        <ele>2729.32</ele>
        <time>2018-08-22T08:50:35Z</time>
      </trkpt>
      <trkpt lat="44.82145" lon="6.86244">
        <ele>2729.8</ele>
        <time>2018-08-22T08:50:44Z</time>
      </trkpt>
      <trkpt lat="44.8215" lon="6.86238">
        <ele>2730.28</ele>
        <time>2018-08-22T08:50:52Z</time>
      </trkpt>
      <trkpt lat="44.82155" lon="6.86224">
        <ele>2733.17</ele>
        <time>2018-08-22T08:51:07Z</time>
      </trkpt>
      <trkpt lat="44.82158" lon="6.86212">
        <ele>2736.53</ele>
        <time>2018-08-22T08:51:19Z</time>
      </trkpt>
      <trkpt lat="44.8216" lon="6.86205">
        <ele>2739.41</ele>
        <time>2018-08-22T08:51:32Z</time>
      </trkpt>
      <trkpt lat="44.8216" lon="6.86207">
        <ele>2739.41</ele>
        <time>2018-08-22T08:51:48Z</time>
      </trkpt>
      <trkpt lat="44.82161" lon="6.86203">
        <ele>2740.38</ele>
        <time>2018-08-22T08:52:05Z</time>
      </trkpt>
      <trkpt lat="44.8216" lon="6.86204">
        <ele>2738.93</ele>
        <time>2018-08-22T08:52:09Z</time>
      </trkpt>
      <trkpt lat="44.8216" lon="6.86202">
        <ele>2738.45</ele>
        <time>2018-08-22T08:52:23Z</time>
      </trkpt>
      <trkpt lat="44.82161" lon="6.86205">
        <ele>2737.97</ele>
        <time>2018-08-22T08:52:39Z</time>
      </trkpt>
      <trkpt lat="44.82161" lon="6.86205">
        <ele>2737.49</ele>
        <time>2018-08-22T08:52:56Z</time>
      </trkpt>
      <trkpt lat="44.82164" lon="6.86208">
        <ele>2737.49</ele>
        <time>2018-08-22T08:53:11Z</time>
      </trkpt>
      <trkpt lat="44.82162" lon="6.86208">
        <ele>2737.49</ele>
        <time>2018-08-22T08:53:30Z</time>
      </trkpt>
      <trkpt lat="44.82162" lon="6.86205">
        <ele>2738.93</ele>
        <time>2018-08-22T08:53:40Z</time>
      </trkpt>
      <trkpt lat="44.82163" lon="6.86203">
        <ele>2738.93</ele>
        <time>2018-08-22T08:54:04Z</time>
      </trkpt>
      <trkpt lat="44.82165" lon="6.862">
        <ele>2737.49</ele>
        <time>2018-08-22T08:54:14Z</time>
      </trkpt>
      <trkpt lat="44.82172" lon="6.86183">
        <ele>2736.53</ele>
        <time>2018-08-22T08:54:25Z</time>
      </trkpt>
      <trkpt lat="44.82173" lon="6.8618">
        <ele>2736.05</ele>
        <time>2018-08-22T08:54:34Z</time>
      </trkpt>
      <trkpt lat="44.82171" lon="6.86184">
        <ele>2736.05</ele>
        <time>2018-08-22T08:54:41Z</time>
      </trkpt>
      <trkpt lat="44.8217" lon="6.86188">
        <ele>2736.05</ele>
        <time>2018-08-22T08:54:45Z</time>
      </trkpt>
      <trkpt lat="44.82163" lon="6.86195">
        <ele>2737.97</ele>
        <time>2018-08-22T08:54:57Z</time>
      </trkpt>
      <trkpt lat="44.82161" lon="6.86203">
        <ele>2738.93</ele>
        <time>2018-08-22T08:55:08Z</time>
      </trkpt>
      <trkpt lat="44.82158" lon="6.86206">
        <ele>2738.93</ele>
        <time>2018-08-22T08:55:19Z</time>
      </trkpt>
      <trkpt lat="44.82158" lon="6.86208">
        <ele>2738.93</ele>
        <time>2018-08-22T08:55:40Z</time>
      </trkpt>
      <trkpt lat="44.82156" lon="6.86209">
        <ele>2738.93</ele>
        <time>2018-08-22T08:55:43Z</time>
      </trkpt>
      <trkpt lat="44.82155" lon="6.86218">
        <ele>2735.57</ele>
        <time>2018-08-22T08:55:52Z</time>
      </trkpt>
      <trkpt lat="44.82154" lon="6.86221">
        <ele>2735.09</ele>
        <time>2018-08-22T08:55:56Z</time>
      </trkpt>
      <trkpt lat="44.82153" lon="6.86224">
        <ele>2734.13</ele>
        <time>2018-08-22T08:55:58Z</time>
      </trkpt>
      <trkpt lat="44.82152" lon="6.86227">
        <ele>2733.65</ele>
        <time>2018-08-22T08:55:59Z</time>
      </trkpt>
      <trkpt lat="44.82153" lon="6.86229">
        <ele>2733.65</ele>
        <time>2018-08-22T08:56:02Z</time>
      </trkpt>
      <trkpt lat="44.82152" lon="6.8623">
        <ele>2733.17</ele>
        <time>2018-08-22T08:56:03Z</time>
      </trkpt>
      <trkpt lat="44.82151" lon="6.86231">
        <ele>2732.68</ele>
        <time>2018-08-22T08:56:04Z</time>
      </trkpt>
      <trkpt lat="44.8215" lon="6.86235">
        <ele>2731.72</ele>
        <time>2018-08-22T08:56:08Z</time>
      </trkpt>
      <trkpt lat="44.8215" lon="6.86237">
        <ele>2731.24</ele>
        <time>2018-08-22T08:56:09Z</time>
      </trkpt>
      <trkpt lat="44.82147" lon="6.86242">
        <ele>2731.24</ele>
        <time>2018-08-22T08:56:13Z</time>
      </trkpt>
      <trkpt lat="44.82147" lon="6.86244">
        <ele>2731.24</ele>
        <time>2018-08-22T08:56:14Z</time>
      </trkpt>
      <trkpt lat="44.82145" lon="6.86245">
        <ele>2730.76</ele>
        <time>2018-08-22T08:56:18Z</time>
      </trkpt>
      <trkpt lat="44.82144" lon="6.86246">
        <ele>2729.8</ele>
        <time>2018-08-22T08:56:19Z</time>
      </trkpt>
      <trkpt lat="44.82142" lon="6.86248">
        <ele>2730.28</ele>
        <time>2018-08-22T08:56:31Z</time>
      </trkpt>
      <trkpt lat="44.82136" lon="6.86255">
        <ele>2729.8</ele>
        <time>2018-08-22T08:56:42Z</time>
      </trkpt>
      <trkpt lat="44.8213" lon="6.8626">
        <ele>2727.88</ele>
        <time>2018-08-22T08:56:54Z</time>
      </trkpt>
      <trkpt lat="44.82123" lon="6.86266">
        <ele>2724.99</ele>
        <time>2018-08-22T08:57:07Z</time>
      </trkpt>
      <trkpt lat="44.82123" lon="6.86266">
        <ele>2724.99</ele>
        <time>2018-08-22T08:57:18Z</time>
      </trkpt>
      <trkpt lat="44.82124" lon="6.86264">
        <ele>2724.51</ele>
        <time>2018-08-22T08:57:31Z</time>
      </trkpt>
      <trkpt lat="44.82123" lon="6.86269">
        <ele>2724.03</ele>
        <time>2018-08-22T08:57:41Z</time>
      </trkpt>
      <trkpt lat="44.82119" lon="6.86273">
        <ele>2721.15</ele>
        <time>2018-08-22T08:57:53Z</time>
      </trkpt>
      <trkpt lat="44.82111" lon="6.86283">
        <ele>2719.23</ele>
        <time>2018-08-22T08:58:05Z</time>
      </trkpt>
      <trkpt lat="44.82103" lon="6.86299">
        <ele>2715.86</ele>
        <time>2018-08-22T08:58:19Z</time>
      </trkpt>
      <trkpt lat="44.821" lon="6.86303">
        <ele>2714.9</ele>
        <time>2018-08-22T08:58:24Z</time>
      </trkpt>
      <trkpt lat="44.82093" lon="6.86317">
        <ele>2711.54</ele>
        <time>2018-08-22T08:58:35Z</time>
      </trkpt>
      <trkpt lat="44.82092" lon="6.86324">
        <ele>2711.06</ele>
        <time>2018-08-22T08:58:41Z</time>
      </trkpt>
      <trkpt lat="44.82092" lon="6.86326">
        <ele>2711.06</ele>
        <time>2018-08-22T08:58:42Z</time>
      </trkpt>
      <trkpt lat="44.82092" lon="6.86329">
        <ele>2711.06</ele>
        <time>2018-08-22T08:58:43Z</time>
      </trkpt>
      <trkpt lat="44.82091" lon="6.86349">
        <ele>2711.54</ele>
        <time>2018-08-22T08:58:55Z</time>
      </trkpt>
      <trkpt lat="44.82087" lon="6.8636">
        <ele>2711.54</ele>
        <time>2018-08-22T08:59:03Z</time>
      </trkpt>
      <trkpt lat="44.82086" lon="6.86361">
        <ele>2710.57</ele>
        <time>2018-08-22T08:59:04Z</time>
      </trkpt>
      <trkpt lat="44.82085" lon="6.8637">
        <ele>2708.17</ele>
        <time>2018-08-22T08:59:14Z</time>
      </trkpt>
      <trkpt lat="44.82088" lon="6.86382">
        <ele>2705.29</ele>
        <time>2018-08-22T08:59:24Z</time>
      </trkpt>
      <trkpt lat="44.82088" lon="6.86384">
        <ele>2704.81</ele>
        <time>2018-08-22T08:59:25Z</time>
      </trkpt>
      <trkpt lat="44.82087" lon="6.86389">
        <ele>2703.85</ele>
        <time>2018-08-22T08:59:30Z</time>
      </trkpt>
      <trkpt lat="44.82087" lon="6.8639">
        <ele>2703.36</ele>
        <time>2018-08-22T08:59:31Z</time>
      </trkpt>
      <trkpt lat="44.82086" lon="6.86392">
        <ele>2702.88</ele>
        <time>2018-08-22T08:59:32Z</time>
      </trkpt>
      <trkpt lat="44.82085" lon="6.86393">
        <ele>2702.88</ele>
        <time>2018-08-22T08:59:33Z</time>
      </trkpt>
      <trkpt lat="44.82084" lon="6.86394">
        <ele>2701.92</ele>
        <time>2018-08-22T08:59:34Z</time>
      </trkpt>
      <trkpt lat="44.82083" lon="6.86396">
        <ele>2701.44</ele>
        <time>2018-08-22T08:59:35Z</time>
      </trkpt>
      <trkpt lat="44.82068" lon="6.86411">
        <ele>2701.44</ele>
        <time>2018-08-22T08:59:47Z</time>
      </trkpt>
      <trkpt lat="44.82057" lon="6.86428">
        <ele>2701.44</ele>
        <time>2018-08-22T09:00:00Z</time>
      </trkpt>
      <trkpt lat="44.82048" lon="6.86444">
        <ele>2700</ele>
        <time>2018-08-22T09:00:11Z</time>
      </trkpt>
      <trkpt lat="44.82046" lon="6.8646">
        <ele>2696.15</ele>
        <time>2018-08-22T09:00:24Z</time>
      </trkpt>
      <trkpt lat="44.82042" lon="6.86473">
        <ele>2693.27</ele>
        <time>2018-08-22T09:00:35Z</time>
      </trkpt>
      <trkpt lat="44.82038" lon="6.86481">
        <ele>2692.31</ele>
        <time>2018-08-22T09:00:41Z</time>
      </trkpt>
      <trkpt lat="44.82037" lon="6.86482">
        <ele>2691.83</ele>
        <time>2018-08-22T09:00:42Z</time>
      </trkpt>
      <trkpt lat="44.82036" lon="6.86484">
        <ele>2691.83</ele>
        <time>2018-08-22T09:00:43Z</time>
      </trkpt>
      <trkpt lat="44.82034" lon="6.86491">
        <ele>2690.39</ele>
        <time>2018-08-22T09:00:50Z</time>
      </trkpt>
      <trkpt lat="44.82034" lon="6.86492">
        <ele>2689.91</ele>
        <time>2018-08-22T09:00:51Z</time>
      </trkpt>
      <trkpt lat="44.8203" lon="6.86503">
        <ele>2688.46</ele>
        <time>2018-08-22T09:00:59Z</time>
      </trkpt>
      <trkpt lat="44.82029" lon="6.86505">
        <ele>2687.98</ele>
        <time>2018-08-22T09:01:00Z</time>
      </trkpt>
      <trkpt lat="44.82029" lon="6.86507">
        <ele>2687.98</ele>
        <time>2018-08-22T09:01:01Z</time>
      </trkpt>
      <trkpt lat="44.82028" lon="6.86509">
        <ele>2687.98</ele>
        <time>2018-08-22T09:01:02Z</time>
      </trkpt>
      <trkpt lat="44.82024" lon="6.86519">
        <ele>2686.06</ele>
        <time>2018-08-22T09:01:11Z</time>
      </trkpt>
      <trkpt lat="44.82023" lon="6.86521">
        <ele>2686.06</ele>
        <time>2018-08-22T09:01:12Z</time>
      </trkpt>
      <trkpt lat="44.82022" lon="6.86523">
        <ele>2685.58</ele>
        <time>2018-08-22T09:01:13Z</time>
      </trkpt>
      <trkpt lat="44.82021" lon="6.86524">
        <ele>2685.58</ele>
        <time>2018-08-22T09:01:14Z</time>
      </trkpt>
      <trkpt lat="44.8202" lon="6.86526">
        <ele>2685.58</ele>
        <time>2018-08-22T09:01:15Z</time>
      </trkpt>
      <trkpt lat="44.82017" lon="6.86531">
        <ele>2685.1</ele>
        <time>2018-08-22T09:01:19Z</time>
      </trkpt>
      <trkpt lat="44.82016" lon="6.86533">
        <ele>2685.1</ele>
        <time>2018-08-22T09:01:20Z</time>
      </trkpt>
      <trkpt lat="44.82015" lon="6.86535">
        <ele>2685.1</ele>
        <time>2018-08-22T09:01:21Z</time>
      </trkpt>
      <trkpt lat="44.82014" lon="6.86536">
        <ele>2685.1</ele>
        <time>2018-08-22T09:01:22Z</time>
      </trkpt>
      <trkpt lat="44.82009" lon="6.86542">
        <ele>2684.62</ele>
        <time>2018-08-22T09:01:29Z</time>
      </trkpt>
      <trkpt lat="44.82009" lon="6.86543">
        <ele>2684.14</ele>
        <time>2018-08-22T09:01:30Z</time>
      </trkpt>
      <trkpt lat="44.82006" lon="6.86549">
        <ele>2683.66</ele>
        <time>2018-08-22T09:01:41Z</time>
      </trkpt>
      <trkpt lat="44.82002" lon="6.86558">
        <ele>2683.66</ele>
        <time>2018-08-22T09:01:50Z</time>
      </trkpt>
      <trkpt lat="44.82" lon="6.8656">
        <ele>2683.66</ele>
        <time>2018-08-22T09:01:52Z</time>
      </trkpt>
      <trkpt lat="44.81999" lon="6.86564">
        <ele>2683.66</ele>
        <time>2018-08-22T09:02:03Z</time>
      </trkpt>
      <trkpt lat="44.82" lon="6.86564">
        <ele>2683.18</ele>
        <time>2018-08-22T09:02:15Z</time>
      </trkpt>
      <trkpt lat="44.82" lon="6.86568">
        <ele>2683.18</ele>
        <time>2018-08-22T09:02:36Z</time>
      </trkpt>
      <trkpt lat="44.81997" lon="6.86566">
        <ele>2683.18</ele>
        <time>2018-08-22T09:03:15Z</time>
      </trkpt>
      <trkpt lat="44.81996" lon="6.86565">
        <ele>2683.18</ele>
        <time>2018-08-22T09:03:44Z</time>
      </trkpt>
      <trkpt lat="44.81998" lon="6.86566">
        <ele>2682.7</ele>
        <time>2018-08-22T09:04:11Z</time>
      </trkpt>
      <trkpt lat="44.81999" lon="6.86565">
        <ele>2682.7</ele>
        <time>2018-08-22T09:04:47Z</time>
      </trkpt>
      <trkpt lat="44.82001" lon="6.86567">
        <ele>2683.66</ele>
        <time>2018-08-22T09:05:16Z</time>
      </trkpt>
      <trkpt lat="44.81999" lon="6.86566">
        <ele>2683.66</ele>
        <time>2018-08-22T09:05:54Z</time>
      </trkpt>
      <trkpt lat="44.81998" lon="6.86563">
        <ele>2683.66</ele>
        <time>2018-08-22T09:06:33Z</time>
      </trkpt>
      <trkpt lat="44.81997" lon="6.86561">
        <ele>2683.66</ele>
        <time>2018-08-22T09:07:08Z</time>
      </trkpt>
      <trkpt lat="44.81993" lon="6.86561">
        <ele>2683.66</ele>
        <time>2018-08-22T09:07:35Z</time>
      </trkpt>
      <trkpt lat="44.81995" lon="6.86557">
        <ele>2684.14</ele>
        <time>2018-08-22T09:08:03Z</time>
      </trkpt>
      <trkpt lat="44.81995" lon="6.86563">
        <ele>2684.14</ele>
        <time>2018-08-22T09:08:41Z</time>
      </trkpt>
      <trkpt lat="44.81995" lon="6.8656">
        <ele>2684.14</ele>
        <time>2018-08-22T09:09:15Z</time>
      </trkpt>
      <trkpt lat="44.81994" lon="6.86563">
        <ele>2683.66</ele>
        <time>2018-08-22T09:09:46Z</time>
      </trkpt>
      <trkpt lat="44.81996" lon="6.86561">
        <ele>2683.66</ele>
        <time>2018-08-22T09:10:21Z</time>
      </trkpt>
      <trkpt lat="44.81993" lon="6.86564">
        <ele>2684.14</ele>
        <time>2018-08-22T09:11:02Z</time>
      </trkpt>
      <trkpt lat="44.81992" lon="6.86565">
        <ele>2684.14</ele>
        <time>2018-08-22T09:11:44Z</time>
      </trkpt>
      <trkpt lat="44.81995" lon="6.86568">
        <ele>2684.14</ele>
        <time>2018-08-22T09:12:25Z</time>
      </trkpt>
      <trkpt lat="44.81994" lon="6.86572">
        <ele>2683.66</ele>
        <time>2018-08-22T09:12:48Z</time>
      </trkpt>
      <trkpt lat="44.81996" lon="6.86573">
        <ele>2683.66</ele>
        <time>2018-08-22T09:13:21Z</time>
      </trkpt>
      <trkpt lat="44.81991" lon="6.86578">
        <ele>2683.18</ele>
        <time>2018-08-22T09:13:51Z</time>
      </trkpt>
      <trkpt lat="44.81991" lon="6.86577">
        <ele>2682.22</ele>
        <time>2018-08-22T09:14:22Z</time>
      </trkpt>
      <trkpt lat="44.81992" lon="6.86578">
        <ele>2683.66</ele>
        <time>2018-08-22T09:14:34Z</time>
      </trkpt>
      <trkpt lat="44.81994" lon="6.86574">
        <ele>2683.18</ele>
        <time>2018-08-22T09:14:57Z</time>
      </trkpt>
      <trkpt lat="44.81994" lon="6.86576">
        <ele>2682.22</ele>
        <time>2018-08-22T09:15:25Z</time>
      </trkpt>
      <trkpt lat="44.81996" lon="6.86574">
        <ele>2681.73</ele>
        <time>2018-08-22T09:15:58Z</time>
      </trkpt>
      <trkpt lat="44.82" lon="6.86564">
        <ele>2681.25</ele>
        <time>2018-08-22T09:16:26Z</time>
      </trkpt>
      <trkpt lat="44.81997" lon="6.86563">
        <ele>2681.25</ele>
        <time>2018-08-22T09:16:57Z</time>
      </trkpt>
      <trkpt lat="44.81994" lon="6.86567">
        <ele>2681.25</ele>
        <time>2018-08-22T09:17:26Z</time>
      </trkpt>
      <trkpt lat="44.8199" lon="6.86564">
        <ele>2680.77</ele>
        <time>2018-08-22T09:17:56Z</time>
      </trkpt>
      <trkpt lat="44.81996" lon="6.86566">
        <ele>2681.25</ele>
        <time>2018-08-22T09:18:26Z</time>
      </trkpt>
      <trkpt lat="44.81995" lon="6.86567">
        <ele>2680.77</ele>
        <time>2018-08-22T09:18:55Z</time>
      </trkpt>
      <trkpt lat="44.81996" lon="6.86566">
        <ele>2680.77</ele>
        <time>2018-08-22T09:19:24Z</time>
      </trkpt>
      <trkpt lat="44.81994" lon="6.86563">
        <ele>2680.77</ele>
        <time>2018-08-22T09:19:54Z</time>
      </trkpt>
      <trkpt lat="44.81993" lon="6.86563">
        <ele>2680.77</ele>
        <time>2018-08-22T09:20:21Z</time>
      </trkpt>
      <trkpt lat="44.81999" lon="6.86565">
        <ele>2680.77</ele>
        <time>2018-08-22T09:20:53Z</time>
      </trkpt>
      <trkpt lat="44.81996" lon="6.86566">
        <ele>2680.29</ele>
        <time>2018-08-22T09:21:26Z</time>
      </trkpt>
      <trkpt lat="44.81997" lon="6.86563">
        <ele>2680.29</ele>
        <time>2018-08-22T09:21:57Z</time>
      </trkpt>
      <trkpt lat="44.81994" lon="6.86568">
        <ele>2680.29</ele>
        <time>2018-08-22T09:22:33Z</time>
      </trkpt>
      <trkpt lat="44.81995" lon="6.86569">
        <ele>2679.81</ele>
        <time>2018-08-22T09:23:05Z</time>
      </trkpt>
      <trkpt lat="44.81994" lon="6.86566">
        <ele>2679.81</ele>
        <time>2018-08-22T09:23:39Z</time>
      </trkpt>
      <trkpt lat="44.81997" lon="6.86567">
        <ele>2679.33</ele>
        <time>2018-08-22T09:24:11Z</time>
      </trkpt>
      <trkpt lat="44.81994" lon="6.86563">
        <ele>2679.33</ele>
        <time>2018-08-22T09:24:42Z</time>
      </trkpt>
      <trkpt lat="44.81997" lon="6.86569">
        <ele>2679.33</ele>
        <time>2018-08-22T09:25:16Z</time>
      </trkpt>
      <trkpt lat="44.81998" lon="6.86566">
        <ele>2678.85</ele>
        <time>2018-08-22T09:25:43Z</time>
      </trkpt>
      <trkpt lat="44.81996" lon="6.86566">
        <ele>2678.85</ele>
        <time>2018-08-22T09:26:16Z</time>
      </trkpt>
      <trkpt lat="44.81995" lon="6.86564">
        <ele>2678.85</ele>
        <time>2018-08-22T09:26:51Z</time>
      </trkpt>
      <trkpt lat="44.81994" lon="6.8656">
        <ele>2678.85</ele>
        <time>2018-08-22T09:27:19Z</time>
      </trkpt>
      <trkpt lat="44.81994" lon="6.86558">
        <ele>2679.81</ele>
        <time>2018-08-22T09:27:43Z</time>
      </trkpt>
      <trkpt lat="44.81993" lon="6.8656">
        <ele>2679.81</ele>
        <time>2018-08-22T09:28:13Z</time>
      </trkpt>
      <trkpt lat="44.81993" lon="6.86557">
        <ele>2679.81</ele>
        <time>2018-08-22T09:28:40Z</time>
      </trkpt>
      <trkpt lat="44.81994" lon="6.86558">
        <ele>2679.81</ele>
        <time>2018-08-22T09:29:07Z</time>
      </trkpt>
      <trkpt lat="44.81997" lon="6.8656">
        <ele>2679.81</ele>
        <time>2018-08-22T09:29:31Z</time>
      </trkpt>
      <trkpt lat="44.81996" lon="6.86562">
        <ele>2679.81</ele>
        <time>2018-08-22T09:30:00Z</time>
      </trkpt>
      <trkpt lat="44.81998" lon="6.86561">
        <ele>2679.81</ele>
        <time>2018-08-22T09:30:30Z</time>
      </trkpt>
      <trkpt lat="44.81995" lon="6.86556">
        <ele>2679.81</ele>
        <time>2018-08-22T09:30:59Z</time>
      </trkpt>
      <trkpt lat="44.81996" lon="6.86561">
        <ele>2679.81</ele>
        <time>2018-08-22T09:31:22Z</time>
      </trkpt>
      <trkpt lat="44.81997" lon="6.86561">
        <ele>2679.33</ele>
        <time>2018-08-22T09:31:46Z</time>
      </trkpt>
      <trkpt lat="44.81997" lon="6.86562">
        <ele>2679.33</ele>
        <time>2018-08-22T09:32:19Z</time>
      </trkpt>
      <trkpt lat="44.81993" lon="6.86565">
        <ele>2677.89</ele>
        <time>2018-08-22T09:32:51Z</time>
      </trkpt>
      <trkpt lat="44.81993" lon="6.86567">
        <ele>2678.85</ele>
        <time>2018-08-22T09:32:55Z</time>
      </trkpt>
      <trkpt lat="44.81999" lon="6.86564">
        <ele>2678.85</ele>
        <time>2018-08-22T09:33:17Z</time>
      </trkpt>
      <trkpt lat="44.81999" lon="6.86571">
        <ele>2678.85</ele>
        <time>2018-08-22T09:33:51Z</time>
      </trkpt>
      <trkpt lat="44.81998" lon="6.86571">
        <ele>2678.85</ele>
        <time>2018-08-22T09:34:16Z</time>
      </trkpt>
      <trkpt lat="44.81997" lon="6.86574">
        <ele>2678.85</ele>
        <time>2018-08-22T09:34:49Z</time>
      </trkpt>
      <trkpt lat="44.81998" lon="6.86568">
        <ele>2678.85</ele>
        <time>2018-08-22T09:35:18Z</time>
      </trkpt>
      <trkpt lat="44.81999" lon="6.86568">
        <ele>2679.33</ele>
        <time>2018-08-22T09:35:56Z</time>
      </trkpt>
      <trkpt lat="44.81997" lon="6.86567">
        <ele>2679.33</ele>
        <time>2018-08-22T09:36:25Z</time>
      </trkpt>
      <trkpt lat="44.81996" lon="6.86564">
        <ele>2679.33</ele>
        <time>2018-08-22T09:36:53Z</time>
      </trkpt>
      <trkpt lat="44.81999" lon="6.86565">
        <ele>2681.25</ele>
        <time>2018-08-22T09:37:13Z</time>
      </trkpt>
      <trkpt lat="44.81999" lon="6.86566">
        <ele>2681.25</ele>
        <time>2018-08-22T09:37:30Z</time>
      </trkpt>
      <trkpt lat="44.82002" lon="6.86568">
        <ele>2681.73</ele>
        <time>2018-08-22T09:37:43Z</time>
      </trkpt>
      <trkpt lat="44.82" lon="6.8657">
        <ele>2681.73</ele>
        <time>2018-08-22T09:38:06Z</time>
      </trkpt>
      <trkpt lat="44.82003" lon="6.8657">
        <ele>2681.73</ele>
        <time>2018-08-22T09:38:28Z</time>
      </trkpt>
      <trkpt lat="44.82002" lon="6.86568">
        <ele>2681.73</ele>
        <time>2018-08-22T09:38:47Z</time>
      </trkpt>
      <trkpt lat="44.81998" lon="6.86562">
        <ele>2681.73</ele>
        <time>2018-08-22T09:38:59Z</time>
      </trkpt>
      <trkpt lat="44.81997" lon="6.86562">
        <ele>2681.73</ele>
        <time>2018-08-22T09:39:00Z</time>
      </trkpt>
      <trkpt lat="44.81996" lon="6.86561">
        <ele>2681.73</ele>
        <time>2018-08-22T09:39:01Z</time>
      </trkpt>
      <trkpt lat="44.81993" lon="6.86561">
        <ele>2680.29</ele>
        <time>2018-08-22T09:39:05Z</time>
      </trkpt>
      <trkpt lat="44.81991" lon="6.86561">
        <ele>2680.29</ele>
        <time>2018-08-22T09:39:25Z</time>
      </trkpt>
      <trkpt lat="44.81986" lon="6.86563">
        <ele>2680.29</ele>
        <time>2018-08-22T09:39:37Z</time>
      </trkpt>
      <trkpt lat="44.8198" lon="6.86567">
        <ele>2680.29</ele>
        <time>2018-08-22T09:39:46Z</time>
      </trkpt>
      <trkpt lat="44.81967" lon="6.86574">
        <ele>2682.22</ele>
        <time>2018-08-22T09:40:01Z</time>
      </trkpt>
      <trkpt lat="44.81952" lon="6.86585">
        <ele>2681.73</ele>
        <time>2018-08-22T09:40:17Z</time>
      </trkpt>
      <trkpt lat="44.81944" lon="6.86596">
        <ele>2683.18</ele>
        <time>2018-08-22T09:40:30Z</time>
      </trkpt>
      <trkpt lat="44.81936" lon="6.86618">
        <ele>2683.18</ele>
        <time>2018-08-22T09:40:47Z</time>
      </trkpt>
      <trkpt lat="44.81936" lon="6.86623">
        <ele>2683.18</ele>
        <time>2018-08-22T09:40:51Z</time>
      </trkpt>
      <trkpt lat="44.81935" lon="6.86625">
        <ele>2683.18</ele>
        <time>2018-08-22T09:40:52Z</time>
      </trkpt>
      <trkpt lat="44.81935" lon="6.8663">
        <ele>2681.73</ele>
        <time>2018-08-22T09:40:55Z</time>
      </trkpt>
      <trkpt lat="44.81935" lon="6.86656">
        <ele>2678.85</ele>
        <time>2018-08-22T09:41:11Z</time>
      </trkpt>
      <trkpt lat="44.81937" lon="6.86666">
        <ele>2678.37</ele>
        <time>2018-08-22T09:41:19Z</time>
      </trkpt>
      <trkpt lat="44.81938" lon="6.86668">
        <ele>2678.37</ele>
        <time>2018-08-22T09:41:20Z</time>
      </trkpt>
      <trkpt lat="44.81938" lon="6.8667">
        <ele>2676.93</ele>
        <time>2018-08-22T09:41:24Z</time>
      </trkpt>
      <trkpt lat="44.81939" lon="6.8668">
        <ele>2676.93</ele>
        <time>2018-08-22T09:41:30Z</time>
      </trkpt>
      <trkpt lat="44.81939" lon="6.86684">
        <ele>2676.93</ele>
        <time>2018-08-22T09:41:32Z</time>
      </trkpt>
      <trkpt lat="44.81939" lon="6.86685">
        <ele>2676.93</ele>
        <time>2018-08-22T09:41:33Z</time>
      </trkpt>
      <trkpt lat="44.81939" lon="6.86687">
        <ele>2676.45</ele>
        <time>2018-08-22T09:41:34Z</time>
      </trkpt>
      <trkpt lat="44.81939" lon="6.86689">
        <ele>2676.45</ele>
        <time>2018-08-22T09:41:35Z</time>
      </trkpt>
      <trkpt lat="44.81939" lon="6.86691">
        <ele>2676.45</ele>
        <time>2018-08-22T09:41:36Z</time>
      </trkpt>
      <trkpt lat="44.81939" lon="6.86692">
        <ele>2675.49</ele>
        <time>2018-08-22T09:41:37Z</time>
      </trkpt>
      <trkpt lat="44.81939" lon="6.86695">
        <ele>2675.49</ele>
        <time>2018-08-22T09:41:38Z</time>
      </trkpt>
      <trkpt lat="44.8194" lon="6.86696">
        <ele>2675.49</ele>
        <time>2018-08-22T09:41:39Z</time>
      </trkpt>
      <trkpt lat="44.8194" lon="6.86698">
        <ele>2675.49</ele>
        <time>2018-08-22T09:41:40Z</time>
      </trkpt>
      <trkpt lat="44.8194" lon="6.86701">
        <ele>2674.52</ele>
        <time>2018-08-22T09:41:42Z</time>
      </trkpt>
      <trkpt lat="44.8194" lon="6.86703">
        <ele>2674.52</ele>
        <time>2018-08-22T09:41:43Z</time>
      </trkpt>
      <trkpt lat="44.8194" lon="6.86704">
        <ele>2674.04</ele>
        <time>2018-08-22T09:41:44Z</time>
      </trkpt>
      <trkpt lat="44.8194" lon="6.86706">
        <ele>2674.04</ele>
        <time>2018-08-22T09:41:45Z</time>
      </trkpt>
      <trkpt lat="44.8194" lon="6.86708">
        <ele>2674.04</ele>
        <time>2018-08-22T09:41:46Z</time>
      </trkpt>
      <trkpt lat="44.8194" lon="6.8671">
        <ele>2674.04</ele>
        <time>2018-08-22T09:41:47Z</time>
      </trkpt>
      <trkpt lat="44.81939" lon="6.86712">
        <ele>2674.04</ele>
        <time>2018-08-22T09:41:48Z</time>
      </trkpt>
      <trkpt lat="44.81939" lon="6.86714">
        <ele>2674.04</ele>
        <time>2018-08-22T09:41:49Z</time>
      </trkpt>
      <trkpt lat="44.81942" lon="6.86737">
        <ele>2673.56</ele>
        <time>2018-08-22T09:42:03Z</time>
      </trkpt>
      <trkpt lat="44.81944" lon="6.86749">
        <ele>2670.68</ele>
        <time>2018-08-22T09:42:12Z</time>
      </trkpt>
      <trkpt lat="44.81943" lon="6.86754">
        <ele>2668.28</ele>
        <time>2018-08-22T09:42:18Z</time>
      </trkpt>
      <trkpt lat="44.81942" lon="6.86755">
        <ele>2668.28</ele>
        <time>2018-08-22T09:42:19Z</time>
      </trkpt>
      <trkpt lat="44.81941" lon="6.86755">
        <ele>2667.31</ele>
        <time>2018-08-22T09:42:20Z</time>
      </trkpt>
      <trkpt lat="44.81935" lon="6.8676">
        <ele>2664.91</ele>
        <time>2018-08-22T09:42:28Z</time>
      </trkpt>
      <trkpt lat="44.81933" lon="6.8677">
        <ele>2662.51</ele>
        <time>2018-08-22T09:42:40Z</time>
      </trkpt>
      <trkpt lat="44.81932" lon="6.86772">
        <ele>2661.55</ele>
        <time>2018-08-22T09:42:42Z</time>
      </trkpt>
      <trkpt lat="44.8193" lon="6.86777">
        <ele>2660.11</ele>
        <time>2018-08-22T09:42:47Z</time>
      </trkpt>
      <trkpt lat="44.81929" lon="6.86778">
        <ele>2659.62</ele>
        <time>2018-08-22T09:42:48Z</time>
      </trkpt>
      <trkpt lat="44.81928" lon="6.86779">
        <ele>2659.62</ele>
        <time>2018-08-22T09:42:49Z</time>
      </trkpt>
      <trkpt lat="44.81925" lon="6.86789">
        <ele>2656.26</ele>
        <time>2018-08-22T09:42:56Z</time>
      </trkpt>
      <trkpt lat="44.81923" lon="6.868">
        <ele>2652.9</ele>
        <time>2018-08-22T09:43:06Z</time>
      </trkpt>
      <trkpt lat="44.81925" lon="6.86806">
        <ele>2651.93</ele>
        <time>2018-08-22T09:43:11Z</time>
      </trkpt>
      <trkpt lat="44.81924" lon="6.86823">
        <ele>2648.57</ele>
        <time>2018-08-22T09:43:23Z</time>
      </trkpt>
      <trkpt lat="44.81924" lon="6.86826">
        <ele>2647.61</ele>
        <time>2018-08-22T09:43:25Z</time>
      </trkpt>
      <trkpt lat="44.81927" lon="6.86833">
        <ele>2646.65</ele>
        <time>2018-08-22T09:43:36Z</time>
      </trkpt>
      <trkpt lat="44.81929" lon="6.86843">
        <ele>2644.24</ele>
        <time>2018-08-22T09:43:50Z</time>
      </trkpt>
      <trkpt lat="44.8193" lon="6.86846">
        <ele>2643.28</ele>
        <time>2018-08-22T09:43:53Z</time>
      </trkpt>
      <trkpt lat="44.8193" lon="6.8685">
        <ele>2643.28</ele>
        <time>2018-08-22T09:43:56Z</time>
      </trkpt>
      <trkpt lat="44.81934" lon="6.86855">
        <ele>2639.92</ele>
        <time>2018-08-22T09:44:09Z</time>
      </trkpt>
      <trkpt lat="44.81939" lon="6.86856">
        <ele>2637.51</ele>
        <time>2018-08-22T09:44:17Z</time>
      </trkpt>
      <trkpt lat="44.81942" lon="6.86861">
        <ele>2636.07</ele>
        <time>2018-08-22T09:44:22Z</time>
      </trkpt>
      <trkpt lat="44.81945" lon="6.86866">
        <ele>2634.63</ele>
        <time>2018-08-22T09:44:27Z</time>
      </trkpt>
      <trkpt lat="44.81947" lon="6.86873">
        <ele>2632.71</ele>
        <time>2018-08-22T09:44:35Z</time>
      </trkpt>
      <trkpt lat="44.81949" lon="6.86878">
        <ele>2631.75</ele>
        <time>2018-08-22T09:44:40Z</time>
      </trkpt>
      <trkpt lat="44.81952" lon="6.86881">
        <ele>2630.79</ele>
        <time>2018-08-22T09:44:44Z</time>
      </trkpt>
      <trkpt lat="44.81954" lon="6.86883">
        <ele>2630.3</ele>
        <time>2018-08-22T09:44:46Z</time>
      </trkpt>
      <trkpt lat="44.81956" lon="6.86888">
        <ele>2629.82</ele>
        <time>2018-08-22T09:44:50Z</time>
      </trkpt>
      <trkpt lat="44.81962" lon="6.86895">
        <ele>2627.9</ele>
        <time>2018-08-22T09:45:02Z</time>
      </trkpt>
      <trkpt lat="44.81964" lon="6.86896">
        <ele>2627.42</ele>
        <time>2018-08-22T09:45:06Z</time>
      </trkpt>
      <trkpt lat="44.81974" lon="6.86902">
        <ele>2625.02</ele>
        <time>2018-08-22T09:45:17Z</time>
      </trkpt>
      <trkpt lat="44.81979" lon="6.86902">
        <ele>2623.58</ele>
        <time>2018-08-22T09:45:23Z</time>
      </trkpt>
      <trkpt lat="44.81987" lon="6.86906">
        <ele>2620.21</ele>
        <time>2018-08-22T09:45:32Z</time>
      </trkpt>
      <trkpt lat="44.81998" lon="6.86911">
        <ele>2616.85</ele>
        <time>2018-08-22T09:45:44Z</time>
      </trkpt>
      <trkpt lat="44.82009" lon="6.86915">
        <ele>2613.96</ele>
        <time>2018-08-22T09:45:55Z</time>
      </trkpt>
      <trkpt lat="44.82012" lon="6.86916">
        <ele>2613.48</ele>
        <time>2018-08-22T09:46:00Z</time>
      </trkpt>
      <trkpt lat="44.82012" lon="6.86914">
        <ele>2613</ele>
        <time>2018-08-22T09:46:01Z</time>
      </trkpt>
      <trkpt lat="44.82017" lon="6.86916">
        <ele>2611.08</ele>
        <time>2018-08-22T09:46:07Z</time>
      </trkpt>
      <trkpt lat="44.82018" lon="6.86917">
        <ele>2611.08</ele>
        <time>2018-08-22T09:46:08Z</time>
      </trkpt>
      <trkpt lat="44.82025" lon="6.86918">
        <ele>2608.67</ele>
        <time>2018-08-22T09:46:18Z</time>
      </trkpt>
      <trkpt lat="44.8203" lon="6.86923">
        <ele>2606.75</ele>
        <time>2018-08-22T09:46:26Z</time>
      </trkpt>
      <trkpt lat="44.82031" lon="6.86925">
        <ele>2605.79</ele>
        <time>2018-08-22T09:46:27Z</time>
      </trkpt>
      <trkpt lat="44.82035" lon="6.86924">
        <ele>2604.35</ele>
        <time>2018-08-22T09:46:34Z</time>
      </trkpt>
      <trkpt lat="44.82035" lon="6.86922">
        <ele>2603.87</ele>
        <time>2018-08-22T09:46:36Z</time>
      </trkpt>
      <trkpt lat="44.82036" lon="6.86921">
        <ele>2603.87</ele>
        <time>2018-08-22T09:46:37Z</time>
      </trkpt>
      <trkpt lat="44.82037" lon="6.86921">
        <ele>2603.39</ele>
        <time>2018-08-22T09:46:38Z</time>
      </trkpt>
      <trkpt lat="44.82046" lon="6.86923">
        <ele>2600.5</ele>
        <time>2018-08-22T09:46:51Z</time>
      </trkpt>
      <trkpt lat="44.82045" lon="6.86922">
        <ele>2600.02</ele>
        <time>2018-08-22T09:47:11Z</time>
      </trkpt>
      <trkpt lat="44.82046" lon="6.86923">
        <ele>2600.02</ele>
        <time>2018-08-22T09:47:33Z</time>
      </trkpt>
      <trkpt lat="44.82051" lon="6.86925">
        <ele>2599.06</ele>
        <time>2018-08-22T09:47:41Z</time>
      </trkpt>
      <trkpt lat="44.82047" lon="6.86928">
        <ele>2598.58</ele>
        <time>2018-08-22T09:47:56Z</time>
      </trkpt>
      <trkpt lat="44.82047" lon="6.86935">
        <ele>2597.14</ele>
        <time>2018-08-22T09:48:15Z</time>
      </trkpt>
      <trkpt lat="44.82051" lon="6.86938">
        <ele>2596.66</ele>
        <time>2018-08-22T09:48:20Z</time>
      </trkpt>
      <trkpt lat="44.82061" lon="6.86945">
        <ele>2593.77</ele>
        <time>2018-08-22T09:48:31Z</time>
      </trkpt>
      <trkpt lat="44.82077" lon="6.86962">
        <ele>2591.85</ele>
        <time>2018-08-22T09:48:49Z</time>
      </trkpt>
      <trkpt lat="44.82083" lon="6.86974">
        <ele>2590.41</ele>
        <time>2018-08-22T09:49:02Z</time>
      </trkpt>
      <trkpt lat="44.82082" lon="6.86973">
        <ele>2589.93</ele>
        <time>2018-08-22T09:49:12Z</time>
      </trkpt>
      <trkpt lat="44.82081" lon="6.86971">
        <ele>2589.45</ele>
        <time>2018-08-22T09:49:30Z</time>
      </trkpt>
      <trkpt lat="44.82082" lon="6.86972">
        <ele>2589.45</ele>
        <time>2018-08-22T09:49:46Z</time>
      </trkpt>
      <trkpt lat="44.82082" lon="6.86978">
        <ele>2589.45</ele>
        <time>2018-08-22T09:49:59Z</time>
      </trkpt>
      <trkpt lat="44.82083" lon="6.86981">
        <ele>2589.45</ele>
        <time>2018-08-22T09:50:05Z</time>
      </trkpt>
      <trkpt lat="44.82083" lon="6.86983">
        <ele>2589.45</ele>
        <time>2018-08-22T09:50:06Z</time>
      </trkpt>
      <trkpt lat="44.82085" lon="6.86995">
        <ele>2588.97</ele>
        <time>2018-08-22T09:50:14Z</time>
      </trkpt>
      <trkpt lat="44.82087" lon="6.87001">
        <ele>2588.49</ele>
        <time>2018-08-22T09:50:19Z</time>
      </trkpt>
      <trkpt lat="44.82087" lon="6.87002">
        <ele>2588.49</ele>
        <time>2018-08-22T09:50:20Z</time>
      </trkpt>
      <trkpt lat="44.82089" lon="6.87017">
        <ele>2588.49</ele>
        <time>2018-08-22T09:50:30Z</time>
      </trkpt>
      <trkpt lat="44.82089" lon="6.87027">
        <ele>2588.49</ele>
        <time>2018-08-22T09:50:37Z</time>
      </trkpt>
      <trkpt lat="44.82088" lon="6.87032">
        <ele>2588.49</ele>
        <time>2018-08-22T09:50:40Z</time>
      </trkpt>
      <trkpt lat="44.82089" lon="6.87033">
        <ele>2588.49</ele>
        <time>2018-08-22T09:50:41Z</time>
      </trkpt>
      <trkpt lat="44.8209" lon="6.87035">
        <ele>2588.49</ele>
        <time>2018-08-22T09:50:42Z</time>
      </trkpt>
      <trkpt lat="44.8209" lon="6.87036">
        <ele>2588.49</ele>
        <time>2018-08-22T09:50:43Z</time>
      </trkpt>
      <trkpt lat="44.82091" lon="6.87037">
        <ele>2588.49</ele>
        <time>2018-08-22T09:50:44Z</time>
      </trkpt>
      <trkpt lat="44.82091" lon="6.87039">
        <ele>2588.49</ele>
        <time>2018-08-22T09:50:45Z</time>
      </trkpt>
      <trkpt lat="44.82092" lon="6.87041">
        <ele>2588.49</ele>
        <time>2018-08-22T09:50:46Z</time>
      </trkpt>
      <trkpt lat="44.82092" lon="6.87042">
        <ele>2588.49</ele>
        <time>2018-08-22T09:50:47Z</time>
      </trkpt>
      <trkpt lat="44.82092" lon="6.87043">
        <ele>2588.49</ele>
        <time>2018-08-22T09:50:52Z</time>
      </trkpt>
      <trkpt lat="44.82092" lon="6.87045">
        <ele>2588.49</ele>
        <time>2018-08-22T09:50:53Z</time>
      </trkpt>
      <trkpt lat="44.82093" lon="6.87046">
        <ele>2588.49</ele>
        <time>2018-08-22T09:50:54Z</time>
      </trkpt>
      <trkpt lat="44.82093" lon="6.87052">
        <ele>2588.49</ele>
        <time>2018-08-22T09:50:58Z</time>
      </trkpt>
      <trkpt lat="44.82093" lon="6.87053">
        <ele>2588.49</ele>
        <time>2018-08-22T09:50:59Z</time>
      </trkpt>
      <trkpt lat="44.82093" lon="6.87055">
        <ele>2588.49</ele>
        <time>2018-08-22T09:51:00Z</time>
      </trkpt>
      <trkpt lat="44.82094" lon="6.87058">
        <ele>2588.49</ele>
        <time>2018-08-22T09:51:01Z</time>
      </trkpt>
      <trkpt lat="44.82094" lon="6.87059">
        <ele>2588.49</ele>
        <time>2018-08-22T09:51:02Z</time>
      </trkpt>
      <trkpt lat="44.82094" lon="6.87062">
        <ele>2588.49</ele>
        <time>2018-08-22T09:51:04Z</time>
      </trkpt>
      <trkpt lat="44.82099" lon="6.87071">
        <ele>2588.49</ele>
        <time>2018-08-22T09:51:11Z</time>
      </trkpt>
      <trkpt lat="44.82098" lon="6.87077">
        <ele>2588.49</ele>
        <time>2018-08-22T09:51:16Z</time>
      </trkpt>
      <trkpt lat="44.82098" lon="6.87082">
        <ele>2588.49</ele>
        <time>2018-08-22T09:51:19Z</time>
      </trkpt>
      <trkpt lat="44.82098" lon="6.87094">
        <ele>2588.49</ele>
        <time>2018-08-22T09:51:27Z</time>
      </trkpt>
      <trkpt lat="44.82098" lon="6.87097">
        <ele>2588.49</ele>
        <time>2018-08-22T09:51:29Z</time>
      </trkpt>
      <trkpt lat="44.82098" lon="6.87103">
        <ele>2588.49</ele>
        <time>2018-08-22T09:51:34Z</time>
      </trkpt>
      <trkpt lat="44.82103" lon="6.8712">
        <ele>2588.01</ele>
        <time>2018-08-22T09:51:45Z</time>
      </trkpt>
      <trkpt lat="44.82106" lon="6.87127">
        <ele>2588.01</ele>
        <time>2018-08-22T09:51:58Z</time>
      </trkpt>
      <trkpt lat="44.82108" lon="6.87125">
        <ele>2588.01</ele>
        <time>2018-08-22T09:52:12Z</time>
      </trkpt>
      <trkpt lat="44.82106" lon="6.87124">
        <ele>2588.01</ele>
        <time>2018-08-22T09:52:29Z</time>
      </trkpt>
      <trkpt lat="44.82106" lon="6.8713">
        <ele>2587.53</ele>
        <time>2018-08-22T09:52:42Z</time>
      </trkpt>
      <trkpt lat="44.82108" lon="6.87135">
        <ele>2587.53</ele>
        <time>2018-08-22T09:52:57Z</time>
      </trkpt>
      <trkpt lat="44.8211" lon="6.87136">
        <ele>2589.45</ele>
        <time>2018-08-22T09:53:09Z</time>
      </trkpt>
      <trkpt lat="44.82114" lon="6.87149">
        <ele>2591.37</ele>
        <time>2018-08-22T09:53:21Z</time>
      </trkpt>
      <trkpt lat="44.82115" lon="6.87151">
        <ele>2591.37</ele>
        <time>2018-08-22T09:53:22Z</time>
      </trkpt>
      <trkpt lat="44.82121" lon="6.87157">
        <ele>2591.85</ele>
        <time>2018-08-22T09:53:30Z</time>
      </trkpt>
      <trkpt lat="44.82122" lon="6.87158">
        <ele>2591.85</ele>
        <time>2018-08-22T09:53:31Z</time>
      </trkpt>
      <trkpt lat="44.8213" lon="6.8716">
        <ele>2593.77</ele>
        <time>2018-08-22T09:53:41Z</time>
      </trkpt>
      <trkpt lat="44.8214" lon="6.87172">
        <ele>2593.77</ele>
        <time>2018-08-22T09:53:53Z</time>
      </trkpt>
      <trkpt lat="44.82144" lon="6.87178">
        <ele>2593.77</ele>
        <time>2018-08-22T09:53:59Z</time>
      </trkpt>
      <trkpt lat="44.82145" lon="6.87179">
        <ele>2593.77</ele>
        <time>2018-08-22T09:54:00Z</time>
      </trkpt>
      <trkpt lat="44.82153" lon="6.87182">
        <ele>2594.74</ele>
        <time>2018-08-22T09:54:11Z</time>
      </trkpt>
      <trkpt lat="44.82154" lon="6.87182">
        <ele>2594.74</ele>
        <time>2018-08-22T09:54:12Z</time>
      </trkpt>
      <trkpt lat="44.82162" lon="6.87184">
        <ele>2596.66</ele>
        <time>2018-08-22T09:54:24Z</time>
      </trkpt>
      <trkpt lat="44.8217" lon="6.87181">
        <ele>2597.62</ele>
        <time>2018-08-22T09:54:32Z</time>
      </trkpt>
      <trkpt lat="44.8218" lon="6.87181">
        <ele>2600.5</ele>
        <time>2018-08-22T09:54:46Z</time>
      </trkpt>
      <trkpt lat="44.82189" lon="6.8718">
        <ele>2602.43</ele>
        <time>2018-08-22T09:54:58Z</time>
      </trkpt>
      <trkpt lat="44.82196" lon="6.87183">
        <ele>2605.31</ele>
        <time>2018-08-22T09:55:10Z</time>
      </trkpt>
      <trkpt lat="44.82204" lon="6.8719">
        <ele>2608.19</ele>
        <time>2018-08-22T09:55:24Z</time>
      </trkpt>
      <trkpt lat="44.8221" lon="6.87193">
        <ele>2610.12</ele>
        <time>2018-08-22T09:55:36Z</time>
      </trkpt>
      <trkpt lat="44.82213" lon="6.87195">
        <ele>2610.12</ele>
        <time>2018-08-22T09:55:39Z</time>
      </trkpt>
      <trkpt lat="44.82214" lon="6.87195">
        <ele>2610.12</ele>
        <time>2018-08-22T09:55:40Z</time>
      </trkpt>
      <trkpt lat="44.82225" lon="6.87201">
        <ele>2611.08</ele>
        <time>2018-08-22T09:55:52Z</time>
      </trkpt>
      <trkpt lat="44.82236" lon="6.87201">
        <ele>2612.04</ele>
        <time>2018-08-22T09:56:04Z</time>
      </trkpt>
      <trkpt lat="44.82238" lon="6.87202">
        <ele>2611.56</ele>
        <time>2018-08-22T09:56:07Z</time>
      </trkpt>
      <trkpt lat="44.82247" lon="6.87204">
        <ele>2612.52</ele>
        <time>2018-08-22T09:56:19Z</time>
      </trkpt>
      <trkpt lat="44.82257" lon="6.87202">
        <ele>2613</ele>
        <time>2018-08-22T09:56:29Z</time>
      </trkpt>
      <trkpt lat="44.82258" lon="6.87203">
        <ele>2613</ele>
        <time>2018-08-22T09:56:30Z</time>
      </trkpt>
      <trkpt lat="44.82264" lon="6.87204">
        <ele>2613.48</ele>
        <time>2018-08-22T09:56:36Z</time>
      </trkpt>
      <trkpt lat="44.82273" lon="6.87202">
        <ele>2615.4</ele>
        <time>2018-08-22T09:56:46Z</time>
      </trkpt>
      <trkpt lat="44.82285" lon="6.87202">
        <ele>2617.81</ele>
        <time>2018-08-22T09:57:01Z</time>
      </trkpt>
      <trkpt lat="44.82295" lon="6.87205">
        <ele>2620.21</ele>
        <time>2018-08-22T09:57:13Z</time>
      </trkpt>
      <trkpt lat="44.82305" lon="6.8721">
        <ele>2622.13</ele>
        <time>2018-08-22T09:57:27Z</time>
      </trkpt>
      <trkpt lat="44.82312" lon="6.87207">
        <ele>2623.58</ele>
        <time>2018-08-22T09:57:37Z</time>
      </trkpt>
      <trkpt lat="44.82323" lon="6.87206">
        <ele>2624.54</ele>
        <time>2018-08-22T09:57:49Z</time>
      </trkpt>
      <trkpt lat="44.82333" lon="6.87202">
        <ele>2626.46</ele>
        <time>2018-08-22T09:58:01Z</time>
      </trkpt>
      <trkpt lat="44.82341" lon="6.87201">
        <ele>2628.86</ele>
        <time>2018-08-22T09:58:15Z</time>
      </trkpt>
      <trkpt lat="44.8235" lon="6.87206">
        <ele>2630.3</ele>
        <time>2018-08-22T09:58:27Z</time>
      </trkpt>
      <trkpt lat="44.82353" lon="6.87209">
        <ele>2632.23</ele>
        <time>2018-08-22T09:58:38Z</time>
      </trkpt>
      <trkpt lat="44.82359" lon="6.87213">
        <ele>2634.15</ele>
        <time>2018-08-22T09:58:51Z</time>
      </trkpt>
      <trkpt lat="44.82364" lon="6.87214">
        <ele>2636.07</ele>
        <time>2018-08-22T09:59:04Z</time>
      </trkpt>
      <trkpt lat="44.8237" lon="6.87217">
        <ele>2637.99</ele>
        <time>2018-08-22T09:59:16Z</time>
      </trkpt>
      <trkpt lat="44.82378" lon="6.87217">
        <ele>2640.4</ele>
        <time>2018-08-22T09:59:28Z</time>
      </trkpt>
      <trkpt lat="44.82386" lon="6.87216">
        <ele>2642.32</ele>
        <time>2018-08-22T09:59:41Z</time>
      </trkpt>
      <trkpt lat="44.82392" lon="6.87217">
        <ele>2644.24</ele>
        <time>2018-08-22T09:59:54Z</time>
      </trkpt>
      <trkpt lat="44.82397" lon="6.87222">
        <ele>2647.13</ele>
        <time>2018-08-22T10:00:08Z</time>
      </trkpt>
      <trkpt lat="44.82403" lon="6.87219">
        <ele>2648.57</ele>
        <time>2018-08-22T10:00:19Z</time>
      </trkpt>
      <trkpt lat="44.82408" lon="6.87226">
        <ele>2651.45</ele>
        <time>2018-08-22T10:00:34Z</time>
      </trkpt>
      <trkpt lat="44.82414" lon="6.87222">
        <ele>2653.38</ele>
        <time>2018-08-22T10:00:48Z</time>
      </trkpt>
      <trkpt lat="44.82421" lon="6.87228">
        <ele>2656.26</ele>
        <time>2018-08-22T10:01:01Z</time>
      </trkpt>
      <trkpt lat="44.82427" lon="6.87225">
        <ele>2658.18</ele>
        <time>2018-08-22T10:01:14Z</time>
      </trkpt>
      <trkpt lat="44.82432" lon="6.87225">
        <ele>2660.11</ele>
        <time>2018-08-22T10:01:27Z</time>
      </trkpt>
      <trkpt lat="44.82438" lon="6.87227">
        <ele>2662.51</ele>
        <time>2018-08-22T10:01:42Z</time>
      </trkpt>
      <trkpt lat="44.82442" lon="6.87228">
        <ele>2665.39</ele>
        <time>2018-08-22T10:01:54Z</time>
      </trkpt>
      <trkpt lat="44.82447" lon="6.87238">
        <ele>2667.8</ele>
        <time>2018-08-22T10:02:08Z</time>
      </trkpt>
      <trkpt lat="44.82453" lon="6.87246">
        <ele>2669.72</ele>
        <time>2018-08-22T10:02:22Z</time>
      </trkpt>
      <trkpt lat="44.82458" lon="6.87252">
        <ele>2672.12</ele>
        <time>2018-08-22T10:02:35Z</time>
      </trkpt>
      <trkpt lat="44.82464" lon="6.87257">
        <ele>2675.01</ele>
        <time>2018-08-22T10:02:48Z</time>
      </trkpt>
      <trkpt lat="44.8247" lon="6.87263">
        <ele>2677.89</ele>
        <time>2018-08-22T10:03:01Z</time>
      </trkpt>
      <trkpt lat="44.82473" lon="6.87257">
        <ele>2680.29</ele>
        <time>2018-08-22T10:03:16Z</time>
      </trkpt>
      <trkpt lat="44.82476" lon="6.87252">
        <ele>2683.18</ele>
        <time>2018-08-22T10:03:32Z</time>
      </trkpt>
      <trkpt lat="44.82479" lon="6.87246">
        <ele>2686.54</ele>
        <time>2018-08-22T10:03:48Z</time>
      </trkpt>
      <trkpt lat="44.82483" lon="6.87242">
        <ele>2688.94</ele>
        <time>2018-08-22T10:04:04Z</time>
      </trkpt>
      <trkpt lat="44.82489" lon="6.87242">
        <ele>2692.31</ele>
        <time>2018-08-22T10:04:18Z</time>
      </trkpt>
      <trkpt lat="44.82493" lon="6.87236">
        <ele>2694.23</ele>
        <time>2018-08-22T10:04:33Z</time>
      </trkpt>
      <trkpt lat="44.82495" lon="6.87227">
        <ele>2696.64</ele>
        <time>2018-08-22T10:04:45Z</time>
      </trkpt>
      <trkpt lat="44.82498" lon="6.87218">
        <ele>2699.52</ele>
        <time>2018-08-22T10:04:59Z</time>
      </trkpt>
      <trkpt lat="44.82503" lon="6.87219">
        <ele>2701.92</ele>
        <time>2018-08-22T10:05:12Z</time>
      </trkpt>
      <trkpt lat="44.82507" lon="6.87214">
        <ele>2704.81</ele>
        <time>2018-08-22T10:05:24Z</time>
      </trkpt>
      <trkpt lat="44.82511" lon="6.87217">
        <ele>2707.21</ele>
        <time>2018-08-22T10:05:36Z</time>
      </trkpt>
      <trkpt lat="44.82515" lon="6.87211">
        <ele>2709.61</ele>
        <time>2018-08-22T10:05:50Z</time>
      </trkpt>
      <trkpt lat="44.82516" lon="6.87202">
        <ele>2712.98</ele>
        <time>2018-08-22T10:06:01Z</time>
      </trkpt>
      <trkpt lat="44.82522" lon="6.87202">
        <ele>2715.38</ele>
        <time>2018-08-22T10:06:13Z</time>
      </trkpt>
      <trkpt lat="44.8253" lon="6.87206">
        <ele>2718.27</ele>
        <time>2018-08-22T10:06:26Z</time>
      </trkpt>
      <trkpt lat="44.82536" lon="6.87205">
        <ele>2720.19</ele>
        <time>2018-08-22T10:06:37Z</time>
      </trkpt>
      <trkpt lat="44.82542" lon="6.87205">
        <ele>2722.11</ele>
        <time>2018-08-22T10:06:49Z</time>
      </trkpt>
      <trkpt lat="44.82551" lon="6.87206">
        <ele>2724.51</ele>
        <time>2018-08-22T10:07:03Z</time>
      </trkpt>
      <trkpt lat="44.82557" lon="6.87208">
        <ele>2725.48</ele>
        <time>2018-08-22T10:07:10Z</time>
      </trkpt>
      <trkpt lat="44.82571" lon="6.87215">
        <ele>2726.92</ele>
        <time>2018-08-22T10:07:25Z</time>
      </trkpt>
      <trkpt lat="44.82577" lon="6.87218">
        <ele>2726.92</ele>
        <time>2018-08-22T10:07:32Z</time>
      </trkpt>
      <trkpt lat="44.82587" lon="6.87221">
        <ele>2727.88</ele>
        <time>2018-08-22T10:07:44Z</time>
      </trkpt>
      <trkpt lat="44.82595" lon="6.87222">
        <ele>2728.84</ele>
        <time>2018-08-22T10:07:52Z</time>
      </trkpt>
      <trkpt lat="44.82608" lon="6.87219">
        <ele>2730.76</ele>
        <time>2018-08-22T10:08:07Z</time>
      </trkpt>
      <trkpt lat="44.82617" lon="6.87221">
        <ele>2732.2</ele>
        <time>2018-08-22T10:08:18Z</time>
      </trkpt>
      <trkpt lat="44.82626" lon="6.87223">
        <ele>2734.13</ele>
        <time>2018-08-22T10:08:30Z</time>
      </trkpt>
      <trkpt lat="44.82637" lon="6.87228">
        <ele>2737.49</ele>
        <time>2018-08-22T10:08:44Z</time>
      </trkpt>
      <trkpt lat="44.82649" lon="6.87235">
        <ele>2738.45</ele>
        <time>2018-08-22T10:08:56Z</time>
      </trkpt>
      <trkpt lat="44.82658" lon="6.87234">
        <ele>2741.34</ele>
        <time>2018-08-22T10:09:10Z</time>
      </trkpt>
      <trkpt lat="44.82667" lon="6.87233">
        <ele>2744.22</ele>
        <time>2018-08-22T10:09:26Z</time>
      </trkpt>
      <trkpt lat="44.82674" lon="6.87231">
        <ele>2746.62</ele>
        <time>2018-08-22T10:09:39Z</time>
      </trkpt>
      <trkpt lat="44.82679" lon="6.87227">
        <ele>2749.51</ele>
        <time>2018-08-22T10:09:53Z</time>
      </trkpt>
      <trkpt lat="44.82684" lon="6.87228">
        <ele>2750.95</ele>
        <time>2018-08-22T10:10:00Z</time>
      </trkpt>
      <trkpt lat="44.82691" lon="6.87228">
        <ele>2752.87</ele>
        <time>2018-08-22T10:10:11Z</time>
      </trkpt>
      <trkpt lat="44.82697" lon="6.87227">
        <ele>2755.76</ele>
        <time>2018-08-22T10:10:25Z</time>
      </trkpt>
      <trkpt lat="44.82704" lon="6.87224">
        <ele>2758.16</ele>
        <time>2018-08-22T10:10:38Z</time>
      </trkpt>
      <trkpt lat="44.8271" lon="6.87221">
        <ele>2761.04</ele>
        <time>2018-08-22T10:10:52Z</time>
      </trkpt>
      <trkpt lat="44.82715" lon="6.8722">
        <ele>2763.93</ele>
        <time>2018-08-22T10:11:04Z</time>
      </trkpt>
      <trkpt lat="44.82724" lon="6.87223">
        <ele>2765.85</ele>
        <time>2018-08-22T10:11:16Z</time>
      </trkpt>
      <trkpt lat="44.82734" lon="6.87225">
        <ele>2767.77</ele>
        <time>2018-08-22T10:11:29Z</time>
      </trkpt>
      <trkpt lat="44.8274" lon="6.87222">
        <ele>2770.66</ele>
        <time>2018-08-22T10:11:42Z</time>
      </trkpt>
      <trkpt lat="44.82746" lon="6.8722">
        <ele>2773.06</ele>
        <time>2018-08-22T10:11:54Z</time>
      </trkpt>
      <trkpt lat="44.82754" lon="6.8722">
        <ele>2775.46</ele>
        <time>2018-08-22T10:12:07Z</time>
      </trkpt>
      <trkpt lat="44.82763" lon="6.8722">
        <ele>2778.35</ele>
        <time>2018-08-22T10:12:22Z</time>
      </trkpt>
      <trkpt lat="44.8277" lon="6.87216">
        <ele>2780.27</ele>
        <time>2018-08-22T10:12:34Z</time>
      </trkpt>
      <trkpt lat="44.82778" lon="6.87213">
        <ele>2783.63</ele>
        <time>2018-08-22T10:12:49Z</time>
      </trkpt>
      <trkpt lat="44.82785" lon="6.87211">
        <ele>2786.04</ele>
        <time>2018-08-22T10:13:02Z</time>
      </trkpt>
      <trkpt lat="44.8279" lon="6.87209">
        <ele>2787.96</ele>
        <time>2018-08-22T10:13:11Z</time>
      </trkpt>
      <trkpt lat="44.82799" lon="6.87208">
        <ele>2789.88</ele>
        <time>2018-08-22T10:13:23Z</time>
      </trkpt>
      <trkpt lat="44.82809" lon="6.8721">
        <ele>2792.77</ele>
        <time>2018-08-22T10:13:38Z</time>
      </trkpt>
      <trkpt lat="44.82818" lon="6.87207">
        <ele>2794.69</ele>
        <time>2018-08-22T10:13:51Z</time>
      </trkpt>
      <trkpt lat="44.82824" lon="6.87205">
        <ele>2797.09</ele>
        <time>2018-08-22T10:14:03Z</time>
      </trkpt>
      <trkpt lat="44.82834" lon="6.87207">
        <ele>2799.98</ele>
        <time>2018-08-22T10:14:17Z</time>
      </trkpt>
      <trkpt lat="44.82847" lon="6.87216">
        <ele>2802.38</ele>
        <time>2018-08-22T10:14:31Z</time>
      </trkpt>
      <trkpt lat="44.82857" lon="6.87218">
        <ele>2804.78</ele>
        <time>2018-08-22T10:14:45Z</time>
      </trkpt>
      <trkpt lat="44.82866" lon="6.87218">
        <ele>2807.19</ele>
        <time>2018-08-22T10:14:57Z</time>
      </trkpt>
      <trkpt lat="44.82878" lon="6.87216">
        <ele>2809.11</ele>
        <time>2018-08-22T10:15:11Z</time>
      </trkpt>
      <trkpt lat="44.82887" lon="6.87214">
        <ele>2811.51</ele>
        <time>2018-08-22T10:15:25Z</time>
      </trkpt>
      <trkpt lat="44.82893" lon="6.87212">
        <ele>2812.47</ele>
        <time>2018-08-22T10:15:31Z</time>
      </trkpt>
      <trkpt lat="44.82901" lon="6.87211">
        <ele>2815.36</ele>
        <time>2018-08-22T10:15:43Z</time>
      </trkpt>
      <trkpt lat="44.82911" lon="6.87212">
        <ele>2817.28</ele>
        <time>2018-08-22T10:15:55Z</time>
      </trkpt>
      <trkpt lat="44.82925" lon="6.87215">
        <ele>2818.24</ele>
        <time>2018-08-22T10:16:09Z</time>
      </trkpt>
      <trkpt lat="44.82934" lon="6.87216">
        <ele>2821.13</ele>
        <time>2018-08-22T10:16:23Z</time>
      </trkpt>
      <trkpt lat="44.82944" lon="6.87212">
        <ele>2824.01</ele>
        <time>2018-08-22T10:16:36Z</time>
      </trkpt>
      <trkpt lat="44.8295" lon="6.87209">
        <ele>2826.41</ele>
        <time>2018-08-22T10:16:49Z</time>
      </trkpt>
      <trkpt lat="44.82957" lon="6.87207">
        <ele>2829.3</ele>
        <time>2018-08-22T10:17:03Z</time>
      </trkpt>
      <trkpt lat="44.82962" lon="6.87205">
        <ele>2831.7</ele>
        <time>2018-08-22T10:17:16Z</time>
      </trkpt>
      <trkpt lat="44.82966" lon="6.87203">
        <ele>2834.58</ele>
        <time>2018-08-22T10:17:28Z</time>
      </trkpt>
      <trkpt lat="44.82976" lon="6.87205">
        <ele>2837.47</ele>
        <time>2018-08-22T10:17:42Z</time>
      </trkpt>
      <trkpt lat="44.82983" lon="6.87207">
        <ele>2839.87</ele>
        <time>2018-08-22T10:17:56Z</time>
      </trkpt>
      <trkpt lat="44.82993" lon="6.87209">
        <ele>2842.28</ele>
        <time>2018-08-22T10:18:12Z</time>
      </trkpt>
      <trkpt lat="44.82999" lon="6.8721">
        <ele>2845.16</ele>
        <time>2018-08-22T10:18:24Z</time>
      </trkpt>
      <trkpt lat="44.83005" lon="6.87207">
        <ele>2848.04</ele>
        <time>2018-08-22T10:18:37Z</time>
      </trkpt>
      <trkpt lat="44.8301" lon="6.87209">
        <ele>2850.93</ele>
        <time>2018-08-22T10:18:51Z</time>
      </trkpt>
      <trkpt lat="44.83017" lon="6.87208">
        <ele>2852.85</ele>
        <time>2018-08-22T10:19:04Z</time>
      </trkpt>
      <trkpt lat="44.83023" lon="6.87207">
        <ele>2855.73</ele>
        <time>2018-08-22T10:19:16Z</time>
      </trkpt>
      <trkpt lat="44.83031" lon="6.87206">
        <ele>2858.62</ele>
        <time>2018-08-22T10:19:30Z</time>
      </trkpt>
      <trkpt lat="44.83035" lon="6.87203">
        <ele>2861.02</ele>
        <time>2018-08-22T10:19:44Z</time>
      </trkpt>
      <trkpt lat="44.83039" lon="6.87202">
        <ele>2862.94</ele>
        <time>2018-08-22T10:19:54Z</time>
      </trkpt>
      <trkpt lat="44.83043" lon="6.87196">
        <ele>2865.35</ele>
        <time>2018-08-22T10:20:08Z</time>
      </trkpt>
      <trkpt lat="44.83048" lon="6.87191">
        <ele>2867.75</ele>
        <time>2018-08-22T10:20:22Z</time>
      </trkpt>
      <trkpt lat="44.83052" lon="6.87185">
        <ele>2870.63</ele>
        <time>2018-08-22T10:20:35Z</time>
      </trkpt>
      <trkpt lat="44.83056" lon="6.87182">
        <ele>2872.56</ele>
        <time>2018-08-22T10:20:47Z</time>
      </trkpt>
      <trkpt lat="44.83064" lon="6.87181">
        <ele>2875.44</ele>
        <time>2018-08-22T10:20:59Z</time>
      </trkpt>
      <trkpt lat="44.83071" lon="6.87178">
        <ele>2877.36</ele>
        <time>2018-08-22T10:21:12Z</time>
      </trkpt>
      <trkpt lat="44.83079" lon="6.87176">
        <ele>2880.25</ele>
        <time>2018-08-22T10:21:25Z</time>
      </trkpt>
      <trkpt lat="44.83084" lon="6.8717">
        <ele>2882.17</ele>
        <time>2018-08-22T10:21:38Z</time>
      </trkpt>
      <trkpt lat="44.8309" lon="6.87167">
        <ele>2885.05</ele>
        <time>2018-08-22T10:21:51Z</time>
      </trkpt>
      <trkpt lat="44.83093" lon="6.87161">
        <ele>2887.94</ele>
        <time>2018-08-22T10:22:04Z</time>
      </trkpt>
      <trkpt lat="44.83093" lon="6.87151">
        <ele>2890.34</ele>
        <time>2018-08-22T10:22:17Z</time>
      </trkpt>
      <trkpt lat="44.83091" lon="6.87143">
        <ele>2892.74</ele>
        <time>2018-08-22T10:22:28Z</time>
      </trkpt>
      <trkpt lat="44.83097" lon="6.87143">
        <ele>2894.19</ele>
        <time>2018-08-22T10:22:40Z</time>
      </trkpt>
      <trkpt lat="44.83094" lon="6.8714">
        <ele>2893.71</ele>
        <time>2018-08-22T10:22:46Z</time>
      </trkpt>
      <trkpt lat="44.83092" lon="6.87139">
        <ele>2893.71</ele>
        <time>2018-08-22T10:23:06Z</time>
      </trkpt>
      <trkpt lat="44.83092" lon="6.8714">
        <ele>2893.71</ele>
        <time>2018-08-22T10:23:07Z</time>
      </trkpt>
      <trkpt lat="44.83092" lon="6.8714">
        <ele>2893.23</ele>
        <time>2018-08-22T10:23:18Z</time>
      </trkpt>
      <trkpt lat="44.83095" lon="6.8714">
        <ele>2893.71</ele>
        <time>2018-08-22T10:23:54Z</time>
      </trkpt>
      <trkpt lat="44.83095" lon="6.8714">
        <ele>2893.71</ele>
        <time>2018-08-22T10:24:08Z</time>
      </trkpt>
      <trkpt lat="44.83096" lon="6.8714">
        <ele>2895.15</ele>
        <time>2018-08-22T10:24:11Z</time>
      </trkpt>
      <trkpt lat="44.83093" lon="6.8714">
        <ele>2895.15</ele>
        <time>2018-08-22T10:24:23Z</time>
      </trkpt>
      <trkpt lat="44.83089" lon="6.87138">
        <ele>2895.15</ele>
        <time>2018-08-22T10:24:38Z</time>
      </trkpt>
      <trkpt lat="44.83089" lon="6.87138">
        <ele>2893.71</ele>
        <time>2018-08-22T10:24:44Z</time>
      </trkpt>
      <trkpt lat="44.83093" lon="6.87137">
        <ele>2895.15</ele>
        <time>2018-08-22T10:24:58Z</time>
      </trkpt>
      <trkpt lat="44.83092" lon="6.87138">
        <ele>2895.15</ele>
        <time>2018-08-22T10:25:23Z</time>
      </trkpt>
      <trkpt lat="44.83093" lon="6.87139">
        <ele>2895.15</ele>
        <time>2018-08-22T10:25:36Z</time>
      </trkpt>
      <trkpt lat="44.8309" lon="6.87137">
        <ele>2895.63</ele>
        <time>2018-08-22T10:25:50Z</time>
      </trkpt>
      <trkpt lat="44.83092" lon="6.87137">
        <ele>2895.63</ele>
        <time>2018-08-22T10:26:12Z</time>
      </trkpt>
      <trkpt lat="44.83093" lon="6.87136">
        <ele>2895.63</ele>
        <time>2018-08-22T10:26:26Z</time>
      </trkpt>
      <trkpt lat="44.83092" lon="6.87137">
        <ele>2895.63</ele>
        <time>2018-08-22T10:26:40Z</time>
      </trkpt>
      <trkpt lat="44.83089" lon="6.87131">
        <ele>2892.74</ele>
        <time>2018-08-22T10:26:53Z</time>
      </trkpt>
      <trkpt lat="44.83088" lon="6.8713">
        <ele>2892.74</ele>
        <time>2018-08-22T10:26:54Z</time>
      </trkpt>
      <trkpt lat="44.83086" lon="6.87125">
        <ele>2893.71</ele>
        <time>2018-08-22T10:27:05Z</time>
      </trkpt>
      <trkpt lat="44.83085" lon="6.87124">
        <ele>2893.71</ele>
        <time>2018-08-22T10:27:21Z</time>
      </trkpt>
      <trkpt lat="44.83085" lon="6.87124">
        <ele>2893.71</ele>
        <time>2018-08-22T10:27:54Z</time>
      </trkpt>
      <trkpt lat="44.83085" lon="6.87124">
        <ele>2893.71</ele>
        <time>2018-08-22T10:28:11Z</time>
      </trkpt>
      <trkpt lat="44.83085" lon="6.87125">
        <ele>2894.19</ele>
        <time>2018-08-22T10:28:30Z</time>
      </trkpt>
      <trkpt lat="44.83085" lon="6.87125">
        <ele>2894.19</ele>
        <time>2018-08-22T10:29:00Z</time>
      </trkpt>
      <trkpt lat="44.83085" lon="6.87124">
        <ele>2894.19</ele>
        <time>2018-08-22T10:29:31Z</time>
      </trkpt>
      <trkpt lat="44.83086" lon="6.87124">
        <ele>2894.19</ele>
        <time>2018-08-22T10:29:58Z</time>
      </trkpt>
      <trkpt lat="44.83083" lon="6.87127">
        <ele>2893.23</ele>
        <time>2018-08-22T10:30:15Z</time>
      </trkpt>
      <trkpt lat="44.83084" lon="6.87126">
        <ele>2893.23</ele>
        <time>2018-08-22T10:30:40Z</time>
      </trkpt>
      <trkpt lat="44.83084" lon="6.87126">
        <ele>2893.71</ele>
        <time>2018-08-22T10:31:06Z</time>
      </trkpt>
      <trkpt lat="44.83083" lon="6.87127">
        <ele>2893.71</ele>
        <time>2018-08-22T10:31:25Z</time>
      </trkpt>
      <trkpt lat="44.83083" lon="6.87128">
        <ele>2893.71</ele>
        <time>2018-08-22T10:31:46Z</time>
      </trkpt>
      <trkpt lat="44.83083" lon="6.87127">
        <ele>2893.71</ele>
        <time>2018-08-22T10:32:10Z</time>
      </trkpt>
      <trkpt lat="44.83085" lon="6.87126">
        <ele>2894.19</ele>
        <time>2018-08-22T10:32:27Z</time>
      </trkpt>
      <trkpt lat="44.83089" lon="6.87128">
        <ele>2894.19</ele>
        <time>2018-08-22T10:32:43Z</time>
      </trkpt>
      <trkpt lat="44.83093" lon="6.87126">
        <ele>2894.67</ele>
        <time>2018-08-22T10:32:57Z</time>
      </trkpt>
      <trkpt lat="44.83096" lon="6.87124">
        <ele>2893.23</ele>
        <time>2018-08-22T10:33:03Z</time>
      </trkpt>
      <trkpt lat="44.83097" lon="6.87126">
        <ele>2893.23</ele>
        <time>2018-08-22T10:33:18Z</time>
      </trkpt>
      <trkpt lat="44.83097" lon="6.87127">
        <ele>2893.23</ele>
        <time>2018-08-22T10:33:35Z</time>
      </trkpt>
      <trkpt lat="44.83102" lon="6.87127">
        <ele>2893.23</ele>
        <time>2018-08-22T10:33:55Z</time>
      </trkpt>
      <trkpt lat="44.83109" lon="6.87126">
        <ele>2889.86</ele>
        <time>2018-08-22T10:34:10Z</time>
      </trkpt>
      <trkpt lat="44.83111" lon="6.87124">
        <ele>2888.42</ele>
        <time>2018-08-22T10:34:24Z</time>
      </trkpt>
      <trkpt lat="44.83113" lon="6.87122">
        <ele>2886.02</ele>
        <time>2018-08-22T10:34:40Z</time>
      </trkpt>
      <trkpt lat="44.83105" lon="6.87111">
        <ele>2885.05</ele>
        <time>2018-08-22T10:34:56Z</time>
      </trkpt>
      <trkpt lat="44.83103" lon="6.87102">
        <ele>2882.17</ele>
        <time>2018-08-22T10:35:11Z</time>
      </trkpt>
      <trkpt lat="44.83103" lon="6.87093">
        <ele>2879.29</ele>
        <time>2018-08-22T10:35:25Z</time>
      </trkpt>
      <trkpt lat="44.83101" lon="6.87087">
        <ele>2876.4</ele>
        <time>2018-08-22T10:35:36Z</time>
      </trkpt>
      <trkpt lat="44.83102" lon="6.87082">
        <ele>2874.48</ele>
        <time>2018-08-22T10:35:48Z</time>
      </trkpt>
      <trkpt lat="44.83102" lon="6.87077">
        <ele>2872.08</ele>
        <time>2018-08-22T10:36:00Z</time>
      </trkpt>
      <trkpt lat="44.83098" lon="6.87068">
        <ele>2869.19</ele>
        <time>2018-08-22T10:36:14Z</time>
      </trkpt>
      <trkpt lat="44.83095" lon="6.87057">
        <ele>2865.83</ele>
        <time>2018-08-22T10:36:28Z</time>
      </trkpt>
      <trkpt lat="44.83091" lon="6.87047">
        <ele>2863.42</ele>
        <time>2018-08-22T10:36:39Z</time>
      </trkpt>
      <trkpt lat="44.83089" lon="6.87039">
        <ele>2860.54</ele>
        <time>2018-08-22T10:36:52Z</time>
      </trkpt>
      <trkpt lat="44.8309" lon="6.87036">
        <ele>2859.58</ele>
        <time>2018-08-22T10:36:58Z</time>
      </trkpt>
      <trkpt lat="44.83088" lon="6.87028">
        <ele>2857.66</ele>
        <time>2018-08-22T10:37:11Z</time>
      </trkpt>
      <trkpt lat="44.83086" lon="6.87025">
        <ele>2857.18</ele>
        <time>2018-08-22T10:37:14Z</time>
      </trkpt>
      <trkpt lat="44.8308" lon="6.8701">
        <ele>2854.29</ele>
        <time>2018-08-22T10:37:30Z</time>
      </trkpt>
      <trkpt lat="44.83078" lon="6.87001">
        <ele>2850.93</ele>
        <time>2018-08-22T10:37:42Z</time>
      </trkpt>
      <trkpt lat="44.83074" lon="6.86988">
        <ele>2848.04</ele>
        <time>2018-08-22T10:37:55Z</time>
      </trkpt>
      <trkpt lat="44.83072" lon="6.86977">
        <ele>2844.68</ele>
        <time>2018-08-22T10:38:07Z</time>
      </trkpt>
      <trkpt lat="44.83072" lon="6.8697">
        <ele>2842.76</ele>
        <time>2018-08-22T10:38:19Z</time>
      </trkpt>
      <trkpt lat="44.83071" lon="6.86958">
        <ele>2840.35</ele>
        <time>2018-08-22T10:38:35Z</time>
      </trkpt>
      <trkpt lat="44.83068" lon="6.86949">
        <ele>2837.47</ele>
        <time>2018-08-22T10:38:46Z</time>
      </trkpt>
      <trkpt lat="44.83068" lon="6.86947">
        <ele>2836.51</ele>
        <time>2018-08-22T10:38:48Z</time>
      </trkpt>
      <trkpt lat="44.83064" lon="6.86936">
        <ele>2834.1</ele>
        <time>2018-08-22T10:38:58Z</time>
      </trkpt>
      <trkpt lat="44.83054" lon="6.86924">
        <ele>2834.1</ele>
        <time>2018-08-22T10:39:11Z</time>
      </trkpt>
      <trkpt lat="44.83051" lon="6.86915">
        <ele>2833.14</ele>
        <time>2018-08-22T10:39:24Z</time>
      </trkpt>
      <trkpt lat="44.83051" lon="6.86916">
        <ele>2832.66</ele>
        <time>2018-08-22T10:39:53Z</time>
      </trkpt>
      <trkpt lat="44.8305" lon="6.86915">
        <ele>2832.66</ele>
        <time>2018-08-22T10:40:25Z</time>
      </trkpt>
      <trkpt lat="44.83048" lon="6.86915">
        <ele>2832.66</ele>
        <time>2018-08-22T10:41:10Z</time>
      </trkpt>
      <trkpt lat="44.83048" lon="6.86914">
        <ele>2834.1</ele>
        <time>2018-08-22T10:41:37Z</time>
      </trkpt>
      <trkpt lat="44.8305" lon="6.86912">
        <ele>2834.1</ele>
        <time>2018-08-22T10:42:01Z</time>
      </trkpt>
      <trkpt lat="44.83046" lon="6.86905">
        <ele>2834.58</ele>
        <time>2018-08-22T10:42:12Z</time>
      </trkpt>
      <trkpt lat="44.83045" lon="6.86903">
        <ele>2832.66</ele>
        <time>2018-08-22T10:42:16Z</time>
      </trkpt>
      <trkpt lat="44.83043" lon="6.86896">
        <ele>2831.7</ele>
        <time>2018-08-22T10:42:23Z</time>
      </trkpt>
      <trkpt lat="44.83039" lon="6.86886">
        <ele>2830.26</ele>
        <time>2018-08-22T10:42:36Z</time>
      </trkpt>
      <trkpt lat="44.83038" lon="6.86885">
        <ele>2830.26</ele>
        <time>2018-08-22T10:42:38Z</time>
      </trkpt>
      <trkpt lat="44.83038" lon="6.86883">
        <ele>2829.3</ele>
        <time>2018-08-22T10:42:52Z</time>
      </trkpt>
      <trkpt lat="44.83038" lon="6.86883">
        <ele>2829.78</ele>
        <time>2018-08-22T10:43:16Z</time>
      </trkpt>
      <trkpt lat="44.83037" lon="6.86884">
        <ele>2830.26</ele>
        <time>2018-08-22T10:43:33Z</time>
      </trkpt>
      <trkpt lat="44.83037" lon="6.86883">
        <ele>2830.26</ele>
        <time>2018-08-22T10:43:49Z</time>
      </trkpt>
      <trkpt lat="44.83037" lon="6.86881">
        <ele>2830.26</ele>
        <time>2018-08-22T10:44:20Z</time>
      </trkpt>
      <trkpt lat="44.83038" lon="6.86884">
        <ele>2830.26</ele>
        <time>2018-08-22T10:44:45Z</time>
      </trkpt>
      <trkpt lat="44.83042" lon="6.86884">
        <ele>2830.26</ele>
        <time>2018-08-22T10:45:09Z</time>
      </trkpt>
      <trkpt lat="44.83044" lon="6.86885">
        <ele>2829.78</ele>
        <time>2018-08-22T10:45:22Z</time>
      </trkpt>
      <trkpt lat="44.8305" lon="6.86887">
        <ele>2827.85</ele>
        <time>2018-08-22T10:45:33Z</time>
      </trkpt>
      <trkpt lat="44.8306" lon="6.86888">
        <ele>2824.49</ele>
        <time>2018-08-22T10:45:47Z</time>
      </trkpt>
      <trkpt lat="44.83067" lon="6.86892">
        <ele>2822.57</ele>
        <time>2018-08-22T10:46:00Z</time>
      </trkpt>
      <trkpt lat="44.83069" lon="6.86886">
        <ele>2819.68</ele>
        <time>2018-08-22T10:46:13Z</time>
      </trkpt>
      <trkpt lat="44.83072" lon="6.86882">
        <ele>2817.76</ele>
        <time>2018-08-22T10:46:25Z</time>
      </trkpt>
      <trkpt lat="44.8307" lon="6.86876">
        <ele>2815.84</ele>
        <time>2018-08-22T10:46:35Z</time>
      </trkpt>
      <trkpt lat="44.8307" lon="6.86873">
        <ele>2813.92</ele>
        <time>2018-08-22T10:46:48Z</time>
      </trkpt>
      <trkpt lat="44.83071" lon="6.86864">
        <ele>2811.51</ele>
        <time>2018-08-22T10:47:02Z</time>
      </trkpt>
      <trkpt lat="44.83072" lon="6.86858">
        <ele>2808.63</ele>
        <time>2018-08-22T10:47:14Z</time>
      </trkpt>
      <trkpt lat="44.83073" lon="6.86851">
        <ele>2806.71</ele>
        <time>2018-08-22T10:47:26Z</time>
      </trkpt>
      <trkpt lat="44.83072" lon="6.86847">
        <ele>2804.78</ele>
        <time>2018-08-22T10:47:40Z</time>
      </trkpt>
      <trkpt lat="44.83075" lon="6.86841">
        <ele>2802.38</ele>
        <time>2018-08-22T10:47:54Z</time>
      </trkpt>
      <trkpt lat="44.83071" lon="6.8683">
        <ele>2799.98</ele>
        <time>2018-08-22T10:48:07Z</time>
      </trkpt>
      <trkpt lat="44.8307" lon="6.8682">
        <ele>2796.61</ele>
        <time>2018-08-22T10:48:22Z</time>
      </trkpt>
      <trkpt lat="44.83069" lon="6.86811">
        <ele>2794.69</ele>
        <time>2018-08-22T10:48:34Z</time>
      </trkpt>
      <trkpt lat="44.83071" lon="6.86804">
        <ele>2791.81</ele>
        <time>2018-08-22T10:48:48Z</time>
      </trkpt>
      <trkpt lat="44.83071" lon="6.86798">
        <ele>2789.4</ele>
        <time>2018-08-22T10:49:00Z</time>
      </trkpt>
      <trkpt lat="44.83073" lon="6.8679">
        <ele>2786.04</ele>
        <time>2018-08-22T10:49:11Z</time>
      </trkpt>
      <trkpt lat="44.83077" lon="6.8678">
        <ele>2783.15</ele>
        <time>2018-08-22T10:49:24Z</time>
      </trkpt>
      <trkpt lat="44.83076" lon="6.86773">
        <ele>2780.27</ele>
        <time>2018-08-22T10:49:34Z</time>
      </trkpt>
      <trkpt lat="44.83076" lon="6.86764">
        <ele>2778.83</ele>
        <time>2018-08-22T10:49:44Z</time>
      </trkpt>
      <trkpt lat="44.83078" lon="6.86752">
        <ele>2775.46</ele>
        <time>2018-08-22T10:49:56Z</time>
      </trkpt>
      <trkpt lat="44.83079" lon="6.86744">
        <ele>2772.58</ele>
        <time>2018-08-22T10:50:09Z</time>
      </trkpt>
      <trkpt lat="44.83084" lon="6.86737">
        <ele>2769.21</ele>
        <time>2018-08-22T10:50:21Z</time>
      </trkpt>
      <trkpt lat="44.83087" lon="6.86733">
        <ele>2767.29</ele>
        <time>2018-08-22T10:50:32Z</time>
      </trkpt>
      <trkpt lat="44.83091" lon="6.86721">
        <ele>2763.93</ele>
        <time>2018-08-22T10:50:46Z</time>
      </trkpt>
      <trkpt lat="44.83098" lon="6.86721">
        <ele>2760.56</ele>
        <time>2018-08-22T10:50:58Z</time>
      </trkpt>
      <trkpt lat="44.83102" lon="6.86719">
        <ele>2757.68</ele>
        <time>2018-08-22T10:51:08Z</time>
      </trkpt>
      <trkpt lat="44.831" lon="6.86706">
        <ele>2755.76</ele>
        <time>2018-08-22T10:51:21Z</time>
      </trkpt>
      <trkpt lat="44.83105" lon="6.867">
        <ele>2752.87</ele>
        <time>2018-08-22T10:51:32Z</time>
      </trkpt>
      <trkpt lat="44.83109" lon="6.86696">
        <ele>2749.99</ele>
        <time>2018-08-22T10:51:45Z</time>
      </trkpt>
      <trkpt lat="44.83113" lon="6.86693">
        <ele>2747.59</ele>
        <time>2018-08-22T10:51:57Z</time>
      </trkpt>
      <trkpt lat="44.83114" lon="6.86694">
        <ele>2747.59</ele>
        <time>2018-08-22T10:51:58Z</time>
      </trkpt>
      <trkpt lat="44.83122" lon="6.86695">
        <ele>2744.7</ele>
        <time>2018-08-22T10:52:10Z</time>
      </trkpt>
      <trkpt lat="44.83126" lon="6.8669">
        <ele>2741.82</ele>
        <time>2018-08-22T10:52:21Z</time>
      </trkpt>
      <trkpt lat="44.83132" lon="6.86688">
        <ele>2738.93</ele>
        <time>2018-08-22T10:52:34Z</time>
      </trkpt>
      <trkpt lat="44.83138" lon="6.86683">
        <ele>2735.09</ele>
        <time>2018-08-22T10:52:47Z</time>
      </trkpt>
      <trkpt lat="44.83143" lon="6.86676">
        <ele>2732.68</ele>
        <time>2018-08-22T10:53:00Z</time>
      </trkpt>
      <trkpt lat="44.83146" lon="6.8667">
        <ele>2730.28</ele>
        <time>2018-08-22T10:53:11Z</time>
      </trkpt>
      <trkpt lat="44.83153" lon="6.8667">
        <ele>2726.92</ele>
        <time>2018-08-22T10:53:21Z</time>
      </trkpt>
      <trkpt lat="44.83164" lon="6.86668">
        <ele>2723.55</ele>
        <time>2018-08-22T10:53:35Z</time>
      </trkpt>
      <trkpt lat="44.83167" lon="6.86661">
        <ele>2720.19</ele>
        <time>2018-08-22T10:53:47Z</time>
      </trkpt>
      <trkpt lat="44.83167" lon="6.8665">
        <ele>2716.82</ele>
        <time>2018-08-22T10:53:59Z</time>
      </trkpt>
      <trkpt lat="44.83173" lon="6.86646">
        <ele>2714.42</ele>
        <time>2018-08-22T10:54:12Z</time>
      </trkpt>
      <trkpt lat="44.83172" lon="6.86633">
        <ele>2711.06</ele>
        <time>2018-08-22T10:54:25Z</time>
      </trkpt>
      <trkpt lat="44.83178" lon="6.86626">
        <ele>2707.69</ele>
        <time>2018-08-22T10:54:38Z</time>
      </trkpt>
      <trkpt lat="44.83176" lon="6.86618">
        <ele>2704.81</ele>
        <time>2018-08-22T10:54:51Z</time>
      </trkpt>
      <trkpt lat="44.8318" lon="6.86611">
        <ele>2702.4</ele>
        <time>2018-08-22T10:55:04Z</time>
      </trkpt>
      <trkpt lat="44.83184" lon="6.86606">
        <ele>2699.52</ele>
        <time>2018-08-22T10:55:15Z</time>
      </trkpt>
      <trkpt lat="44.83188" lon="6.86599">
        <ele>2696.64</ele>
        <time>2018-08-22T10:55:28Z</time>
      </trkpt>
      <trkpt lat="44.83192" lon="6.86592">
        <ele>2694.23</ele>
        <time>2018-08-22T10:55:39Z</time>
      </trkpt>
      <trkpt lat="44.83201" lon="6.86589">
        <ele>2690.87</ele>
        <time>2018-08-22T10:55:52Z</time>
      </trkpt>
      <trkpt lat="44.83199" lon="6.86588">
        <ele>2689.91</ele>
        <time>2018-08-22T10:56:05Z</time>
      </trkpt>
      <trkpt lat="44.83199" lon="6.86589">
        <ele>2689.91</ele>
        <time>2018-08-22T10:56:22Z</time>
      </trkpt>
      <trkpt lat="44.83199" lon="6.86588">
        <ele>2688.94</ele>
        <time>2018-08-22T10:57:03Z</time>
      </trkpt>
      <trkpt lat="44.832" lon="6.86587">
        <ele>2688.94</ele>
        <time>2018-08-22T10:57:23Z</time>
      </trkpt>
      <trkpt lat="44.83197" lon="6.86589">
        <ele>2690.39</ele>
        <time>2018-08-22T10:57:47Z</time>
      </trkpt>
      <trkpt lat="44.832" lon="6.86589">
        <ele>2689.91</ele>
        <time>2018-08-22T10:58:11Z</time>
      </trkpt>
      <trkpt lat="44.83198" lon="6.8658">
        <ele>2688.46</ele>
        <time>2018-08-22T10:58:22Z</time>
      </trkpt>
      <trkpt lat="44.83202" lon="6.86571">
        <ele>2685.58</ele>
        <time>2018-08-22T10:58:33Z</time>
      </trkpt>
      <trkpt lat="44.8321" lon="6.86562">
        <ele>2682.7</ele>
        <time>2018-08-22T10:58:45Z</time>
      </trkpt>
      <trkpt lat="44.83211" lon="6.86562">
        <ele>2682.22</ele>
        <time>2018-08-22T10:58:46Z</time>
      </trkpt>
      <trkpt lat="44.83216" lon="6.86554">
        <ele>2680.29</ele>
        <time>2018-08-22T10:58:56Z</time>
      </trkpt>
      <trkpt lat="44.83221" lon="6.86553">
        <ele>2678.37</ele>
        <time>2018-08-22T10:59:03Z</time>
      </trkpt>
      <trkpt lat="44.83225" lon="6.8655">
        <ele>2676.93</ele>
        <time>2018-08-22T10:59:15Z</time>
      </trkpt>
      <trkpt lat="44.83228" lon="6.86545">
        <ele>2675.49</ele>
        <time>2018-08-22T10:59:27Z</time>
      </trkpt>
      <trkpt lat="44.83236" lon="6.86538">
        <ele>2673.08</ele>
        <time>2018-08-22T10:59:40Z</time>
      </trkpt>
      <trkpt lat="44.83246" lon="6.86535">
        <ele>2670.68</ele>
        <time>2018-08-22T10:59:53Z</time>
      </trkpt>
      <trkpt lat="44.83258" lon="6.86528">
        <ele>2668.28</ele>
        <time>2018-08-22T11:00:06Z</time>
      </trkpt>
      <trkpt lat="44.83262" lon="6.86522">
        <ele>2667.31</ele>
        <time>2018-08-22T11:00:12Z</time>
      </trkpt>
      <trkpt lat="44.83262" lon="6.86521">
        <ele>2667.8</ele>
        <time>2018-08-22T11:00:13Z</time>
      </trkpt>
      <trkpt lat="44.83262" lon="6.86502">
        <ele>2665.87</ele>
        <time>2018-08-22T11:00:28Z</time>
      </trkpt>
      <trkpt lat="44.83261" lon="6.86496">
        <ele>2664.91</ele>
        <time>2018-08-22T11:00:34Z</time>
      </trkpt>
      <trkpt lat="44.83258" lon="6.86488">
        <ele>2664.43</ele>
        <time>2018-08-22T11:00:48Z</time>
      </trkpt>
      <trkpt lat="44.83257" lon="6.86481">
        <ele>2662.99</ele>
        <time>2018-08-22T11:01:00Z</time>
      </trkpt>
      <trkpt lat="44.83256" lon="6.86477">
        <ele>2661.07</ele>
        <time>2018-08-22T11:01:06Z</time>
      </trkpt>
      <trkpt lat="44.83257" lon="6.86475">
        <ele>2660.59</ele>
        <time>2018-08-22T11:01:07Z</time>
      </trkpt>
      <trkpt lat="44.83258" lon="6.86468">
        <ele>2658.66</ele>
        <time>2018-08-22T11:01:13Z</time>
      </trkpt>
      <trkpt lat="44.83262" lon="6.86455">
        <ele>2655.3</ele>
        <time>2018-08-22T11:01:25Z</time>
      </trkpt>
      <trkpt lat="44.83263" lon="6.86449">
        <ele>2654.34</ele>
        <time>2018-08-22T11:01:30Z</time>
      </trkpt>
      <trkpt lat="44.83264" lon="6.86448">
        <ele>2654.34</ele>
        <time>2018-08-22T11:01:31Z</time>
      </trkpt>
      <trkpt lat="44.83266" lon="6.86439">
        <ele>2652.42</ele>
        <time>2018-08-22T11:01:40Z</time>
      </trkpt>
      <trkpt lat="44.83268" lon="6.86435">
        <ele>2651.45</ele>
        <time>2018-08-22T11:01:43Z</time>
      </trkpt>
      <trkpt lat="44.83273" lon="6.86425">
        <ele>2648.09</ele>
        <time>2018-08-22T11:01:55Z</time>
      </trkpt>
      <trkpt lat="44.83273" lon="6.86423">
        <ele>2647.61</ele>
        <time>2018-08-22T11:01:59Z</time>
      </trkpt>
      <trkpt lat="44.83272" lon="6.86418">
        <ele>2646.65</ele>
        <time>2018-08-22T11:02:07Z</time>
      </trkpt>
      <trkpt lat="44.83272" lon="6.86416">
        <ele>2646.17</ele>
        <time>2018-08-22T11:02:08Z</time>
      </trkpt>
      <trkpt lat="44.83272" lon="6.86406">
        <ele>2642.8</ele>
        <time>2018-08-22T11:02:20Z</time>
      </trkpt>
      <trkpt lat="44.83273" lon="6.86393">
        <ele>2639.92</ele>
        <time>2018-08-22T11:02:30Z</time>
      </trkpt>
      <trkpt lat="44.83282" lon="6.8638">
        <ele>2636.07</ele>
        <time>2018-08-22T11:02:45Z</time>
      </trkpt>
      <trkpt lat="44.83282" lon="6.86377">
        <ele>2635.59</ele>
        <time>2018-08-22T11:02:47Z</time>
      </trkpt>
      <trkpt lat="44.83277" lon="6.86362">
        <ele>2632.71</ele>
        <time>2018-08-22T11:02:59Z</time>
      </trkpt>
      <trkpt lat="44.83273" lon="6.86358">
        <ele>2631.75</ele>
        <time>2018-08-22T11:03:03Z</time>
      </trkpt>
      <trkpt lat="44.83267" lon="6.86354">
        <ele>2629.82</ele>
        <time>2018-08-22T11:03:09Z</time>
      </trkpt>
      <trkpt lat="44.83266" lon="6.86353">
        <ele>2629.34</ele>
        <time>2018-08-22T11:03:10Z</time>
      </trkpt>
      <trkpt lat="44.83265" lon="6.86353">
        <ele>2629.34</ele>
        <time>2018-08-22T11:03:11Z</time>
      </trkpt>
      <trkpt lat="44.83264" lon="6.86352">
        <ele>2629.34</ele>
        <time>2018-08-22T11:03:12Z</time>
      </trkpt>
      <trkpt lat="44.83258" lon="6.86337">
        <ele>2626.46</ele>
        <time>2018-08-22T11:03:25Z</time>
      </trkpt>
      <trkpt lat="44.83257" lon="6.86334">
        <ele>2626.46</ele>
        <time>2018-08-22T11:03:27Z</time>
      </trkpt>
      <trkpt lat="44.83257" lon="6.86331">
        <ele>2625.98</ele>
        <time>2018-08-22T11:03:29Z</time>
      </trkpt>
      <trkpt lat="44.83259" lon="6.86324">
        <ele>2624.54</ele>
        <time>2018-08-22T11:03:35Z</time>
      </trkpt>
      <trkpt lat="44.83258" lon="6.86323">
        <ele>2624.54</ele>
        <time>2018-08-22T11:03:36Z</time>
      </trkpt>
      <trkpt lat="44.83255" lon="6.86303">
        <ele>2621.17</ele>
        <time>2018-08-22T11:03:50Z</time>
      </trkpt>
      <trkpt lat="44.83262" lon="6.86296">
        <ele>2618.29</ele>
        <time>2018-08-22T11:04:03Z</time>
      </trkpt>
      <trkpt lat="44.83267" lon="6.86296">
        <ele>2616.85</ele>
        <time>2018-08-22T11:04:09Z</time>
      </trkpt>
      <trkpt lat="44.83268" lon="6.86296">
        <ele>2616.37</ele>
        <time>2018-08-22T11:04:22Z</time>
      </trkpt>
      <trkpt lat="44.83268" lon="6.86296">
        <ele>2616.37</ele>
        <time>2018-08-22T11:04:44Z</time>
      </trkpt>
      <trkpt lat="44.83268" lon="6.86295">
        <ele>2616.37</ele>
        <time>2018-08-22T11:05:06Z</time>
      </trkpt>
      <trkpt lat="44.83266" lon="6.86297">
        <ele>2616.37</ele>
        <time>2018-08-22T11:05:33Z</time>
      </trkpt>
      <trkpt lat="44.83273" lon="6.86301">
        <ele>2614.92</ele>
        <time>2018-08-22T11:05:42Z</time>
      </trkpt>
      <trkpt lat="44.83275" lon="6.86302">
        <ele>2614.44</ele>
        <time>2018-08-22T11:05:43Z</time>
      </trkpt>
      <trkpt lat="44.83282" lon="6.86306">
        <ele>2613.96</ele>
        <time>2018-08-22T11:05:49Z</time>
      </trkpt>
      <trkpt lat="44.83285" lon="6.86306">
        <ele>2613.48</ele>
        <time>2018-08-22T11:05:52Z</time>
      </trkpt>
      <trkpt lat="44.83287" lon="6.86305">
        <ele>2613</ele>
        <time>2018-08-22T11:05:54Z</time>
      </trkpt>
      <trkpt lat="44.83295" lon="6.86298">
        <ele>2610.6</ele>
        <time>2018-08-22T11:06:05Z</time>
      </trkpt>
      <trkpt lat="44.83302" lon="6.86297">
        <ele>2609.16</ele>
        <time>2018-08-22T11:06:14Z</time>
      </trkpt>
      <trkpt lat="44.83313" lon="6.86293">
        <ele>2606.27</ele>
        <time>2018-08-22T11:06:27Z</time>
      </trkpt>
      <trkpt lat="44.83321" lon="6.8629">
        <ele>2605.31</ele>
        <time>2018-08-22T11:06:35Z</time>
      </trkpt>
      <trkpt lat="44.83322" lon="6.8629">
        <ele>2605.31</ele>
        <time>2018-08-22T11:06:36Z</time>
      </trkpt>
      <trkpt lat="44.83333" lon="6.86282">
        <ele>2601.95</ele>
        <time>2018-08-22T11:06:49Z</time>
      </trkpt>
      <trkpt lat="44.83336" lon="6.86276">
        <ele>2600.98</ele>
        <time>2018-08-22T11:06:54Z</time>
      </trkpt>
      <trkpt lat="44.83336" lon="6.86274">
        <ele>2600.5</ele>
        <time>2018-08-22T11:06:55Z</time>
      </trkpt>
      <trkpt lat="44.83336" lon="6.86272">
        <ele>2600.5</ele>
        <time>2018-08-22T11:06:56Z</time>
      </trkpt>
      <trkpt lat="44.83337" lon="6.86271">
        <ele>2600.5</ele>
        <time>2018-08-22T11:06:57Z</time>
      </trkpt>
      <trkpt lat="44.83338" lon="6.8627">
        <ele>2600.5</ele>
        <time>2018-08-22T11:06:58Z</time>
      </trkpt>
      <trkpt lat="44.83339" lon="6.86269">
        <ele>2600.02</ele>
        <time>2018-08-22T11:06:59Z</time>
      </trkpt>
      <trkpt lat="44.83343" lon="6.86267">
        <ele>2600.02</ele>
        <time>2018-08-22T11:07:02Z</time>
      </trkpt>
      <trkpt lat="44.83346" lon="6.86258">
        <ele>2598.58</ele>
        <time>2018-08-22T11:07:11Z</time>
      </trkpt>
      <trkpt lat="44.8335" lon="6.86232">
        <ele>2595.7</ele>
        <time>2018-08-22T11:07:28Z</time>
      </trkpt>
      <trkpt lat="44.83354" lon="6.86206">
        <ele>2592.33</ele>
        <time>2018-08-22T11:07:46Z</time>
      </trkpt>
      <trkpt lat="44.83352" lon="6.86186">
        <ele>2588.97</ele>
        <time>2018-08-22T11:08:00Z</time>
      </trkpt>
      <trkpt lat="44.83351" lon="6.8618">
        <ele>2588.49</ele>
        <time>2018-08-22T11:08:04Z</time>
      </trkpt>
      <trkpt lat="44.83351" lon="6.86178">
        <ele>2588.49</ele>
        <time>2018-08-22T11:08:05Z</time>
      </trkpt>
      <trkpt lat="44.83351" lon="6.86177">
        <ele>2588.01</ele>
        <time>2018-08-22T11:08:06Z</time>
      </trkpt>
      <trkpt lat="44.83346" lon="6.86157">
        <ele>2585.12</ele>
        <time>2018-08-22T11:08:21Z</time>
      </trkpt>
      <trkpt lat="44.83346" lon="6.86155">
        <ele>2584.64</ele>
        <time>2018-08-22T11:08:22Z</time>
      </trkpt>
      <trkpt lat="44.83343" lon="6.86154">
        <ele>2583.2</ele>
        <time>2018-08-22T11:08:25Z</time>
      </trkpt>
      <trkpt lat="44.83339" lon="6.86151">
        <ele>2582.72</ele>
        <time>2018-08-22T11:08:29Z</time>
      </trkpt>
      <trkpt lat="44.83339" lon="6.86149">
        <ele>2582.24</ele>
        <time>2018-08-22T11:08:30Z</time>
      </trkpt>
      <trkpt lat="44.83337" lon="6.86142">
        <ele>2581.28</ele>
        <time>2018-08-22T11:08:36Z</time>
      </trkpt>
      <trkpt lat="44.83336" lon="6.86139">
        <ele>2580.32</ele>
        <time>2018-08-22T11:08:38Z</time>
      </trkpt>
      <trkpt lat="44.83335" lon="6.86135">
        <ele>2579.35</ele>
        <time>2018-08-22T11:08:42Z</time>
      </trkpt>
      <trkpt lat="44.8334" lon="6.86121">
        <ele>2575.51</ele>
        <time>2018-08-22T11:08:54Z</time>
      </trkpt>
      <trkpt lat="44.83343" lon="6.86111">
        <ele>2573.59</ele>
        <time>2018-08-22T11:09:02Z</time>
      </trkpt>
      <trkpt lat="44.83346" lon="6.86103">
        <ele>2571.18</ele>
        <time>2018-08-22T11:09:10Z</time>
      </trkpt>
      <trkpt lat="44.83347" lon="6.86102">
        <ele>2570.7</ele>
        <time>2018-08-22T11:09:11Z</time>
      </trkpt>
      <trkpt lat="44.83351" lon="6.86086">
        <ele>2568.3</ele>
        <time>2018-08-22T11:09:26Z</time>
      </trkpt>
      <trkpt lat="44.83352" lon="6.86083">
        <ele>2567.34</ele>
        <time>2018-08-22T11:09:28Z</time>
      </trkpt>
      <trkpt lat="44.83354" lon="6.86079">
        <ele>2566.38</ele>
        <time>2018-08-22T11:09:31Z</time>
      </trkpt>
      <trkpt lat="44.83356" lon="6.86077">
        <ele>2565.42</ele>
        <time>2018-08-22T11:09:34Z</time>
      </trkpt>
      <trkpt lat="44.83358" lon="6.86073">
        <ele>2564.45</ele>
        <time>2018-08-22T11:09:37Z</time>
      </trkpt>
      <trkpt lat="44.83361" lon="6.8607">
        <ele>2563.01</ele>
        <time>2018-08-22T11:09:41Z</time>
      </trkpt>
      <trkpt lat="44.83362" lon="6.86067">
        <ele>2561.57</ele>
        <time>2018-08-22T11:09:45Z</time>
      </trkpt>
      <trkpt lat="44.83364" lon="6.86058">
        <ele>2559.17</ele>
        <time>2018-08-22T11:09:51Z</time>
      </trkpt>
      <trkpt lat="44.83362" lon="6.86046">
        <ele>2555.8</ele>
        <time>2018-08-22T11:10:02Z</time>
      </trkpt>
      <trkpt lat="44.83356" lon="6.86042">
        <ele>2554.36</ele>
        <time>2018-08-22T11:10:06Z</time>
      </trkpt>
      <trkpt lat="44.83352" lon="6.86038">
        <ele>2553.4</ele>
        <time>2018-08-22T11:10:11Z</time>
      </trkpt>
      <trkpt lat="44.8335" lon="6.86034">
        <ele>2552.44</ele>
        <time>2018-08-22T11:10:14Z</time>
      </trkpt>
      <trkpt lat="44.8335" lon="6.86027">
        <ele>2551</ele>
        <time>2018-08-22T11:10:19Z</time>
      </trkpt>
      <trkpt lat="44.83355" lon="6.86017">
        <ele>2548.11</ele>
        <time>2018-08-22T11:10:28Z</time>
      </trkpt>
      <trkpt lat="44.83363" lon="6.86008">
        <ele>2544.75</ele>
        <time>2018-08-22T11:10:38Z</time>
      </trkpt>
      <trkpt lat="44.83366" lon="6.86003">
        <ele>2543.79</ele>
        <time>2018-08-22T11:10:43Z</time>
      </trkpt>
      <trkpt lat="44.83367" lon="6.86002">
        <ele>2542.82</ele>
        <time>2018-08-22T11:10:44Z</time>
      </trkpt>
      <trkpt lat="44.83367" lon="6.86">
        <ele>2542.82</ele>
        <time>2018-08-22T11:10:45Z</time>
      </trkpt>
      <trkpt lat="44.83369" lon="6.85998">
        <ele>2542.34</ele>
        <time>2018-08-22T11:10:47Z</time>
      </trkpt>
      <trkpt lat="44.8337" lon="6.85998">
        <ele>2541.86</ele>
        <time>2018-08-22T11:10:48Z</time>
      </trkpt>
      <trkpt lat="44.83376" lon="6.85992">
        <ele>2540.42</ele>
        <time>2018-08-22T11:10:55Z</time>
      </trkpt>
      <trkpt lat="44.83376" lon="6.8599">
        <ele>2539.46</ele>
        <time>2018-08-22T11:10:56Z</time>
      </trkpt>
      <trkpt lat="44.8338" lon="6.85979">
        <ele>2536.58</ele>
        <time>2018-08-22T11:11:06Z</time>
      </trkpt>
      <trkpt lat="44.8338" lon="6.85978">
        <ele>2536.58</ele>
        <time>2018-08-22T11:11:07Z</time>
      </trkpt>
      <trkpt lat="44.83381" lon="6.85967">
        <ele>2534.17</ele>
        <time>2018-08-22T11:11:16Z</time>
      </trkpt>
      <trkpt lat="44.83382" lon="6.85961">
        <ele>2533.21</ele>
        <time>2018-08-22T11:11:20Z</time>
      </trkpt>
      <trkpt lat="44.83389" lon="6.85945">
        <ele>2529.85</ele>
        <time>2018-08-22T11:11:33Z</time>
      </trkpt>
      <trkpt lat="44.8339" lon="6.85944">
        <ele>2529.85</ele>
        <time>2018-08-22T11:11:34Z</time>
      </trkpt>
      <trkpt lat="44.8339" lon="6.85939">
        <ele>2528.89</ele>
        <time>2018-08-22T11:11:45Z</time>
      </trkpt>
      <trkpt lat="44.83387" lon="6.85939">
        <ele>2528.89</ele>
        <time>2018-08-22T11:12:10Z</time>
      </trkpt>
      <trkpt lat="44.83388" lon="6.8594">
        <ele>2528.89</ele>
        <time>2018-08-22T11:12:33Z</time>
      </trkpt>
      <trkpt lat="44.83388" lon="6.85939">
        <ele>2528.4</ele>
        <time>2018-08-22T11:13:02Z</time>
      </trkpt>
      <trkpt lat="44.83388" lon="6.85939">
        <ele>2528.4</ele>
        <time>2018-08-22T11:13:29Z</time>
      </trkpt>
      <trkpt lat="44.83389" lon="6.85941">
        <ele>2528.4</ele>
        <time>2018-08-22T11:14:03Z</time>
      </trkpt>
      <trkpt lat="44.8339" lon="6.85942">
        <ele>2527.92</ele>
        <time>2018-08-22T11:14:26Z</time>
      </trkpt>
      <trkpt lat="44.83389" lon="6.8594">
        <ele>2527.92</ele>
        <time>2018-08-22T11:14:45Z</time>
      </trkpt>
      <trkpt lat="44.83391" lon="6.85934">
        <ele>2527.92</ele>
        <time>2018-08-22T11:14:52Z</time>
      </trkpt>
      <trkpt lat="44.83398" lon="6.85918">
        <ele>2525.04</ele>
        <time>2018-08-22T11:15:06Z</time>
      </trkpt>
      <trkpt lat="44.83398" lon="6.85902">
        <ele>2522.64</ele>
        <time>2018-08-22T11:15:18Z</time>
      </trkpt>
      <trkpt lat="44.83401" lon="6.85893">
        <ele>2521.68</ele>
        <time>2018-08-22T11:15:29Z</time>
      </trkpt>
      <trkpt lat="44.83403" lon="6.85889">
        <ele>2521.19</ele>
        <time>2018-08-22T11:15:32Z</time>
      </trkpt>
      <trkpt lat="44.83404" lon="6.85886">
        <ele>2520.23</ele>
        <time>2018-08-22T11:15:35Z</time>
      </trkpt>
      <trkpt lat="44.83404" lon="6.85884">
        <ele>2520.23</ele>
        <time>2018-08-22T11:15:36Z</time>
      </trkpt>
      <trkpt lat="44.83404" lon="6.85883">
        <ele>2520.23</ele>
        <time>2018-08-22T11:15:37Z</time>
      </trkpt>
      <trkpt lat="44.83405" lon="6.85881">
        <ele>2520.23</ele>
        <time>2018-08-22T11:15:38Z</time>
      </trkpt>
      <trkpt lat="44.83405" lon="6.8588">
        <ele>2519.75</ele>
        <time>2018-08-22T11:15:39Z</time>
      </trkpt>
      <trkpt lat="44.83407" lon="6.85866">
        <ele>2517.83</ele>
        <time>2018-08-22T11:15:51Z</time>
      </trkpt>
      <trkpt lat="44.83407" lon="6.8585">
        <ele>2516.39</ele>
        <time>2018-08-22T11:16:03Z</time>
      </trkpt>
      <trkpt lat="44.83406" lon="6.85835">
        <ele>2513.98</ele>
        <time>2018-08-22T11:16:15Z</time>
      </trkpt>
      <trkpt lat="44.83404" lon="6.8583">
        <ele>2513.98</ele>
        <time>2018-08-22T11:16:18Z</time>
      </trkpt>
      <trkpt lat="44.83404" lon="6.85828">
        <ele>2513.98</ele>
        <time>2018-08-22T11:16:19Z</time>
      </trkpt>
      <trkpt lat="44.83405" lon="6.85826">
        <ele>2513.98</ele>
        <time>2018-08-22T11:16:20Z</time>
      </trkpt>
      <trkpt lat="44.83405" lon="6.85824">
        <ele>2513.02</ele>
        <time>2018-08-22T11:16:21Z</time>
      </trkpt>
      <trkpt lat="44.83406" lon="6.85823">
        <ele>2513.02</ele>
        <time>2018-08-22T11:16:22Z</time>
      </trkpt>
      <trkpt lat="44.83406" lon="6.85821">
        <ele>2512.54</ele>
        <time>2018-08-22T11:16:23Z</time>
      </trkpt>
      <trkpt lat="44.8341" lon="6.85796">
        <ele>2509.66</ele>
        <time>2018-08-22T11:16:39Z</time>
      </trkpt>
      <trkpt lat="44.83416" lon="6.85769">
        <ele>2507.74</ele>
        <time>2018-08-22T11:16:56Z</time>
      </trkpt>
      <trkpt lat="44.83423" lon="6.85753">
        <ele>2506.77</ele>
        <time>2018-08-22T11:17:08Z</time>
      </trkpt>
      <trkpt lat="44.83435" lon="6.85738">
        <ele>2506.29</ele>
        <time>2018-08-22T11:17:21Z</time>
      </trkpt>
      <trkpt lat="44.83434" lon="6.85725">
        <ele>2504.85</ele>
        <time>2018-08-22T11:17:29Z</time>
      </trkpt>
      <trkpt lat="44.83437" lon="6.85693">
        <ele>2504.37</ele>
        <time>2018-08-22T11:17:47Z</time>
      </trkpt>
      <trkpt lat="44.83442" lon="6.85665">
        <ele>2502.93</ele>
        <time>2018-08-22T11:18:05Z</time>
      </trkpt>
      <trkpt lat="44.83448" lon="6.85653">
        <ele>2501.49</ele>
        <time>2018-08-22T11:18:13Z</time>
      </trkpt>
      <trkpt lat="44.8345" lon="6.85647">
        <ele>2500.53</ele>
        <time>2018-08-22T11:18:18Z</time>
      </trkpt>
      <trkpt lat="44.83466" lon="6.85629">
        <ele>2499.57</ele>
        <time>2018-08-22T11:18:35Z</time>
      </trkpt>
      <trkpt lat="44.83478" lon="6.85621">
        <ele>2499.57</ele>
        <time>2018-08-22T11:18:48Z</time>
      </trkpt>
      <trkpt lat="44.83491" lon="6.85626">
        <ele>2498.6</ele>
        <time>2018-08-22T11:19:03Z</time>
      </trkpt>
      <trkpt lat="44.83493" lon="6.85632">
        <ele>2498.6</ele>
        <time>2018-08-22T11:19:07Z</time>
      </trkpt>
      <trkpt lat="44.83494" lon="6.85633">
        <ele>2498.6</ele>
        <time>2018-08-22T11:19:09Z</time>
      </trkpt>
      <trkpt lat="44.83508" lon="6.85638">
        <ele>2498.6</ele>
        <time>2018-08-22T11:19:24Z</time>
      </trkpt>
      <trkpt lat="44.83509" lon="6.85641">
        <ele>2498.6</ele>
        <time>2018-08-22T11:19:33Z</time>
      </trkpt>
      <trkpt lat="44.83509" lon="6.85642">
        <ele>2498.6</ele>
        <time>2018-08-22T11:19:47Z</time>
      </trkpt>
      <trkpt lat="44.83512" lon="6.85642">
        <ele>2498.6</ele>
        <time>2018-08-22T11:19:58Z</time>
      </trkpt>
      <trkpt lat="44.83509" lon="6.85645">
        <ele>2498.12</ele>
        <time>2018-08-22T11:20:12Z</time>
      </trkpt>
      <trkpt lat="44.83509" lon="6.85644">
        <ele>2498.12</ele>
        <time>2018-08-22T11:20:42Z</time>
      </trkpt>
      <trkpt lat="44.8351" lon="6.85643">
        <ele>2497.64</ele>
        <time>2018-08-22T11:21:12Z</time>
      </trkpt>
      <trkpt lat="44.8351" lon="6.85645">
        <ele>2497.64</ele>
        <time>2018-08-22T11:21:40Z</time>
      </trkpt>
      <trkpt lat="44.83512" lon="6.85645">
        <ele>2497.64</ele>
        <time>2018-08-22T11:22:05Z</time>
      </trkpt>
      <trkpt lat="44.83511" lon="6.85646">
        <ele>2497.64</ele>
        <time>2018-08-22T11:22:50Z</time>
      </trkpt>
      <trkpt lat="44.83512" lon="6.85649">
        <ele>2497.16</ele>
        <time>2018-08-22T11:23:26Z</time>
      </trkpt>
      <trkpt lat="44.83511" lon="6.85649">
        <ele>2497.16</ele>
        <time>2018-08-22T11:24:00Z</time>
      </trkpt>
      <trkpt lat="44.8351" lon="6.85653">
        <ele>2496.68</ele>
        <time>2018-08-22T11:24:43Z</time>
      </trkpt>
      <trkpt lat="44.83513" lon="6.85652">
        <ele>2496.68</ele>
        <time>2018-08-22T11:25:23Z</time>
      </trkpt>
      <trkpt lat="44.83511" lon="6.85653">
        <ele>2496.2</ele>
        <time>2018-08-22T11:25:56Z</time>
      </trkpt>
      <trkpt lat="44.83511" lon="6.85651">
        <ele>2496.2</ele>
        <time>2018-08-22T11:26:38Z</time>
      </trkpt>
      <trkpt lat="44.83512" lon="6.85651">
        <ele>2495.72</ele>
        <time>2018-08-22T11:27:16Z</time>
      </trkpt>
      <trkpt lat="44.83511" lon="6.85652">
        <ele>2495.72</ele>
        <time>2018-08-22T11:27:53Z</time>
      </trkpt>
      <trkpt lat="44.83511" lon="6.85652">
        <ele>2495.24</ele>
        <time>2018-08-22T11:28:28Z</time>
      </trkpt>
      <trkpt lat="44.83513" lon="6.85651">
        <ele>2495.24</ele>
        <time>2018-08-22T11:29:04Z</time>
      </trkpt>
      <trkpt lat="44.83511" lon="6.8565">
        <ele>2494.76</ele>
        <time>2018-08-22T11:29:37Z</time>
      </trkpt>
      <trkpt lat="44.83512" lon="6.85651">
        <ele>2494.76</ele>
        <time>2018-08-22T11:30:16Z</time>
      </trkpt>
      <trkpt lat="44.8351" lon="6.85649">
        <ele>2495.72</ele>
        <time>2018-08-22T11:30:45Z</time>
      </trkpt>
      <trkpt lat="44.8351" lon="6.85648">
        <ele>2495.72</ele>
        <time>2018-08-22T11:31:11Z</time>
      </trkpt>
      <trkpt lat="44.83509" lon="6.8565">
        <ele>2495.24</ele>
        <time>2018-08-22T11:31:40Z</time>
      </trkpt>
      <trkpt lat="44.8351" lon="6.85649">
        <ele>2495.24</ele>
        <time>2018-08-22T11:32:14Z</time>
      </trkpt>
      <trkpt lat="44.83511" lon="6.85649">
        <ele>2495.24</ele>
        <time>2018-08-22T11:32:43Z</time>
      </trkpt>
      <trkpt lat="44.8351" lon="6.85648">
        <ele>2494.76</ele>
        <time>2018-08-22T11:33:23Z</time>
      </trkpt>
      <trkpt lat="44.83511" lon="6.85649">
        <ele>2494.76</ele>
        <time>2018-08-22T11:33:54Z</time>
      </trkpt>
      <trkpt lat="44.8351" lon="6.85649">
        <ele>2494.76</ele>
        <time>2018-08-22T11:34:29Z</time>
      </trkpt>
      <trkpt lat="44.83509" lon="6.85649">
        <ele>2494.28</ele>
        <time>2018-08-22T11:35:08Z</time>
      </trkpt>
      <trkpt lat="44.8351" lon="6.85648">
        <ele>2494.28</ele>
        <time>2018-08-22T11:35:45Z</time>
      </trkpt>
      <trkpt lat="44.83512" lon="6.85648">
        <ele>2494.28</ele>
        <time>2018-08-22T11:36:23Z</time>
      </trkpt>
      <trkpt lat="44.83511" lon="6.85647">
        <ele>2493.8</ele>
        <time>2018-08-22T11:37:03Z</time>
      </trkpt>
      <trkpt lat="44.83509" lon="6.85644">
        <ele>2493.8</ele>
        <time>2018-08-22T11:37:30Z</time>
      </trkpt>
      <trkpt lat="44.8351" lon="6.85643">
        <ele>2493.8</ele>
        <time>2018-08-22T11:38:08Z</time>
      </trkpt>
      <trkpt lat="44.8351" lon="6.85643">
        <ele>2493.8</ele>
        <time>2018-08-22T11:38:40Z</time>
      </trkpt>
      <trkpt lat="44.83511" lon="6.85643">
        <ele>2494.28</ele>
        <time>2018-08-22T11:39:13Z</time>
      </trkpt>
      <trkpt lat="44.83509" lon="6.85644">
        <ele>2494.28</ele>
        <time>2018-08-22T11:39:55Z</time>
      </trkpt>
      <trkpt lat="44.83511" lon="6.85642">
        <ele>2493.8</ele>
        <time>2018-08-22T11:40:37Z</time>
      </trkpt>
      <trkpt lat="44.8351" lon="6.85645">
        <ele>2493.8</ele>
        <time>2018-08-22T11:41:18Z</time>
      </trkpt>
      <trkpt lat="44.83509" lon="6.85643">
        <ele>2493.8</ele>
        <time>2018-08-22T11:41:55Z</time>
      </trkpt>
      <trkpt lat="44.83508" lon="6.8564">
        <ele>2493.8</ele>
        <time>2018-08-22T11:42:30Z</time>
      </trkpt>
      <trkpt lat="44.83508" lon="6.85642">
        <ele>2494.28</ele>
        <time>2018-08-22T11:42:58Z</time>
      </trkpt>
      <trkpt lat="44.83508" lon="6.85643">
        <ele>2494.28</ele>
        <time>2018-08-22T11:43:26Z</time>
      </trkpt>
      <trkpt lat="44.83508" lon="6.85641">
        <ele>2494.76</ele>
        <time>2018-08-22T11:43:36Z</time>
      </trkpt>
      <trkpt lat="44.83507" lon="6.85642">
        <ele>2494.76</ele>
        <time>2018-08-22T11:43:47Z</time>
      </trkpt>
      <trkpt lat="44.83507" lon="6.85641">
        <ele>2495.24</ele>
        <time>2018-08-22T11:44:07Z</time>
      </trkpt>
      <trkpt lat="44.8351" lon="6.85641">
        <ele>2495.24</ele>
        <time>2018-08-22T11:44:25Z</time>
      </trkpt>
      <trkpt lat="44.83507" lon="6.85634">
        <ele>2495.24</ele>
        <time>2018-08-22T11:44:35Z</time>
      </trkpt>
      <trkpt lat="44.83504" lon="6.85629">
        <ele>2493.8</ele>
        <time>2018-08-22T11:44:39Z</time>
      </trkpt>
      <trkpt lat="44.83504" lon="6.85628">
        <ele>2493.8</ele>
        <time>2018-08-22T11:44:40Z</time>
      </trkpt>
      <trkpt lat="44.83503" lon="6.85623">
        <ele>2493.8</ele>
        <time>2018-08-22T11:44:43Z</time>
      </trkpt>
      <trkpt lat="44.83501" lon="6.85613">
        <ele>2493.8</ele>
        <time>2018-08-22T11:44:52Z</time>
      </trkpt>
      <trkpt lat="44.83499" lon="6.85603">
        <ele>2493.8</ele>
        <time>2018-08-22T11:45:01Z</time>
      </trkpt>
      <trkpt lat="44.8351" lon="6.85594">
        <ele>2493.8</ele>
        <time>2018-08-22T11:45:14Z</time>
      </trkpt>
      <trkpt lat="44.83519" lon="6.85579">
        <ele>2492.36</ele>
        <time>2018-08-22T11:45:28Z</time>
      </trkpt>
      <trkpt lat="44.83521" lon="6.8557">
        <ele>2492.36</ele>
        <time>2018-08-22T11:45:34Z</time>
      </trkpt>
      <trkpt lat="44.83523" lon="6.85565">
        <ele>2492.36</ele>
        <time>2018-08-22T11:45:38Z</time>
      </trkpt>
      <trkpt lat="44.8353" lon="6.85548">
        <ele>2492.36</ele>
        <time>2018-08-22T11:45:50Z</time>
      </trkpt>
      <trkpt lat="44.83531" lon="6.85532">
        <ele>2492.36</ele>
        <time>2018-08-22T11:46:04Z</time>
      </trkpt>
      <trkpt lat="44.83531" lon="6.85531">
        <ele>2492.36</ele>
        <time>2018-08-22T11:46:05Z</time>
      </trkpt>
      <trkpt lat="44.83531" lon="6.85524">
        <ele>2491.87</ele>
        <time>2018-08-22T11:46:09Z</time>
      </trkpt>
      <trkpt lat="44.83538" lon="6.85508">
        <ele>2490.43</ele>
        <time>2018-08-22T11:46:25Z</time>
      </trkpt>
      <trkpt lat="44.83538" lon="6.85506">
        <ele>2490.43</ele>
        <time>2018-08-22T11:46:26Z</time>
      </trkpt>
      <trkpt lat="44.83539" lon="6.85502">
        <ele>2489.47</ele>
        <time>2018-08-22T11:46:29Z</time>
      </trkpt>
      <trkpt lat="44.8354" lon="6.85499">
        <ele>2488.99</ele>
        <time>2018-08-22T11:46:32Z</time>
      </trkpt>
      <trkpt lat="44.83543" lon="6.85477">
        <ele>2487.07</ele>
        <time>2018-08-22T11:46:47Z</time>
      </trkpt>
      <trkpt lat="44.83545" lon="6.85471">
        <ele>2486.11</ele>
        <time>2018-08-22T11:46:52Z</time>
      </trkpt>
      <trkpt lat="44.83553" lon="6.85452">
        <ele>2484.66</ele>
        <time>2018-08-22T11:47:07Z</time>
      </trkpt>
      <trkpt lat="44.83556" lon="6.8544">
        <ele>2484.18</ele>
        <time>2018-08-22T11:47:18Z</time>
      </trkpt>
      <trkpt lat="44.83561" lon="6.8543">
        <ele>2481.78</ele>
        <time>2018-08-22T11:47:30Z</time>
      </trkpt>
      <trkpt lat="44.83562" lon="6.85412">
        <ele>2480.82</ele>
        <time>2018-08-22T11:47:42Z</time>
      </trkpt>
      <trkpt lat="44.83562" lon="6.85409">
        <ele>2480.82</ele>
        <time>2018-08-22T11:47:44Z</time>
      </trkpt>
      <trkpt lat="44.83564" lon="6.85396">
        <ele>2480.34</ele>
        <time>2018-08-22T11:47:54Z</time>
      </trkpt>
      <trkpt lat="44.8357" lon="6.8538">
        <ele>2478.9</ele>
        <time>2018-08-22T11:48:09Z</time>
      </trkpt>
      <trkpt lat="44.83576" lon="6.85367">
        <ele>2477.45</ele>
        <time>2018-08-22T11:48:20Z</time>
      </trkpt>
      <trkpt lat="44.83583" lon="6.85349">
        <ele>2474.57</ele>
        <time>2018-08-22T11:48:36Z</time>
      </trkpt>
      <trkpt lat="44.83588" lon="6.85337">
        <ele>2471.69</ele>
        <time>2018-08-22T11:48:47Z</time>
      </trkpt>
      <trkpt lat="44.8359" lon="6.85321">
        <ele>2470.73</ele>
        <time>2018-08-22T11:49:00Z</time>
      </trkpt>
      <trkpt lat="44.83592" lon="6.85316">
        <ele>2470.73</ele>
        <time>2018-08-22T11:49:06Z</time>
      </trkpt>
      <trkpt lat="44.83592" lon="6.85311">
        <ele>2468.8</ele>
        <time>2018-08-22T11:49:10Z</time>
      </trkpt>
      <trkpt lat="44.83594" lon="6.85289">
        <ele>2467.36</ele>
        <time>2018-08-22T11:49:25Z</time>
      </trkpt>
      <trkpt lat="44.83597" lon="6.85277">
        <ele>2464.48</ele>
        <time>2018-08-22T11:49:38Z</time>
      </trkpt>
      <trkpt lat="44.83601" lon="6.85268">
        <ele>2461.11</ele>
        <time>2018-08-22T11:49:48Z</time>
      </trkpt>
      <trkpt lat="44.83601" lon="6.85263">
        <ele>2460.63</ele>
        <time>2018-08-22T11:49:52Z</time>
      </trkpt>
      <trkpt lat="44.83601" lon="6.85249">
        <ele>2458.23</ele>
        <time>2018-08-22T11:50:06Z</time>
      </trkpt>
      <trkpt lat="44.83601" lon="6.85244">
        <ele>2456.79</ele>
        <time>2018-08-22T11:50:13Z</time>
      </trkpt>
      <trkpt lat="44.83601" lon="6.85236">
        <ele>2456.31</ele>
        <time>2018-08-22T11:50:18Z</time>
      </trkpt>
      <trkpt lat="44.83601" lon="6.85224">
        <ele>2455.34</ele>
        <time>2018-08-22T11:50:26Z</time>
      </trkpt>
      <trkpt lat="44.83597" lon="6.8521">
        <ele>2453.9</ele>
        <time>2018-08-22T11:50:36Z</time>
      </trkpt>
      <trkpt lat="44.83599" lon="6.852">
        <ele>2453.9</ele>
        <time>2018-08-22T11:50:43Z</time>
      </trkpt>
      <trkpt lat="44.83605" lon="6.85189">
        <ele>2451.5</ele>
        <time>2018-08-22T11:50:54Z</time>
      </trkpt>
      <trkpt lat="44.83606" lon="6.85181">
        <ele>2450.54</ele>
        <time>2018-08-22T11:50:59Z</time>
      </trkpt>
      <trkpt lat="44.83607" lon="6.85168">
        <ele>2449.1</ele>
        <time>2018-08-22T11:51:08Z</time>
      </trkpt>
      <trkpt lat="44.83612" lon="6.8515">
        <ele>2446.69</ele>
        <time>2018-08-22T11:51:21Z</time>
      </trkpt>
      <trkpt lat="44.83614" lon="6.85125">
        <ele>2444.29</ele>
        <time>2018-08-22T11:51:38Z</time>
      </trkpt>
      <trkpt lat="44.83615" lon="6.85116">
        <ele>2443.33</ele>
        <time>2018-08-22T11:51:45Z</time>
      </trkpt>
      <trkpt lat="44.83608" lon="6.85092">
        <ele>2440.92</ele>
        <time>2018-08-22T11:52:01Z</time>
      </trkpt>
      <trkpt lat="44.83609" lon="6.85086">
        <ele>2440.92</ele>
        <time>2018-08-22T11:52:06Z</time>
      </trkpt>
      <trkpt lat="44.83613" lon="6.8507">
        <ele>2437.08</ele>
        <time>2018-08-22T11:52:20Z</time>
      </trkpt>
      <trkpt lat="44.83613" lon="6.85065">
        <ele>2436.12</ele>
        <time>2018-08-22T11:52:24Z</time>
      </trkpt>
      <trkpt lat="44.8361" lon="6.85051">
        <ele>2432.75</ele>
        <time>2018-08-22T11:52:39Z</time>
      </trkpt>
      <trkpt lat="44.83605" lon="6.85039">
        <ele>2430.83</ele>
        <time>2018-08-22T11:52:52Z</time>
      </trkpt>
      <trkpt lat="44.83601" lon="6.85018">
        <ele>2426.99</ele>
        <time>2018-08-22T11:53:06Z</time>
      </trkpt>
      <trkpt lat="44.83602" lon="6.84992">
        <ele>2425.06</ele>
        <time>2018-08-22T11:53:22Z</time>
      </trkpt>
      <trkpt lat="44.83606" lon="6.84968">
        <ele>2424.1</ele>
        <time>2018-08-22T11:53:38Z</time>
      </trkpt>
      <trkpt lat="44.83616" lon="6.84952">
        <ele>2423.14</ele>
        <time>2018-08-22T11:53:51Z</time>
      </trkpt>
      <trkpt lat="44.83622" lon="6.84939">
        <ele>2422.66</ele>
        <time>2018-08-22T11:53:59Z</time>
      </trkpt>
      <trkpt lat="44.83627" lon="6.84921">
        <ele>2421.7</ele>
        <time>2018-08-22T11:54:10Z</time>
      </trkpt>
      <trkpt lat="44.83633" lon="6.84908">
        <ele>2420.74</ele>
        <time>2018-08-22T11:54:20Z</time>
      </trkpt>
      <trkpt lat="44.83634" lon="6.84904">
        <ele>2420.74</ele>
        <time>2018-08-22T11:54:23Z</time>
      </trkpt>
      <trkpt lat="44.83646" lon="6.84888">
        <ele>2418.33</ele>
        <time>2018-08-22T11:54:38Z</time>
      </trkpt>
      <trkpt lat="44.83655" lon="6.84865">
        <ele>2415.45</ele>
        <time>2018-08-22T11:54:55Z</time>
      </trkpt>
      <trkpt lat="44.83656" lon="6.8486">
        <ele>2414.97</ele>
        <time>2018-08-22T11:54:58Z</time>
      </trkpt>
      <trkpt lat="44.83664" lon="6.8484">
        <ele>2413.53</ele>
        <time>2018-08-22T11:55:12Z</time>
      </trkpt>
      <trkpt lat="44.83665" lon="6.84838">
        <ele>2413.05</ele>
        <time>2018-08-22T11:55:14Z</time>
      </trkpt>
      <trkpt lat="44.83666" lon="6.84832">
        <ele>2413.05</ele>
        <time>2018-08-22T11:55:18Z</time>
      </trkpt>
      <trkpt lat="44.83675" lon="6.84813">
        <ele>2411.6</ele>
        <time>2018-08-22T11:55:32Z</time>
      </trkpt>
      <trkpt lat="44.83679" lon="6.84793">
        <ele>2410.16</ele>
        <time>2018-08-22T11:55:44Z</time>
      </trkpt>
      <trkpt lat="44.83689" lon="6.84772">
        <ele>2408.72</ele>
        <time>2018-08-22T11:56:00Z</time>
      </trkpt>
      <trkpt lat="44.83691" lon="6.84767">
        <ele>2408.24</ele>
        <time>2018-08-22T11:56:04Z</time>
      </trkpt>
      <trkpt lat="44.83699" lon="6.84751">
        <ele>2406.32</ele>
        <time>2018-08-22T11:56:19Z</time>
      </trkpt>
      <trkpt lat="44.83703" lon="6.84744">
        <ele>2404.88</ele>
        <time>2018-08-22T11:56:26Z</time>
      </trkpt>
      <trkpt lat="44.8371" lon="6.8473">
        <ele>2403.91</ele>
        <time>2018-08-22T11:56:37Z</time>
      </trkpt>
      <trkpt lat="44.83712" lon="6.84724">
        <ele>2402.95</ele>
        <time>2018-08-22T11:56:42Z</time>
      </trkpt>
      <trkpt lat="44.83715" lon="6.84718">
        <ele>2402.47</ele>
        <time>2018-08-22T11:56:47Z</time>
      </trkpt>
      <trkpt lat="44.83721" lon="6.84708">
        <ele>2401.03</ele>
        <time>2018-08-22T11:56:57Z</time>
      </trkpt>
      <trkpt lat="44.83726" lon="6.84693">
        <ele>2399.59</ele>
        <time>2018-08-22T11:57:10Z</time>
      </trkpt>
      <trkpt lat="44.83728" lon="6.84689">
        <ele>2399.11</ele>
        <time>2018-08-22T11:57:14Z</time>
      </trkpt>
      <trkpt lat="44.8373" lon="6.84681">
        <ele>2398.63</ele>
        <time>2018-08-22T11:57:20Z</time>
      </trkpt>
      <trkpt lat="44.83735" lon="6.84678">
        <ele>2398.15</ele>
        <time>2018-08-22T11:57:25Z</time>
      </trkpt>
      <trkpt lat="44.83738" lon="6.84667">
        <ele>2397.18</ele>
        <time>2018-08-22T11:57:35Z</time>
      </trkpt>
      <trkpt lat="44.8374" lon="6.84664">
        <ele>2395.74</ele>
        <time>2018-08-22T11:57:38Z</time>
      </trkpt>
      <trkpt lat="44.83755" lon="6.84648">
        <ele>2393.82</ele>
        <time>2018-08-22T11:57:54Z</time>
      </trkpt>
      <trkpt lat="44.83756" lon="6.84648">
        <ele>2393.82</ele>
        <time>2018-08-22T11:58:12Z</time>
      </trkpt>
      <trkpt lat="44.83757" lon="6.84647">
        <ele>2393.34</ele>
        <time>2018-08-22T11:58:27Z</time>
      </trkpt>
      <trkpt lat="44.8376" lon="6.84646">
        <ele>2392.86</ele>
        <time>2018-08-22T11:58:30Z</time>
      </trkpt>
      <trkpt lat="44.83776" lon="6.84635">
        <ele>2389.97</ele>
        <time>2018-08-22T11:58:47Z</time>
      </trkpt>
      <trkpt lat="44.8378" lon="6.8463">
        <ele>2389.49</ele>
        <time>2018-08-22T11:58:52Z</time>
      </trkpt>
      <trkpt lat="44.83787" lon="6.84612">
        <ele>2388.05</ele>
        <time>2018-08-22T11:59:05Z</time>
      </trkpt>
      <trkpt lat="44.83789" lon="6.84605">
        <ele>2387.09</ele>
        <time>2018-08-22T11:59:10Z</time>
      </trkpt>
      <trkpt lat="44.83801" lon="6.84586">
        <ele>2385.65</ele>
        <time>2018-08-22T11:59:26Z</time>
      </trkpt>
      <trkpt lat="44.83805" lon="6.84582">
        <ele>2384.69</ele>
        <time>2018-08-22T11:59:31Z</time>
      </trkpt>
      <trkpt lat="44.83809" lon="6.84579">
        <ele>2383.73</ele>
        <time>2018-08-22T11:59:35Z</time>
      </trkpt>
      <trkpt lat="44.83812" lon="6.84574">
        <ele>2383.25</ele>
        <time>2018-08-22T11:59:39Z</time>
      </trkpt>
      <trkpt lat="44.83817" lon="6.84568">
        <ele>2382.76</ele>
        <time>2018-08-22T11:59:45Z</time>
      </trkpt>
      <trkpt lat="44.83827" lon="6.84551">
        <ele>2380.36</ele>
        <time>2018-08-22T11:59:59Z</time>
      </trkpt>
      <trkpt lat="44.83832" lon="6.84544">
        <ele>2379.4</ele>
        <time>2018-08-22T12:00:05Z</time>
      </trkpt>
      <trkpt lat="44.83844" lon="6.84529">
        <ele>2376.52</ele>
        <time>2018-08-22T12:00:19Z</time>
      </trkpt>
      <trkpt lat="44.83846" lon="6.84523">
        <ele>2375.55</ele>
        <time>2018-08-22T12:00:24Z</time>
      </trkpt>
      <trkpt lat="44.83858" lon="6.84505">
        <ele>2373.15</ele>
        <time>2018-08-22T12:00:40Z</time>
      </trkpt>
      <trkpt lat="44.83871" lon="6.84489">
        <ele>2370.75</ele>
        <time>2018-08-22T12:00:55Z</time>
      </trkpt>
      <trkpt lat="44.83885" lon="6.84474">
        <ele>2367.86</ele>
        <time>2018-08-22T12:01:12Z</time>
      </trkpt>
      <trkpt lat="44.83899" lon="6.84456">
        <ele>2366.42</ele>
        <time>2018-08-22T12:01:27Z</time>
      </trkpt>
      <trkpt lat="44.83902" lon="6.8445">
        <ele>2365.94</ele>
        <time>2018-08-22T12:01:31Z</time>
      </trkpt>
      <trkpt lat="44.83912" lon="6.84435">
        <ele>2364.02</ele>
        <time>2018-08-22T12:01:45Z</time>
      </trkpt>
      <trkpt lat="44.83928" lon="6.84417">
        <ele>2361.14</ele>
        <time>2018-08-22T12:02:03Z</time>
      </trkpt>
      <trkpt lat="44.83932" lon="6.84409">
        <ele>2361.14</ele>
        <time>2018-08-22T12:02:09Z</time>
      </trkpt>
      <trkpt lat="44.83939" lon="6.84401">
        <ele>2360.17</ele>
        <time>2018-08-22T12:02:16Z</time>
      </trkpt>
      <trkpt lat="44.83944" lon="6.84376">
        <ele>2358.25</ele>
        <time>2018-08-22T12:02:33Z</time>
      </trkpt>
      <trkpt lat="44.8395" lon="6.8435">
        <ele>2357.29</ele>
        <time>2018-08-22T12:02:49Z</time>
      </trkpt>
      <trkpt lat="44.83951" lon="6.84345">
        <ele>2356.33</ele>
        <time>2018-08-22T12:02:53Z</time>
      </trkpt>
      <trkpt lat="44.83953" lon="6.84333">
        <ele>2355.37</ele>
        <time>2018-08-22T12:03:01Z</time>
      </trkpt>
      <trkpt lat="44.83955" lon="6.84308">
        <ele>2354.41</ele>
        <time>2018-08-22T12:03:17Z</time>
      </trkpt>
      <trkpt lat="44.83958" lon="6.84298">
        <ele>2353.44</ele>
        <time>2018-08-22T12:03:30Z</time>
      </trkpt>
      <trkpt lat="44.83955" lon="6.84295">
        <ele>2353.44</ele>
        <time>2018-08-22T12:03:48Z</time>
      </trkpt>
      <trkpt lat="44.83959" lon="6.84288">
        <ele>2352.96</ele>
        <time>2018-08-22T12:04:03Z</time>
      </trkpt>
      <trkpt lat="44.83963" lon="6.84274">
        <ele>2352</ele>
        <time>2018-08-22T12:04:15Z</time>
      </trkpt>
      <trkpt lat="44.83964" lon="6.84265">
        <ele>2350.08</ele>
        <time>2018-08-22T12:04:23Z</time>
      </trkpt>
      <trkpt lat="44.83967" lon="6.84257">
        <ele>2349.6</ele>
        <time>2018-08-22T12:04:38Z</time>
      </trkpt>
      <trkpt lat="44.8397" lon="6.84253">
        <ele>2349.12</ele>
        <time>2018-08-22T12:04:55Z</time>
      </trkpt>
      <trkpt lat="44.83972" lon="6.84238">
        <ele>2348.16</ele>
        <time>2018-08-22T12:05:08Z</time>
      </trkpt>
      <trkpt lat="44.83972" lon="6.84234">
        <ele>2347.68</ele>
        <time>2018-08-22T12:05:10Z</time>
      </trkpt>
      <trkpt lat="44.83972" lon="6.84216">
        <ele>2345.75</ele>
        <time>2018-08-22T12:05:23Z</time>
      </trkpt>
      <trkpt lat="44.83975" lon="6.84208">
        <ele>2345.75</ele>
        <time>2018-08-22T12:05:28Z</time>
      </trkpt>
      <trkpt lat="44.83973" lon="6.84199">
        <ele>2345.27</ele>
        <time>2018-08-22T12:05:34Z</time>
      </trkpt>
      <trkpt lat="44.83974" lon="6.84188">
        <ele>2344.79</ele>
        <time>2018-08-22T12:05:44Z</time>
      </trkpt>
      <trkpt lat="44.83974" lon="6.84176">
        <ele>2344.31</ele>
        <time>2018-08-22T12:05:56Z</time>
      </trkpt>
      <trkpt lat="44.83974" lon="6.84173">
        <ele>2343.83</ele>
        <time>2018-08-22T12:05:58Z</time>
      </trkpt>
      <trkpt lat="44.83977" lon="6.84161">
        <ele>2342.39</ele>
        <time>2018-08-22T12:06:07Z</time>
      </trkpt>
      <trkpt lat="44.83975" lon="6.84151">
        <ele>2341.43</ele>
        <time>2018-08-22T12:06:14Z</time>
      </trkpt>
      <trkpt lat="44.83974" lon="6.84148">
        <ele>2341.43</ele>
        <time>2018-08-22T12:06:16Z</time>
      </trkpt>
      <trkpt lat="44.83973" lon="6.84145">
        <ele>2340.95</ele>
        <time>2018-08-22T12:06:18Z</time>
      </trkpt>
      <trkpt lat="44.83978" lon="6.84131">
        <ele>2339.99</ele>
        <time>2018-08-22T12:06:29Z</time>
      </trkpt>
      <trkpt lat="44.83981" lon="6.84131">
        <ele>2339.51</ele>
        <time>2018-08-22T12:06:33Z</time>
      </trkpt>
      <trkpt lat="44.83991" lon="6.84112">
        <ele>2337.58</ele>
        <time>2018-08-22T12:06:47Z</time>
      </trkpt>
      <trkpt lat="44.83994" lon="6.84103">
        <ele>2337.1</ele>
        <time>2018-08-22T12:06:53Z</time>
      </trkpt>
      <trkpt lat="44.84" lon="6.84091">
        <ele>2336.14</ele>
        <time>2018-08-22T12:07:02Z</time>
      </trkpt>
      <trkpt lat="44.84004" lon="6.84076">
        <ele>2335.66</ele>
        <time>2018-08-22T12:07:12Z</time>
      </trkpt>
      <trkpt lat="44.84011" lon="6.84051">
        <ele>2334.22</ele>
        <time>2018-08-22T12:07:29Z</time>
      </trkpt>
      <trkpt lat="44.84015" lon="6.84044">
        <ele>2333.26</ele>
        <time>2018-08-22T12:07:34Z</time>
      </trkpt>
      <trkpt lat="44.84021" lon="6.84017">
        <ele>2331.81</ele>
        <time>2018-08-22T12:07:51Z</time>
      </trkpt>
      <trkpt lat="44.84028" lon="6.83999">
        <ele>2330.37</ele>
        <time>2018-08-22T12:08:03Z</time>
      </trkpt>
      <trkpt lat="44.84028" lon="6.83991">
        <ele>2330.37</ele>
        <time>2018-08-22T12:08:08Z</time>
      </trkpt>
      <trkpt lat="44.84036" lon="6.8397">
        <ele>2327.97</ele>
        <time>2018-08-22T12:08:22Z</time>
      </trkpt>
      <trkpt lat="44.84046" lon="6.83951">
        <ele>2326.53</ele>
        <time>2018-08-22T12:08:37Z</time>
      </trkpt>
      <trkpt lat="44.84051" lon="6.83945">
        <ele>2325.57</ele>
        <time>2018-08-22T12:08:42Z</time>
      </trkpt>
      <trkpt lat="44.8406" lon="6.8392">
        <ele>2325.09</ele>
        <time>2018-08-22T12:08:59Z</time>
      </trkpt>
      <trkpt lat="44.8407" lon="6.839">
        <ele>2323.64</ele>
        <time>2018-08-22T12:09:14Z</time>
      </trkpt>
      <trkpt lat="44.84082" lon="6.8388">
        <ele>2322.68</ele>
        <time>2018-08-22T12:09:29Z</time>
      </trkpt>
      <trkpt lat="44.84086" lon="6.83877">
        <ele>2322.2</ele>
        <time>2018-08-22T12:09:34Z</time>
      </trkpt>
      <trkpt lat="44.84089" lon="6.83872">
        <ele>2321.72</ele>
        <time>2018-08-22T12:09:39Z</time>
      </trkpt>
      <trkpt lat="44.841" lon="6.83845">
        <ele>2318.84</ele>
        <time>2018-08-22T12:09:58Z</time>
      </trkpt>
      <trkpt lat="44.84102" lon="6.83839">
        <ele>2318.36</ele>
        <time>2018-08-22T12:10:03Z</time>
      </trkpt>
      <trkpt lat="44.8411" lon="6.83815">
        <ele>2316.43</ele>
        <time>2018-08-22T12:10:19Z</time>
      </trkpt>
      <trkpt lat="44.84114" lon="6.83803">
        <ele>2315.95</ele>
        <time>2018-08-22T12:10:28Z</time>
      </trkpt>
      <trkpt lat="44.84114" lon="6.83795">
        <ele>2315.95</ele>
        <time>2018-08-22T12:10:32Z</time>
      </trkpt>
      <trkpt lat="44.84116" lon="6.83776">
        <ele>2314.99</ele>
        <time>2018-08-22T12:10:44Z</time>
      </trkpt>
      <trkpt lat="44.84116" lon="6.8377">
        <ele>2314.51</ele>
        <time>2018-08-22T12:10:48Z</time>
      </trkpt>
      <trkpt lat="44.84118" lon="6.83762">
        <ele>2314.03</ele>
        <time>2018-08-22T12:10:53Z</time>
      </trkpt>
      <trkpt lat="44.8412" lon="6.83739">
        <ele>2312.59</ele>
        <time>2018-08-22T12:11:06Z</time>
      </trkpt>
      <trkpt lat="44.84127" lon="6.83717">
        <ele>2311.15</ele>
        <time>2018-08-22T12:11:22Z</time>
      </trkpt>
      <trkpt lat="44.84126" lon="6.83713">
        <ele>2311.15</ele>
        <time>2018-08-22T12:11:25Z</time>
      </trkpt>
      <trkpt lat="44.84127" lon="6.83706">
        <ele>2310.19</ele>
        <time>2018-08-22T12:11:29Z</time>
      </trkpt>
      <trkpt lat="44.84131" lon="6.83692">
        <ele>2309.7</ele>
        <time>2018-08-22T12:11:38Z</time>
      </trkpt>
      <trkpt lat="44.84131" lon="6.83683">
        <ele>2308.26</ele>
        <time>2018-08-22T12:11:44Z</time>
      </trkpt>
      <trkpt lat="44.84127" lon="6.83667">
        <ele>2307.3</ele>
        <time>2018-08-22T12:11:54Z</time>
      </trkpt>
      <trkpt lat="44.84129" lon="6.83658">
        <ele>2306.34</ele>
        <time>2018-08-22T12:12:00Z</time>
      </trkpt>
      <trkpt lat="44.84131" lon="6.83647">
        <ele>2304.42</ele>
        <time>2018-08-22T12:12:08Z</time>
      </trkpt>
      <trkpt lat="44.84129" lon="6.83629">
        <ele>2302.01</ele>
        <time>2018-08-22T12:12:21Z</time>
      </trkpt>
      <trkpt lat="44.84131" lon="6.83612">
        <ele>2300.57</ele>
        <time>2018-08-22T12:12:35Z</time>
      </trkpt>
      <trkpt lat="44.84129" lon="6.8361">
        <ele>2300.09</ele>
        <time>2018-08-22T12:12:37Z</time>
      </trkpt>
      <trkpt lat="44.84127" lon="6.83596">
        <ele>2300.09</ele>
        <time>2018-08-22T12:12:49Z</time>
      </trkpt>
      <trkpt lat="44.84128" lon="6.83593">
        <ele>2298.65</ele>
        <time>2018-08-22T12:12:52Z</time>
      </trkpt>
      <trkpt lat="44.84132" lon="6.8358">
        <ele>2297.69</ele>
        <time>2018-08-22T12:13:00Z</time>
      </trkpt>
      <trkpt lat="44.84131" lon="6.83571">
        <ele>2296.73</ele>
        <time>2018-08-22T12:13:06Z</time>
      </trkpt>
      <trkpt lat="44.84133" lon="6.8355">
        <ele>2295.77</ele>
        <time>2018-08-22T12:13:19Z</time>
      </trkpt>
      <trkpt lat="44.84132" lon="6.83547">
        <ele>2295.77</ele>
        <time>2018-08-22T12:13:21Z</time>
      </trkpt>
      <trkpt lat="44.84134" lon="6.83528">
        <ele>2293.84</ele>
        <time>2018-08-22T12:13:36Z</time>
      </trkpt>
      <trkpt lat="44.8413" lon="6.83526">
        <ele>2293.36</ele>
        <time>2018-08-22T12:13:50Z</time>
      </trkpt>
      <trkpt lat="44.84128" lon="6.83526">
        <ele>2293.36</ele>
        <time>2018-08-22T12:14:18Z</time>
      </trkpt>
      <trkpt lat="44.84128" lon="6.83527">
        <ele>2293.36</ele>
        <time>2018-08-22T12:14:39Z</time>
      </trkpt>
      <trkpt lat="44.84129" lon="6.83526">
        <ele>2292.88</ele>
        <time>2018-08-22T12:15:00Z</time>
      </trkpt>
      <trkpt lat="44.84128" lon="6.83521">
        <ele>2292.88</ele>
        <time>2018-08-22T12:15:22Z</time>
      </trkpt>
      <trkpt lat="44.84128" lon="6.83517">
        <ele>2292.88</ele>
        <time>2018-08-22T12:15:26Z</time>
      </trkpt>
      <trkpt lat="44.84126" lon="6.8351">
        <ele>2291.44</ele>
        <time>2018-08-22T12:15:31Z</time>
      </trkpt>
      <trkpt lat="44.84126" lon="6.83487">
        <ele>2289.52</ele>
        <time>2018-08-22T12:15:47Z</time>
      </trkpt>
      <trkpt lat="44.84125" lon="6.83486">
        <ele>2289.52</ele>
        <time>2018-08-22T12:15:48Z</time>
      </trkpt>
      <trkpt lat="44.84122" lon="6.83483">
        <ele>2289.52</ele>
        <time>2018-08-22T12:15:52Z</time>
      </trkpt>
      <trkpt lat="44.84117" lon="6.83471">
        <ele>2289.52</ele>
        <time>2018-08-22T12:16:00Z</time>
      </trkpt>
      <trkpt lat="44.84117" lon="6.83467">
        <ele>2289.52</ele>
        <time>2018-08-22T12:16:02Z</time>
      </trkpt>
      <trkpt lat="44.84114" lon="6.83449">
        <ele>2289.52</ele>
        <time>2018-08-22T12:16:13Z</time>
      </trkpt>
      <trkpt lat="44.84114" lon="6.83441">
        <ele>2288.56</ele>
        <time>2018-08-22T12:16:18Z</time>
      </trkpt>
      <trkpt lat="44.84112" lon="6.83433">
        <ele>2288.56</ele>
        <time>2018-08-22T12:16:24Z</time>
      </trkpt>
      <trkpt lat="44.8411" lon="6.83424">
        <ele>2288.08</ele>
        <time>2018-08-22T12:16:30Z</time>
      </trkpt>
      <trkpt lat="44.84109" lon="6.83421">
        <ele>2288.08</ele>
        <time>2018-08-22T12:16:32Z</time>
      </trkpt>
      <trkpt lat="44.84111" lon="6.83416">
        <ele>2288.08</ele>
        <time>2018-08-22T12:16:35Z</time>
      </trkpt>
      <trkpt lat="44.8411" lon="6.83411">
        <ele>2287.59</ele>
        <time>2018-08-22T12:16:38Z</time>
      </trkpt>
      <trkpt lat="44.84108" lon="6.83397">
        <ele>2287.59</ele>
        <time>2018-08-22T12:16:49Z</time>
      </trkpt>
      <trkpt lat="44.84109" lon="6.83393">
        <ele>2287.59</ele>
        <time>2018-08-22T12:16:52Z</time>
      </trkpt>
      <trkpt lat="44.84107" lon="6.83384">
        <ele>2287.11</ele>
        <time>2018-08-22T12:16:58Z</time>
      </trkpt>
      <trkpt lat="44.84108" lon="6.83363">
        <ele>2285.67</ele>
        <time>2018-08-22T12:17:11Z</time>
      </trkpt>
      <trkpt lat="44.84108" lon="6.83355">
        <ele>2285.67</ele>
        <time>2018-08-22T12:17:16Z</time>
      </trkpt>
      <trkpt lat="44.84109" lon="6.83349">
        <ele>2285.67</ele>
        <time>2018-08-22T12:17:20Z</time>
      </trkpt>
      <trkpt lat="44.84108" lon="6.83339">
        <ele>2285.19</ele>
        <time>2018-08-22T12:17:26Z</time>
      </trkpt>
      <trkpt lat="44.84109" lon="6.83333">
        <ele>2284.71</ele>
        <time>2018-08-22T12:17:30Z</time>
      </trkpt>
      <trkpt lat="44.84109" lon="6.83329">
        <ele>2284.71</ele>
        <time>2018-08-22T12:17:32Z</time>
      </trkpt>
      <trkpt lat="44.8411" lon="6.83304">
        <ele>2284.23</ele>
        <time>2018-08-22T12:17:47Z</time>
      </trkpt>
      <trkpt lat="44.84118" lon="6.83288">
        <ele>2283.27</ele>
        <time>2018-08-22T12:18:00Z</time>
      </trkpt>
      <trkpt lat="44.84123" lon="6.83283">
        <ele>2282.31</ele>
        <time>2018-08-22T12:18:08Z</time>
      </trkpt>
      <trkpt lat="44.84132" lon="6.83262">
        <ele>2281.35</ele>
        <time>2018-08-22T12:18:24Z</time>
      </trkpt>
      <trkpt lat="44.8414" lon="6.83239">
        <ele>2281.35</ele>
        <time>2018-08-22T12:18:40Z</time>
      </trkpt>
      <trkpt lat="44.8414" lon="6.8322">
        <ele>2281.35</ele>
        <time>2018-08-22T12:18:51Z</time>
      </trkpt>
      <trkpt lat="44.8414" lon="6.83209">
        <ele>2281.35</ele>
        <time>2018-08-22T12:18:58Z</time>
      </trkpt>
      <trkpt lat="44.84149" lon="6.83188">
        <ele>2279.42</ele>
        <time>2018-08-22T12:19:14Z</time>
      </trkpt>
      <trkpt lat="44.8415" lon="6.83185">
        <ele>2278.94</ele>
        <time>2018-08-22T12:19:17Z</time>
      </trkpt>
      <trkpt lat="44.84148" lon="6.83175">
        <ele>2278.94</ele>
        <time>2018-08-22T12:19:23Z</time>
      </trkpt>
      <trkpt lat="44.84149" lon="6.83153">
        <ele>2278.94</ele>
        <time>2018-08-22T12:19:37Z</time>
      </trkpt>
      <trkpt lat="44.84154" lon="6.8314">
        <ele>2276.54</ele>
        <time>2018-08-22T12:19:51Z</time>
      </trkpt>
      <trkpt lat="44.84155" lon="6.83119">
        <ele>2275.58</ele>
        <time>2018-08-22T12:20:06Z</time>
      </trkpt>
      <trkpt lat="44.84154" lon="6.83101">
        <ele>2273.17</ele>
        <time>2018-08-22T12:20:19Z</time>
      </trkpt>
      <trkpt lat="44.84155" lon="6.83096">
        <ele>2272.69</ele>
        <time>2018-08-22T12:20:23Z</time>
      </trkpt>
      <trkpt lat="44.84155" lon="6.83093">
        <ele>2272.69</ele>
        <time>2018-08-22T12:20:25Z</time>
      </trkpt>
      <trkpt lat="44.84159" lon="6.83073">
        <ele>2270.77</ele>
        <time>2018-08-22T12:20:38Z</time>
      </trkpt>
      <trkpt lat="44.84161" lon="6.83061">
        <ele>2269.33</ele>
        <time>2018-08-22T12:20:45Z</time>
      </trkpt>
      <trkpt lat="44.84163" lon="6.83048">
        <ele>2267.89</ele>
        <time>2018-08-22T12:20:54Z</time>
      </trkpt>
      <trkpt lat="44.84164" lon="6.83043">
        <ele>2267.89</ele>
        <time>2018-08-22T12:20:57Z</time>
      </trkpt>
      <trkpt lat="44.84164" lon="6.83035">
        <ele>2267.41</ele>
        <time>2018-08-22T12:21:02Z</time>
      </trkpt>
      <trkpt lat="44.84164" lon="6.83024">
        <ele>2266.45</ele>
        <time>2018-08-22T12:21:09Z</time>
      </trkpt>
      <trkpt lat="44.84165" lon="6.83012">
        <ele>2265</ele>
        <time>2018-08-22T12:21:17Z</time>
      </trkpt>
      <trkpt lat="44.84166" lon="6.83003">
        <ele>2264.04</ele>
        <time>2018-08-22T12:21:23Z</time>
      </trkpt>
      <trkpt lat="44.84169" lon="6.82983">
        <ele>2262.12</ele>
        <time>2018-08-22T12:21:36Z</time>
      </trkpt>
      <trkpt lat="44.84167" lon="6.82959">
        <ele>2260.2</ele>
        <time>2018-08-22T12:21:50Z</time>
      </trkpt>
      <trkpt lat="44.84166" lon="6.82952">
        <ele>2260.2</ele>
        <time>2018-08-22T12:21:55Z</time>
      </trkpt>
      <trkpt lat="44.84167" lon="6.82931">
        <ele>2259.72</ele>
        <time>2018-08-22T12:22:08Z</time>
      </trkpt>
      <trkpt lat="44.84169" lon="6.82914">
        <ele>2258.75</ele>
        <time>2018-08-22T12:22:18Z</time>
      </trkpt>
      <trkpt lat="44.84183" lon="6.82897">
        <ele>2256.83</ele>
        <time>2018-08-22T12:22:34Z</time>
      </trkpt>
      <trkpt lat="44.84186" lon="6.82889">
        <ele>2255.87</ele>
        <time>2018-08-22T12:22:46Z</time>
      </trkpt>
      <trkpt lat="44.84187" lon="6.82886">
        <ele>2254.91</ele>
        <time>2018-08-22T12:23:02Z</time>
      </trkpt>
      <trkpt lat="44.84187" lon="6.82886">
        <ele>2254.91</ele>
        <time>2018-08-22T12:23:06Z</time>
      </trkpt>
      <trkpt lat="44.84189" lon="6.82881">
        <ele>2253.95</ele>
        <time>2018-08-22T12:23:10Z</time>
      </trkpt>
      <trkpt lat="44.8419" lon="6.82874">
        <ele>2252.99</ele>
        <time>2018-08-22T12:23:27Z</time>
      </trkpt>
      <trkpt lat="44.84196" lon="6.82857">
        <ele>2252.03</ele>
        <time>2018-08-22T12:23:41Z</time>
      </trkpt>
      <trkpt lat="44.84198" lon="6.82834">
        <ele>2250.58</ele>
        <time>2018-08-22T12:23:56Z</time>
      </trkpt>
      <trkpt lat="44.84201" lon="6.8281">
        <ele>2248.18</ele>
        <time>2018-08-22T12:24:12Z</time>
      </trkpt>
      <trkpt lat="44.84206" lon="6.82802">
        <ele>2247.7</ele>
        <time>2018-08-22T12:24:23Z</time>
      </trkpt>
      <trkpt lat="44.8421" lon="6.82781">
        <ele>2246.26</ele>
        <time>2018-08-22T12:24:37Z</time>
      </trkpt>
      <trkpt lat="44.84216" lon="6.82758">
        <ele>2243.85</ele>
        <time>2018-08-22T12:24:52Z</time>
      </trkpt>
      <trkpt lat="44.84221" lon="6.8273">
        <ele>2241.45</ele>
        <time>2018-08-22T12:25:10Z</time>
      </trkpt>
      <trkpt lat="44.84223" lon="6.82706">
        <ele>2238.57</ele>
        <time>2018-08-22T12:25:25Z</time>
      </trkpt>
      <trkpt lat="44.84223" lon="6.82705">
        <ele>2238.57</ele>
        <time>2018-08-22T12:25:26Z</time>
      </trkpt>
      <trkpt lat="44.84225" lon="6.82676">
        <ele>2236.16</ele>
        <time>2018-08-22T12:25:45Z</time>
      </trkpt>
      <trkpt lat="44.84221" lon="6.82661">
        <ele>2234.24</ele>
        <time>2018-08-22T12:25:57Z</time>
      </trkpt>
      <trkpt lat="44.84214" lon="6.82646">
        <ele>2232.8</ele>
        <time>2018-08-22T12:26:09Z</time>
      </trkpt>
      <trkpt lat="44.84209" lon="6.8262">
        <ele>2229.43</ele>
        <time>2018-08-22T12:26:25Z</time>
      </trkpt>
      <trkpt lat="44.84208" lon="6.82599">
        <ele>2226.07</ele>
        <time>2018-08-22T12:26:38Z</time>
      </trkpt>
      <trkpt lat="44.84209" lon="6.82592">
        <ele>2225.11</ele>
        <time>2018-08-22T12:26:44Z</time>
      </trkpt>
      <trkpt lat="44.8421" lon="6.82585">
        <ele>2224.15</ele>
        <time>2018-08-22T12:26:48Z</time>
      </trkpt>
      <trkpt lat="44.84211" lon="6.82557">
        <ele>2221.26</ele>
        <time>2018-08-22T12:27:05Z</time>
      </trkpt>
      <trkpt lat="44.84212" lon="6.82552">
        <ele>2220.78</ele>
        <time>2018-08-22T12:27:09Z</time>
      </trkpt>
      <trkpt lat="44.84209" lon="6.82547">
        <ele>2220.3</ele>
        <time>2018-08-22T12:27:24Z</time>
      </trkpt>
      <trkpt lat="44.84209" lon="6.82545">
        <ele>2220.3</ele>
        <time>2018-08-22T12:28:04Z</time>
      </trkpt>
      <trkpt lat="44.8421" lon="6.82536">
        <ele>2218.38</ele>
        <time>2018-08-22T12:28:19Z</time>
      </trkpt>
      <trkpt lat="44.84209" lon="6.82521">
        <ele>2215.5</ele>
        <time>2018-08-22T12:28:30Z</time>
      </trkpt>
      <trkpt lat="44.84207" lon="6.82516">
        <ele>2214.05</ele>
        <time>2018-08-22T12:28:34Z</time>
      </trkpt>
      <trkpt lat="44.84206" lon="6.82508">
        <ele>2213.09</ele>
        <time>2018-08-22T12:28:38Z</time>
      </trkpt>
      <trkpt lat="44.84203" lon="6.825">
        <ele>2212.61</ele>
        <time>2018-08-22T12:28:44Z</time>
      </trkpt>
      <trkpt lat="44.84203" lon="6.82496">
        <ele>2211.65</ele>
        <time>2018-08-22T12:28:46Z</time>
      </trkpt>
      <trkpt lat="44.84203" lon="6.8249">
        <ele>2210.69</ele>
        <time>2018-08-22T12:28:50Z</time>
      </trkpt>
      <trkpt lat="44.84204" lon="6.82485">
        <ele>2209.73</ele>
        <time>2018-08-22T12:28:54Z</time>
      </trkpt>
      <trkpt lat="44.84198" lon="6.82468">
        <ele>2206.36</ele>
        <time>2018-08-22T12:29:08Z</time>
      </trkpt>
      <trkpt lat="44.84193" lon="6.82455">
        <ele>2202.52</ele>
        <time>2018-08-22T12:29:20Z</time>
      </trkpt>
      <trkpt lat="44.84192" lon="6.82453">
        <ele>2202.04</ele>
        <time>2018-08-22T12:29:22Z</time>
      </trkpt>
      <trkpt lat="44.84188" lon="6.82444">
        <ele>2200.59</ele>
        <time>2018-08-22T12:29:29Z</time>
      </trkpt>
      <trkpt lat="44.84189" lon="6.82437">
        <ele>2199.63</ele>
        <time>2018-08-22T12:29:33Z</time>
      </trkpt>
      <trkpt lat="44.84191" lon="6.82435">
        <ele>2198.19</ele>
        <time>2018-08-22T12:29:35Z</time>
      </trkpt>
      <trkpt lat="44.84194" lon="6.82434">
        <ele>2197.23</ele>
        <time>2018-08-22T12:29:38Z</time>
      </trkpt>
      <trkpt lat="44.84196" lon="6.82428">
        <ele>2196.27</ele>
        <time>2018-08-22T12:29:43Z</time>
      </trkpt>
      <trkpt lat="44.84196" lon="6.82422">
        <ele>2194.83</ele>
        <time>2018-08-22T12:29:47Z</time>
      </trkpt>
      <trkpt lat="44.84198" lon="6.82417">
        <ele>2193.87</ele>
        <time>2018-08-22T12:29:51Z</time>
      </trkpt>
      <trkpt lat="44.84194" lon="6.82402">
        <ele>2190.5</ele>
        <time>2018-08-22T12:30:03Z</time>
      </trkpt>
      <trkpt lat="44.84193" lon="6.82386">
        <ele>2187.62</ele>
        <time>2018-08-22T12:30:13Z</time>
      </trkpt>
      <trkpt lat="44.84195" lon="6.82382">
        <ele>2186.66</ele>
        <time>2018-08-22T12:30:16Z</time>
      </trkpt>
      <trkpt lat="44.84197" lon="6.82372">
        <ele>2184.73</ele>
        <time>2018-08-22T12:30:26Z</time>
      </trkpt>
      <trkpt lat="44.842" lon="6.82367">
        <ele>2183.29</ele>
        <time>2018-08-22T12:30:30Z</time>
      </trkpt>
      <trkpt lat="44.84201" lon="6.82352">
        <ele>2180.41</ele>
        <time>2018-08-22T12:30:40Z</time>
      </trkpt>
      <trkpt lat="44.84203" lon="6.8234">
        <ele>2178</ele>
        <time>2018-08-22T12:30:49Z</time>
      </trkpt>
      <trkpt lat="44.84203" lon="6.82337">
        <ele>2176.56</ele>
        <time>2018-08-22T12:30:52Z</time>
      </trkpt>
      <trkpt lat="44.84203" lon="6.82332">
        <ele>2175.6</ele>
        <time>2018-08-22T12:30:56Z</time>
      </trkpt>
      <trkpt lat="44.84204" lon="6.82312">
        <ele>2172.24</ele>
        <time>2018-08-22T12:31:10Z</time>
      </trkpt>
      <trkpt lat="44.84203" lon="6.82306">
        <ele>2171.76</ele>
        <time>2018-08-22T12:31:14Z</time>
      </trkpt>
      <trkpt lat="44.84203" lon="6.82296">
        <ele>2169.35</ele>
        <time>2018-08-22T12:31:22Z</time>
      </trkpt>
      <trkpt lat="44.84197" lon="6.82282">
        <ele>2167.43</ele>
        <time>2018-08-22T12:31:33Z</time>
      </trkpt>
      <trkpt lat="44.84196" lon="6.8227">
        <ele>2164.06</ele>
        <time>2018-08-22T12:31:45Z</time>
      </trkpt>
      <trkpt lat="44.84195" lon="6.82267">
        <ele>2163.1</ele>
        <time>2018-08-22T12:31:47Z</time>
      </trkpt>
      <trkpt lat="44.84197" lon="6.82254">
        <ele>2160.22</ele>
        <time>2018-08-22T12:31:59Z</time>
      </trkpt>
      <trkpt lat="44.84195" lon="6.82251">
        <ele>2158.78</ele>
        <time>2018-08-22T12:32:03Z</time>
      </trkpt>
      <trkpt lat="44.84189" lon="6.82238">
        <ele>2155.89</ele>
        <time>2018-08-22T12:32:15Z</time>
      </trkpt>
      <trkpt lat="44.84185" lon="6.82225">
        <ele>2152.53</ele>
        <time>2018-08-22T12:32:27Z</time>
      </trkpt>
      <trkpt lat="44.84183" lon="6.82214">
        <ele>2150.61</ele>
        <time>2018-08-22T12:32:41Z</time>
      </trkpt>
      <trkpt lat="44.84183" lon="6.82203">
        <ele>2147.72</ele>
        <time>2018-08-22T12:32:53Z</time>
      </trkpt>
      <trkpt lat="44.84183" lon="6.82191">
        <ele>2144.84</ele>
        <time>2018-08-22T12:33:05Z</time>
      </trkpt>
      <trkpt lat="44.84185" lon="6.82181">
        <ele>2142.92</ele>
        <time>2018-08-22T12:33:14Z</time>
      </trkpt>
      <trkpt lat="44.8419" lon="6.82167">
        <ele>2140.51</ele>
        <time>2018-08-22T12:33:24Z</time>
      </trkpt>
      <trkpt lat="44.84195" lon="6.82151">
        <ele>2137.63</ele>
        <time>2018-08-22T12:33:37Z</time>
      </trkpt>
      <trkpt lat="44.84194" lon="6.82142">
        <ele>2134.74</ele>
        <time>2018-08-22T12:33:49Z</time>
      </trkpt>
      <trkpt lat="44.84196" lon="6.82129">
        <ele>2131.38</ele>
        <time>2018-08-22T12:34:01Z</time>
      </trkpt>
      <trkpt lat="44.84202" lon="6.82122">
        <ele>2128.02</ele>
        <time>2018-08-22T12:34:12Z</time>
      </trkpt>
      <trkpt lat="44.84206" lon="6.82112">
        <ele>2125.61</ele>
        <time>2018-08-22T12:34:24Z</time>
      </trkpt>
      <trkpt lat="44.84206" lon="6.8211">
        <ele>2125.13</ele>
        <time>2018-08-22T12:34:25Z</time>
      </trkpt>
      <trkpt lat="44.84207" lon="6.82102">
        <ele>2123.69</ele>
        <time>2018-08-22T12:34:31Z</time>
      </trkpt>
      <trkpt lat="44.84208" lon="6.82096">
        <ele>2123.21</ele>
        <time>2018-08-22T12:34:35Z</time>
      </trkpt>
      <trkpt lat="44.84205" lon="6.82087">
        <ele>2122.73</ele>
        <time>2018-08-22T12:34:42Z</time>
      </trkpt>
      <trkpt lat="44.84207" lon="6.82084">
        <ele>2124.17</ele>
        <time>2018-08-22T12:34:45Z</time>
      </trkpt>
      <trkpt lat="44.84205" lon="6.82077">
        <ele>2125.61</ele>
        <time>2018-08-22T12:34:57Z</time>
      </trkpt>
      <trkpt lat="44.84205" lon="6.82061">
        <ele>2124.17</ele>
        <time>2018-08-22T12:35:07Z</time>
      </trkpt>
      <trkpt lat="44.84208" lon="6.82042">
        <ele>2121.29</ele>
        <time>2018-08-22T12:35:20Z</time>
      </trkpt>
      <trkpt lat="44.84214" lon="6.82028">
        <ele>2117.92</ele>
        <time>2018-08-22T12:35:34Z</time>
      </trkpt>
      <trkpt lat="44.84219" lon="6.82013">
        <ele>2114.56</ele>
        <time>2018-08-22T12:35:49Z</time>
      </trkpt>
      <trkpt lat="44.84226" lon="6.82002">
        <ele>2111.67</ele>
        <time>2018-08-22T12:36:02Z</time>
      </trkpt>
      <trkpt lat="44.84229" lon="6.82001">
        <ele>2110.71</ele>
        <time>2018-08-22T12:36:05Z</time>
      </trkpt>
      <trkpt lat="44.84236" lon="6.81989">
        <ele>2107.35</ele>
        <time>2018-08-22T12:36:17Z</time>
      </trkpt>
      <trkpt lat="44.84243" lon="6.81973">
        <ele>2103.5</ele>
        <time>2018-08-22T12:36:31Z</time>
      </trkpt>
      <trkpt lat="44.84245" lon="6.81957">
        <ele>2100.62</ele>
        <time>2018-08-22T12:36:43Z</time>
      </trkpt>
      <trkpt lat="44.8425" lon="6.81947">
        <ele>2097.73</ele>
        <time>2018-08-22T12:36:55Z</time>
      </trkpt>
      <trkpt lat="44.84254" lon="6.81934">
        <ele>2094.85</ele>
        <time>2018-08-22T12:37:07Z</time>
      </trkpt>
      <trkpt lat="44.8426" lon="6.81923">
        <ele>2091.49</ele>
        <time>2018-08-22T12:37:19Z</time>
      </trkpt>
      <trkpt lat="44.84267" lon="6.81917">
        <ele>2088.12</ele>
        <time>2018-08-22T12:37:32Z</time>
      </trkpt>
      <trkpt lat="44.84272" lon="6.81912">
        <ele>2085.72</ele>
        <time>2018-08-22T12:37:44Z</time>
      </trkpt>
      <trkpt lat="44.84277" lon="6.81904">
        <ele>2082.35</ele>
        <time>2018-08-22T12:37:55Z</time>
      </trkpt>
      <trkpt lat="44.84279" lon="6.81901">
        <ele>2081.87</ele>
        <time>2018-08-22T12:37:58Z</time>
      </trkpt>
      <trkpt lat="44.84282" lon="6.81904">
        <ele>2080.91</ele>
        <time>2018-08-22T12:38:02Z</time>
      </trkpt>
      <trkpt lat="44.84285" lon="6.81902">
        <ele>2079.47</ele>
        <time>2018-08-22T12:38:06Z</time>
      </trkpt>
      <trkpt lat="44.84286" lon="6.81891">
        <ele>2078.03</ele>
        <time>2018-08-22T12:38:12Z</time>
      </trkpt>
      <trkpt lat="44.84287" lon="6.81862">
        <ele>2076.1</ele>
        <time>2018-08-22T12:38:29Z</time>
      </trkpt>
      <trkpt lat="44.84286" lon="6.81836">
        <ele>2074.66</ele>
        <time>2018-08-22T12:38:45Z</time>
      </trkpt>
      <trkpt lat="44.84286" lon="6.81826">
        <ele>2074.66</ele>
        <time>2018-08-22T12:38:51Z</time>
      </trkpt>
      <trkpt lat="44.84286" lon="6.8181">
        <ele>2073.7</ele>
        <time>2018-08-22T12:39:00Z</time>
      </trkpt>
      <trkpt lat="44.84287" lon="6.81803">
        <ele>2073.22</ele>
        <time>2018-08-22T12:39:04Z</time>
      </trkpt>
      <trkpt lat="44.84288" lon="6.81793">
        <ele>2072.74</ele>
        <time>2018-08-22T12:39:10Z</time>
      </trkpt>
      <trkpt lat="44.84289" lon="6.81788">
        <ele>2072.74</ele>
        <time>2018-08-22T12:39:13Z</time>
      </trkpt>
      <trkpt lat="44.84292" lon="6.81754">
        <ele>2070.82</ele>
        <time>2018-08-22T12:39:31Z</time>
      </trkpt>
      <trkpt lat="44.84296" lon="6.81718">
        <ele>2068.89</ele>
        <time>2018-08-22T12:39:50Z</time>
      </trkpt>
      <trkpt lat="44.84295" lon="6.81712">
        <ele>2067.93</ele>
        <time>2018-08-22T12:40:03Z</time>
      </trkpt>
      <trkpt lat="44.843" lon="6.8171">
        <ele>2067.93</ele>
        <time>2018-08-22T12:40:26Z</time>
      </trkpt>
      <trkpt lat="44.84301" lon="6.81709">
        <ele>2067.93</ele>
        <time>2018-08-22T12:40:27Z</time>
      </trkpt>
      <trkpt lat="44.8432" lon="6.81708">
        <ele>2067.93</ele>
        <time>2018-08-22T12:40:43Z</time>
      </trkpt>
      <trkpt lat="44.84337" lon="6.81699">
        <ele>2066.49</ele>
        <time>2018-08-22T12:40:57Z</time>
      </trkpt>
      <trkpt lat="44.84358" lon="6.81683">
        <ele>2065.53</ele>
        <time>2018-08-22T12:41:14Z</time>
      </trkpt>
      <trkpt lat="44.84383" lon="6.81669">
        <ele>2064.09</ele>
        <time>2018-08-22T12:41:34Z</time>
      </trkpt>
      <trkpt lat="44.84384" lon="6.81668">
        <ele>2063.61</ele>
        <time>2018-08-22T12:41:35Z</time>
      </trkpt>
      <trkpt lat="44.84396" lon="6.81658">
        <ele>2063.13</ele>
        <time>2018-08-22T12:41:48Z</time>
      </trkpt>
      <trkpt lat="44.84402" lon="6.81644">
        <ele>2062.65</ele>
        <time>2018-08-22T12:41:57Z</time>
      </trkpt>
      <trkpt lat="44.84405" lon="6.81639">
        <ele>2062.17</ele>
        <time>2018-08-22T12:42:01Z</time>
      </trkpt>
      <trkpt lat="44.84418" lon="6.81622">
        <ele>2061.2</ele>
        <time>2018-08-22T12:42:16Z</time>
      </trkpt>
      <trkpt lat="44.84434" lon="6.81602">
        <ele>2060.24</ele>
        <time>2018-08-22T12:42:33Z</time>
      </trkpt>
      <trkpt lat="44.84449" lon="6.81602">
        <ele>2059.28</ele>
        <time>2018-08-22T12:42:46Z</time>
      </trkpt>
    </trkseg>
  </trk>
</gpx>